[[{"header":{"parameterUnit":"m.s-1","parameterCategory":1,"la1":30.6,"la2":29.2853,"lo1":-89.7004,"lo2":-87.6739,"dy":0.0162,"dx":0.0183,"nx":112,"ny":82,"refTime":"2023-07-11T12:00:00:Z","depth":0,"parameterNumber":2,"parameterNumberName":"U-component_of_WINDS"},"data":[0.0,0.0,0.0,0.0,0.0,0.0,0.0,0.0,0.0,0.0,0.0,0.0,0.0,0.0,0.0,0.0,0.0,0.0,0.0,0.0,0.0,0.0,0.0,0.0,0.0,0.0,0.0,0.0,0.0,0.0,0.0,0.0,0.0,0.0,0.0,0.0,0.0,0.0,0.0,0.0,0.0,0.0,0.0,0.0,0.0,0.0,0.0,0.0,0.0,0.0,0.0,0.0,0.0,0.0,0.0,0.0,0.0,0.0,0.0,0.0,0.0,0.0,0.0,0.0,0.0,0.0,0.0,0.0,0.0,0.0,0.0,0.0,0.0,0.0,0.0,0.0,0.0,0.0,0.0,0.0,0.0,0.0,0.0,0.0,0.0,0.0,0.0,0.0,0.0,0.0,-4.573,-4.9433,-5.477,-5.8074,-5.8153,-5.8152,-5.5466,-4.9235,0.0,0.0,0.0,0.0,0.0,0.0,0.0,0.0,0.0,0.0,0.0,0.0,0.0,0.0,0.0,0.0,0.0,0.0,0.0,0.0,0.0,0.0,0.0,0.0,0.0,0.0,0.0,0.0,0.0,0.0,0.0,0.0,0.0,0.0,0.0,0.0,0.0,0.0,0.0,0.0,0.0,0.0,0.0,0.0,0.0,0.0,0.0,0.0,0.0,0.0,0.0,0.0,0.0,0.0,0.0,0.0,0.0,0.0,0.0,0.0,0.0,0.0,0.0,0.0,0.0,0.0,0.0,0.0,0.0,0.0,0.0,0.0,0.0,0.0,0.0,0.0,0.0,0.0,0.0,0.0,0.0,0.0,0.0,0.0,0.0,0.0,0.0,0.0,0.0,0.0,0.0,0.0,0.0,0.0,0.0,0.0,0.0,0.0,0.0,0.0,0.0,0.0,0.0,0.0,-4.3289,-4.8596,-5.225,-5.4584,-5.5195,-5.5229,-5.3195,-4.8376,0.0,0.0,0.0,0.0,0.0,0.0,0.0,0.0,0.0,0.0,0.0,0.0,0.0,0.0,0.0,0.0,0.0,0.0,0.0,0.0,0.0,0.0,0.0,0.0,0.0,0.0,0.0,0.0,0.0,0.0,0.0,0.0,0.0,0.0,0.0,0.0,0.0,0.0,0.0,0.0,0.0,0.0,0.0,0.0,0.0,0.0,0.0,0.0,0.0,0.0,0.0,0.0,0.0,0.0,0.0,0.0,0.0,0.0,0.0,0.0,0.0,0.0,0.0,0.0,0.0,0.0,0.0,0.0,0.0,0.0,0.0,0.0,0.0,0.0,0.0,0.0,0.0,0.0,0.0,0.0,0.0,0.0,0.0,0.0,0.0,0.0,0.0,0.0,0.0,0.0,0.0,0.0,0.0,0.0,0.0,0.0,0.0,0.0,0.0,0.0,0.0,0.0,0.0,-4.2287,-4.4374,-4.8545,-5.1319,-5.2993,-5.3315,-5.3754,-5.208,-4.7597,-4.6094,0.0,0.0,0.0,0.0,0.0,0.0,0.0,0.0,0.0,0.0,0.0,0.0,0.0,0.0,0.0,0.0,0.0,0.0,0.0,0.0,0.0,0.0,0.0,0.0,0.0,0.0,0.0,0.0,0.0,0.0,0.0,0.0,0.0,0.0,0.0,0.0,0.0,0.0,0.0,0.0,0.0,0.0,0.0,0.0,0.0,0.0,0.0,0.0,0.0,0.0,0.0,0.0,0.0,0.0,0.0,0.0,0.0,0.0,0.0,0.0,0.0,0.0,0.0,0.0,0.0,0.0,0.0,0.0,0.0,0.0,0.0,0.0,0.0,0.0,0.0,0.0,0.0,0.0,0.0,0.0,0.0,0.0,0.0,0.0,0.0,0.0,0.0,0.0,0.0,0.0,0.0,0.0,0.0,0.0,0.0,0.0,0.0,0.0,0.0,0.0,0.0,0.0,-4.4005,-4.5382,-4.8189,-5.0304,-5.1589,-5.1775,-5.2029,-5.0574,-4.6769,-4.4394,0.0,0.0,0.0,0.0,0.0,0.0,0.0,0.0,0.0,0.0,0.0,0.0,0.0,0.0,0.0,0.0,0.0,0.0,0.0,0.0,0.0,0.0,0.0,0.0,0.0,0.0,0.0,0.0,0.0,0.0,0.0,0.0,0.0,0.0,0.0,0.0,0.0,0.0,0.0,0.0,0.0,0.0,0.0,0.0,0.0,0.0,0.0,0.0,0.0,0.0,0.0,0.0,0.0,0.0,0.0,0.0,0.0,0.0,0.0,0.0,0.0,0.0,0.0,0.0,0.0,0.0,0.0,0.0,0.0,0.0,0.0,0.0,0.0,0.0,0.0,0.0,0.0,0.0,0.0,0.0,0.0,0.0,0.0,0.0,0.0,0.0,0.0,0.0,0.0,0.0,0.0,0.0,0.0,0.0,0.0,0.0,0.0,0.0,0.0,0.0,0.0,0.0,-4.2202,-4.4384,-4.6701,-4.8325,-4.9509,-5.0185,-4.9052,-4.7551,-4.5889,-4.2145,0.0,0.0,0.0,0.0,0.0,0.0,0.0,0.0,0.0,0.0,0.0,0.0,0.0,0.0,0.0,0.0,0.0,0.0,0.0,0.0,0.0,0.0,0.0,0.0,0.0,0.0,0.0,0.0,0.0,0.0,0.0,0.0,0.0,0.0,0.0,0.0,0.0,0.0,0.0,0.0,0.0,0.0,0.0,0.0,0.0,0.0,0.0,0.0,0.0,0.0,0.0,0.0,0.0,0.0,0.0,0.0,0.0,0.0,0.0,0.0,0.0,0.0,0.0,0.0,0.0,0.0,0.0,0.0,0.0,0.0,0.0,0.0,0.0,0.0,0.0,0.0,0.0,0.0,0.0,0.0,0.0,0.0,0.0,0.0,0.0,0.0,0.0,0.0,0.0,0.0,0.0,0.0,0.0,0.0,0.0,0.0,0.0,0.0,0.0,0.0,0.0,0.0,-4.1339,-4.3403,0.0,-4.7564,-4.912,-4.939,-4.9323,-4.7977,-4.4961,0.0,0.0,0.0,0.0,0.0,0.0,0.0,0.0,0.0,0.0,0.0,0.0,0.0,0.0,0.0,0.0,0.0,0.0,0.0,0.0,0.0,0.0,0.0,0.0,0.0,0.0,0.0,0.0,0.0,0.0,0.0,0.0,0.0,0.0,0.0,0.0,0.0,0.0,0.0,0.0,0.0,0.0,0.0,0.0,0.0,0.0,0.0,0.0,0.0,0.0,0.0,0.0,0.0,0.0,0.0,0.0,0.0,0.0,0.0,0.0,0.0,0.0,0.0,0.0,0.0,0.0,0.0,0.0,0.0,0.0,0.0,0.0,0.0,0.0,0.0,0.0,0.0,0.0,0.0,0.0,0.0,0.0,0.0,0.0,0.0,0.0,0.0,0.0,0.0,0.0,0.0,0.0,0.0,0.0,0.0,0.0,0.0,0.0,0.0,0.0,0.0,0.0,-3.8599,-4.051,-4.2381,0.0,-4.638,-4.7784,-4.8257,-4.7764,-4.6296,-4.3642,0.0,0.0,0.0,0.0,0.0,0.0,0.0,0.0,0.0,0.0,0.0,0.0,0.0,0.0,0.0,0.0,0.0,0.0,0.0,0.0,0.0,0.0,0.0,0.0,0.0,0.0,0.0,0.0,0.0,0.0,0.0,0.0,0.0,0.0,0.0,0.0,0.0,0.0,0.0,0.0,0.0,0.0,0.0,0.0,0.0,0.0,0.0,0.0,0.0,0.0,0.0,0.0,0.0,0.0,0.0,0.0,0.0,0.0,0.0,0.0,0.0,0.0,0.0,0.0,0.0,0.0,0.0,0.0,0.0,0.0,0.0,0.0,0.0,0.0,0.0,0.0,0.0,0.0,0.0,0.0,0.0,0.0,0.0,0.0,0.0,0.0,0.0,0.0,0.0,0.0,0.0,0.0,0.0,0.0,0.0,0.0,0.0,0.0,0.0,0.0,0.0,0.0,-3.8582,-3.9639,-4.1247,-4.4259,-4.4598,-4.5207,-4.665,-4.3669,-4.1749,0.0,0.0,0.0,0.0,0.0,0.0,0.0,0.0,0.0,0.0,0.0,0.0,0.0,0.0,0.0,0.0,0.0,0.0,0.0,0.0,0.0,0.0,0.0,0.0,0.0,0.0,0.0,0.0,0.0,0.0,0.0,0.0,0.0,0.0,0.0,0.0,0.0,0.0,0.0,0.0,0.0,0.0,0.0,0.0,0.0,0.0,0.0,0.0,0.0,0.0,0.0,0.0,0.0,0.0,0.0,0.0,0.0,0.0,0.0,0.0,0.0,0.0,0.0,0.0,0.0,0.0,0.0,0.0,0.0,0.0,0.0,0.0,0.0,0.0,0.0,0.0,0.0,0.0,0.0,0.0,0.0,0.0,0.0,0.0,0.0,0.0,0.0,0.0,0.0,0.0,0.0,0.0,0.0,0.0,0.0,0.0,0.0,0.0,0.0,0.0,0.0,0.0,0.0,-3.7202,-3.9012,-4.084,-4.2787,-4.3955,-4.4682,-4.4887,-4.3664,-4.1894,-3.9498,0.0,0.0,0.0,0.0,0.0,0.0,0.0,0.0,0.0,0.0,0.0,0.0,0.0,0.0,0.0,0.0,0.0,0.0,0.0,0.0,0.0,0.0,0.0,0.0,0.0,0.0,0.0,0.0,0.0,0.0,0.0,0.0,0.0,0.0,0.0,0.0,0.0,0.0,0.0,0.0,0.0,0.0,0.0,0.0,0.0,0.0,0.0,0.0,0.0,0.0,0.0,0.0,0.0,0.0,0.0,0.0,0.0,0.0,0.0,0.0,0.0,0.0,0.0,0.0,0.0,0.0,0.0,0.0,0.0,0.0,0.0,0.0,0.0,0.0,0.0,0.0,0.0,0.0,0.0,0.0,0.0,0.0,0.0,0.0,0.0,0.0,0.0,0.0,0.0,0.0,0.0,0.0,0.0,0.0,0.0,0.0,0.0,0.0,0.0,0.0,0.0,0.0,-3.6558,-3.8234,-3.9884,-4.166,-4.2783,-4.3295,-4.296,-4.2328,-4.0683,-3.7725,0.0,0.0,0.0,0.0,0.0,0.0,0.0,0.0,0.0,0.0,0.0,0.0,0.0,0.0,0.0,0.0,0.0,0.0,0.0,0.0,0.0,0.0,0.0,0.0,0.0,0.0,0.0,0.0,0.0,0.0,0.0,0.0,0.0,0.0,0.0,0.0,0.0,0.0,0.0,0.0,0.0,0.0,0.0,0.0,0.0,0.0,0.0,0.0,0.0,0.0,0.0,0.0,0.0,0.0,0.0,0.0,0.0,0.0,0.0,0.0,0.0,0.0,0.0,0.0,0.0,0.0,0.0,0.0,0.0,0.0,0.0,0.0,0.0,0.0,0.0,0.0,0.0,0.0,0.0,0.0,0.0,0.0,0.0,0.0,0.0,0.0,0.0,0.0,0.0,0.0,0.0,0.0,0.0,0.0,0.0,0.0,0.0,0.0,0.0,0.0,0.0,0.0,-3.6524,-3.7476,-3.8745,-4.0863,-4.1287,-4.1264,-4.0976,-4.011,-3.8674,-3.6421,0.0,0.0,0.0,0.0,0.0,0.0,0.0,0.0,0.0,0.0,0.0,0.0,0.0,0.0,0.0,0.0,0.0,0.0,0.0,0.0,0.0,0.0,0.0,0.0,0.0,0.0,0.0,0.0,0.0,0.0,0.0,0.0,0.0,0.0,0.0,0.0,0.0,0.0,0.0,0.0,0.0,0.0,0.0,0.0,0.0,0.0,0.0,0.0,0.0,0.0,0.0,0.0,0.0,0.0,0.0,0.0,0.0,0.0,0.0,0.0,-4.6856,0.0,0.0,0.0,0.0,0.0,0.0,0.0,0.0,0.0,0.0,0.0,0.0,0.0,0.0,0.0,0.0,0.0,0.0,0.0,0.0,0.0,0.0,0.0,0.0,0.0,0.0,0.0,0.0,0.0,0.0,0.0,0.0,0.0,0.0,0.0,0.0,0.0,0.0,0.0,0.0,0.0,-3.6592,-3.764,-3.877,-4.0182,-4.0053,-3.9648,-3.9102,-3.8526,-3.739,-3.5567,-3.4288,0.0,0.0,0.0,0.0,0.0,0.0,0.0,0.0,0.0,0.0,0.0,0.0,0.0,0.0,0.0,0.0,0.0,0.0,0.0,0.0,0.0,0.0,0.0,0.0,0.0,0.0,0.0,0.0,0.0,0.0,0.0,0.0,0.0,0.0,0.0,0.0,0.0,0.0,0.0,0.0,0.0,0.0,0.0,0.0,0.0,0.0,0.0,0.0,0.0,0.0,0.0,0.0,0.0,0.0,0.0,0.0,0.0,0.0,0.0,0.0,-4.7664,0.0,0.0,0.0,0.0,0.0,0.0,0.0,0.0,0.0,0.0,0.0,0.0,0.0,0.0,0.0,0.0,0.0,0.0,0.0,0.0,0.0,0.0,0.0,0.0,0.0,0.0,0.0,0.0,0.0,0.0,0.0,0.0,0.0,0.0,0.0,0.0,0.0,0.0,0.0,0.0,-3.633,-3.7403,-3.8378,-3.9137,-3.8992,-3.8481,-3.765,-3.7451,-3.664,-3.4985,-3.4314,0.0,0.0,0.0,0.0,0.0,0.0,0.0,0.0,0.0,0.0,0.0,0.0,0.0,0.0,0.0,0.0,0.0,0.0,0.0,0.0,0.0,0.0,0.0,0.0,0.0,0.0,0.0,0.0,0.0,0.0,0.0,0.0,0.0,0.0,0.0,0.0,0.0,0.0,0.0,0.0,0.0,0.0,0.0,0.0,0.0,0.0,0.0,0.0,0.0,0.0,0.0,0.0,0.0,0.0,-5.3739,-5.4213,-5.3555,-5.4051,-5.528,-5.2325,-5.1114,-5.1059,0.0,0.0,0.0,0.0,0.0,0.0,0.0,0.0,0.0,0.0,0.0,0.0,0.0,0.0,0.0,0.0,0.0,0.0,0.0,0.0,0.0,0.0,0.0,0.0,0.0,-4.051,-4.0713,0.0,0.0,0.0,0.0,0.0,0.0,0.0,0.0,0.0,0.0,0.0,0.0,-3.6067,-3.7068,-3.7834,-3.7987,-3.7905,-3.7421,-3.6492,-3.6604,-3.6144,-3.4758,-3.4578,-3.3739,0.0,0.0,0.0,0.0,0.0,0.0,0.0,0.0,0.0,0.0,0.0,0.0,0.0,0.0,0.0,0.0,0.0,0.0,0.0,0.0,0.0,0.0,0.0,0.0,0.0,0.0,0.0,0.0,0.0,0.0,0.0,0.0,-4.6421,-4.7199,0.0,0.0,0.0,0.0,0.0,0.0,0.0,0.0,0.0,0.0,0.0,0.0,0.0,0.0,-5.1687,-5.387,-5.5027,-5.5174,-5.796,-5.8988,-5.8395,-5.8285,-5.8767,-5.952,-5.7685,0.0,-5.2803,-5.1775,0.0,0.0,0.0,0.0,0.0,0.0,0.0,0.0,0.0,0.0,0.0,0.0,0.0,0.0,0.0,0.0,0.0,0.0,0.0,0.0,0.0,0.0,-4.1187,-4.1728,-4.1999,-4.2049,0.0,-4.0054,-3.8447,-3.7618,0.0,0.0,0.0,0.0,0.0,0.0,0.0,0.0,-3.6111,-3.6993,-3.7419,-3.6873,-3.6492,-3.6128,-3.5683,-3.5677,-3.5582,-3.5385,-3.4801,-3.4384,-3.4129,-3.2437,0.0,0.0,0.0,0.0,0.0,0.0,0.0,0.0,0.0,0.0,0.0,0.0,0.0,0.0,0.0,0.0,0.0,0.0,0.0,0.0,0.0,0.0,0.0,0.0,0.0,0.0,0.0,0.0,0.0,-4.5421,-4.7425,-4.6859,-4.8092,-4.8131,0.0,0.0,0.0,0.0,0.0,0.0,0.0,0.0,0.0,-5.2677,-5.3954,-5.5108,-5.6162,-5.7583,-5.851,-5.8988,-6.0401,-6.1135,-6.1202,-6.0768,-6.0988,-6.1667,-6.0052,-5.8547,-5.7042,-5.4436,-5.1715,-4.9023,0.0,0.0,0.0,0.0,0.0,-4.4366,-4.4716,0.0,0.0,0.0,0.0,0.0,0.0,0.0,0.0,0.0,0.0,0.0,0.0,0.0,0.0,-4.2844,-4.325,-4.3599,-4.3599,-4.1964,-4.0244,0.0,-3.8655,-3.8003,-3.7181,0.0,0.0,0.0,0.0,0.0,-3.6373,-3.6751,-3.6844,-3.6321,-3.5941,-3.5651,-3.5504,-3.5504,-3.5504,-3.5504,-3.522,-3.4876,-3.4518,-3.3649,-3.2841,0.0,0.0,0.0,0.0,0.0,0.0,0.0,0.0,0.0,0.0,0.0,0.0,0.0,0.0,0.0,0.0,0.0,0.0,0.0,0.0,0.0,0.0,0.0,0.0,0.0,0.0,0.0,0.0,-4.791,-4.9022,-4.7219,-4.9754,-5.0348,0.0,0.0,0.0,0.0,0.0,0.0,-5.3013,-5.3785,-5.482,-5.6169,-5.7492,-5.8762,-5.9931,-6.0467,-6.1117,-6.1906,-6.1906,-6.2108,-6.2475,-6.1869,-6.1814,-6.2126,-6.0713,-6.0107,-5.9832,-5.6418,-5.3671,-5.1478,-4.9575,-4.7758,-4.61,-4.5851,-4.5981,-4.6341,-4.6697,-4.7158,-4.7394,-4.5923,0.0,-4.3335,-4.1297,0.0,0.0,0.0,0.0,-4.1288,-4.166,0.0,-4.3392,-4.3392,-4.3859,-4.4204,-4.3934,-4.2579,-4.1243,0.0,-3.9823,-3.8901,-3.7798,0.0,0.0,0.0,0.0,-3.6778,-3.6171,-3.6288,-3.629,-3.591,-3.5651,-3.5504,-3.5504,-3.5504,-3.5504,-3.5504,-3.5504,-3.528,-3.4788,-3.4593,-3.3933,-3.2781,0.0,0.0,0.0,0.0,0.0,0.0,0.0,0.0,0.0,0.0,0.0,0.0,0.0,0.0,0.0,0.0,0.0,0.0,0.0,0.0,0.0,0.0,0.0,0.0,0.0,0.0,0.0,0.0,0.0,-5.0014,-5.4306,0.0,0.0,0.0,0.0,-5.3399,-5.3504,-5.4492,-5.6627,-5.7372,-5.8258,-5.944,-6.0233,-6.09,-6.149,-6.1502,-6.1942,-6.275,-6.275,-6.2365,-6.1649,-6.1612,-6.1208,-6.0474,-5.9648,-5.9258,-5.9129,-5.7409,-5.5496,-5.3419,-5.1034,-4.9311,-4.8068,-4.7227,-4.7364,-4.7878,-4.7081,-4.6819,-4.6955,-4.7547,-4.6295,-4.4259,-4.2658,-4.123,0.0,0.0,-4.117,-4.1525,-4.2919,-4.3341,-4.3392,-4.3392,-4.3426,-4.3175,-4.2072,-4.1221,-4.0871,0.0,-4.0117,-3.8816,-3.8734,0.0,-3.7329,-3.6692,-3.6573,-3.6168,-3.5109,-3.558,-3.591,-3.5554,-3.5504,-3.5504,-3.5504,-3.5504,-3.5504,-3.5504,-3.5504,-3.5489,-3.5459,-3.4848,-3.4189,-3.3455,-3.1509,0.0,0.0,0.0,0.0,0.0,0.0,0.0,0.0,0.0,0.0,0.0,0.0,0.0,0.0,0.0,0.0,0.0,0.0,0.0,0.0,0.0,0.0,0.0,0.0,0.0,0.0,0.0,0.0,-5.3154,-5.6798,0.0,-5.441,-5.5431,-5.6504,-5.6953,-5.7984,-5.903,-6.004,-6.0868,-6.1308,-6.1363,-6.2172,-6.2516,-6.2365,-6.2383,-6.253,-6.278,-6.278,-6.2383,-6.1594,-6.1594,-6.1153,-6.0364,-5.9533,-5.9184,-5.9074,-5.7441,-5.6121,-5.4954,-5.3581,-5.2179,-5.0771,-4.9479,-4.9452,-4.9927,-4.8646,-4.8528,-4.8646,-4.7022,-4.528,-4.3639,-4.2608,-4.1914,-4.1585,-4.183,-4.2252,-4.2642,-4.2675,-4.3436,-4.391,-4.2929,-4.2873,-4.2775,-4.1888,-4.0633,-3.9777,-4.0038,-3.9133,-3.827,-3.8039,-3.7578,-3.7055,-3.6595,-3.6338,-3.6055,-3.5639,-3.5646,-3.5619,-3.5504,-3.5504,-3.5504,-3.5504,-3.5504,-3.5504,-3.5504,-3.5504,-3.5504,-3.5504,-3.4846,-3.4158,-3.3499,-3.1929,-3.0836,0.0,0.0,0.0,0.0,0.0,0.0,0.0,0.0,0.0,0.0,0.0,0.0,0.0,0.0,0.0,0.0,0.0,0.0,0.0,0.0,0.0,0.0,0.0,0.0,0.0,0.0,-5.7465,-5.4808,-5.8837,-6.0527,-5.7308,-5.88,-6.0233,-6.0845,-6.1666,-6.2536,-6.3441,-6.3417,-6.3285,-6.3137,-6.3344,-6.326,-6.2805,-6.278,-6.2677,-6.2401,-6.2401,-6.1832,-6.0786,-6.0786,-6.0346,-5.9557,-5.9043,-5.8804,-5.8712,-5.7648,-5.6729,-5.5878,-5.4652,-5.369,-5.2716,-5.0799,-5.0405,-5.0625,-4.9154,-4.8951,-4.8951,-4.6498,-4.484,-4.3673,-4.2895,-4.232,-4.2033,-4.2523,-4.2844,-4.298,-4.2726,-4.342,-4.3781,-4.2126,-4.1898,-4.1771,-4.0706,-3.9593,-3.8792,-3.8662,-3.8147,-3.7653,-3.7431,-3.6983,-3.6585,-3.6352,-3.6052,-3.5829,-3.5829,-3.5619,-3.5504,-3.5504,-3.5504,-3.5504,-3.5504,-3.5504,-3.5504,-3.5504,-3.5295,-3.516,-3.516,-3.4502,-3.3844,-3.3185,-3.1678,-3.0596,-2.9913,0.0,0.0,0.0,0.0,0.0,0.0,0.0,0.0,0.0,0.0,0.0,0.0,0.0,0.0,0.0,0.0,0.0,0.0,0.0,0.0,0.0,0.0,0.0,-5.1174,-5.5934,-5.8396,-5.5203,-6.0627,-6.3339,-6.0012,-6.1935,-6.3819,-6.4913,-6.4288,-6.4679,-6.6616,-6.4943,-6.4184,-6.4762,-6.3761,-6.3075,-6.2768,-6.2768,-6.2365,-6.1557,-6.1557,-6.0731,-5.9184,-5.9184,-5.8767,-5.796,-5.796,-5.7941,-5.7923,-5.7886,-5.729,-5.6157,-5.4197,-5.3669,-5.3643,-5.1028,-5.0033,-4.9779,-4.8376,-4.7838,-4.7584,-4.6143,-4.5162,-4.4401,-4.3623,-4.2388,-4.1542,-4.2953,-4.2861,-4.2455,-4.3166,-4.3341,-4.2905,-4.1046,-4.0577,-4.0133,-3.8489,-3.81,-3.7943,-3.7553,-3.7211,-3.6969,-3.6969,-3.6429,-3.6005,-3.5973,-3.5716,0.0,-3.5504,-3.5504,-3.5504,-3.5504,-3.5504,-3.5504,-3.5504,-3.5489,-3.5474,-3.5474,-3.4831,-3.4474,-3.4474,-3.3814,-3.3155,-3.2467,-3.0734,-2.9505,-2.8834,0.0,0.0,0.0,0.0,0.0,0.0,0.0,0.0,0.0,0.0,0.0,0.0,0.0,0.0,0.0,0.0,0.0,0.0,0.0,0.0,0.0,0.0,-5.528,-5.6107,-5.9204,-6.1493,-6.1781,-6.4012,-6.5166,-6.4224,-6.4762,-6.5137,-6.5079,-6.4875,-6.481,-6.4982,-6.4488,-6.4175,-6.4147,-6.3717,-6.3076,-6.2232,-6.2022,-6.152,-6.0731,-6.0731,-6.0199,-5.9184,-5.9184,-5.8432,-5.7134,-5.7134,-5.6804,-5.6198,-5.5629,-5.5263,-5.5033,-5.4492,-5.3858,-5.2949,-5.0273,-4.8629,-4.7648,-4.7242,-4.6752,-4.616,-4.5196,-4.4367,-4.3589,-4.2828,-4.232,-4.2083,-4.2489,-4.2455,-4.2219,-4.1897,-4.2202,-4.2192,-4.0601,-4.0161,-3.9841,-3.8825,-3.8103,-3.7553,-3.7211,-3.6877,-3.6631,-3.6631,-3.6289,-3.5925,-3.5683,0.0,0.0,-3.5504,-3.5504,-3.5504,-3.5504,-3.5504,-3.5504,-3.5504,-3.504,-3.4756,-3.4756,-3.4143,-3.3769,-3.3769,-3.3125,-3.2452,-3.1795,-3.094,-3.0207,0.0,0.0,0.0,0.0,0.0,0.0,0.0,0.0,0.0,0.0,0.0,0.0,0.0,0.0,0.0,0.0,0.0,0.0,0.0,0.0,0.0,0.0,-5.3857,-5.7088,-5.955,-6.1177,-6.2466,-6.3435,-6.4609,-6.5359,-6.5359,-6.5686,-6.5863,-6.5791,-6.5359,-6.5222,-6.55,-6.474,-6.4353,-6.4441,-6.3881,-6.308,-6.2017,-6.1739,-6.1025,-5.9905,-5.9905,-5.9483,-5.8694,-5.8364,-5.7662,0.0,-5.6436,-5.6033,-5.5556,-5.5097,-5.4579,0.0,0.0,0.0,0.0,0.0,-4.753,-4.6752,-4.6447,-4.5855,-4.5111,-4.435,-4.3572,-4.2861,-4.2422,-4.2066,-4.1897,-4.2202,-4.2066,-4.1728,-4.1322,-4.1525,-4.1516,-4.0136,-3.9617,-3.9268,-3.8621,-3.7976,-3.745,-3.7241,0.0,0.0,-3.6492,-3.6115,-3.5716,-3.5537,-3.5504,-3.5504,0.0,-3.5504,-3.5504,-3.5504,-3.5504,-3.5504,-3.5504,-3.513,0.0,0.0,0.0,-3.3245,-3.2706,-3.2273,0.0,0.0,0.0,-3.0444,0.0,0.0,0.0,0.0,-2.8289,-2.8246,0.0,0.0,0.0,0.0,0.0,0.0,0.0,0.0,0.0,0.0,0.0,0.0,0.0,0.0,0.0,0.0,-5.6079,-5.8388,-6.1504,-6.1947,-6.2024,-6.2216,-6.3628,-6.4609,-6.4609,-6.5301,-6.5941,-6.6394,-6.5515,-6.5498,-6.6748,0.0,0.0,0.0,0.0,-6.2913,-6.1786,-6.1463,-6.0566,-5.9056,-5.9056,-5.8657,-5.7831,-5.7134,-5.6712,-5.6492,-5.5757,-5.5409,-5.5317,-5.5317,-5.4501,-5.3038,-5.1462,-5.0406,-4.9475,-4.7435,-4.6616,0.0,0.0,0.0,0.0,-4.3538,-4.2777,-4.2151,-4.2066,-4.1593,-4.1221,-4.1863,-4.1576,-4.1085,-4.1085,-4.1085,-4.0796,-3.9716,-3.9142,-3.8694,-3.8286,-3.7815,-3.7464,-3.731,-3.6798,-3.6353,-3.6183,-3.5802,-3.5504,-3.5504,-3.5504,0.0,-3.5504,-3.5504,-3.5504,-3.5504,0.0,0.0,-3.5385,-3.525,-3.4906,-3.4324,-3.3649,-3.2751,-3.1555,-3.1438,-3.1219,-3.0807,-3.0812,-3.0295,-2.9233,-2.9299,-2.8871,-2.7967,-2.8333,-2.8635,0.0,0.0,0.0,0.0,0.0,0.0,0.0,0.0,0.0,0.0,0.0,0.0,0.0,0.0,0.0,-5.4236,-5.7044,-5.9492,-6.0858,-6.105,-6.155,-6.2916,-6.3974,-6.4609,-6.4609,-6.4743,-6.4808,-6.469,-6.4279,-6.4177,-6.4434,-6.437,0.0,-6.3766,-6.3021,-6.1893,-6.0327,-5.9882,-5.9189,-5.8235,0.0,0.0,-5.7042,-5.6877,-5.6088,-5.4858,-5.4693,-5.4252,-5.3665,-5.3665,-5.299,-5.1769,-5.0065,-4.8596,-4.7308,-4.6285,-4.5534,-4.5021,-4.4869,-4.4282,-4.3521,-4.276,-4.2016,-4.1305,-4.0722,-4.0434,0.0,-4.0502,-4.0434,-4.0316,-4.0316,-4.0316,-4.0257,-4.0028,-3.9355,-3.8777,-3.8678,-3.8062,-3.7188,-3.6086,-3.5767,-3.5339,-3.4272,-3.4881,-3.5504,-3.5504,-3.5504,-3.5504,-3.5504,-3.5504,-3.5504,-3.5504,-3.5011,-3.4698,-3.4698,-3.3694,-3.3036,-3.2901,-3.2243,-3.1765,-3.1511,-3.1161,-3.0896,-3.0807,-3.0045,-2.9404,-2.8885,-2.8533,-2.7974,-2.7209,-2.7543,-2.7596,0.0,0.0,0.0,0.0,0.0,0.0,0.0,0.0,0.0,0.0,0.0,-4.9306,0.0,0.0,-5.5052,-5.6727,-5.8418,-5.98,-6.0685,-6.08,-6.1108,-6.1954,-6.282,-6.3339,-6.3339,-6.3705,-6.3886,-6.3763,-6.3783,-6.3622,-6.322,-6.352,-6.3368,-6.2617,-6.2066,-6.115,-5.9908,-5.9444,-5.8804,-5.7997,-5.7593,-5.7189,-5.6785,-5.5978,-5.517,-5.4381,-5.3977,-5.3573,-5.3164,-5.2761,-5.2114,-5.1162,-4.9129,-4.7797,-4.6901,-4.6015,-4.5229,-4.4615,-4.4615,-4.3826,-4.2794,-4.2422,-4.1542,-4.0578,-4.0214,-4.0096,-4.0096,-4.0096,-4.0096,-4.0096,-4.0096,-4.0096,-4.0045,-3.9799,-3.9276,-3.8678,-3.8282,-3.7441,-3.6509,-3.5658,-3.5078,-3.4531,-3.3864,-3.4177,-3.4607,-3.4936,-3.4711,-3.4622,-3.4951,-3.4711,-3.4502,-3.4502,-3.4188,-3.3978,-3.3978,-3.308,-3.2512,-3.2512,-3.1869,-3.138,-3.1161,-3.0925,-3.0554,-3.007,-2.9698,-2.9136,-2.8444,-2.8326,-2.7811,-2.7007,-2.7175,-2.7194,0.0,0.0,0.0,0.0,0.0,0.0,0.0,0.0,-4.7922,-5.0846,-5.1712,-5.2761,-5.5474,-5.6244,-5.7129,-5.9177,-5.9658,-5.9992,-6.0704,-6.0646,-6.0608,-6.0781,-6.1581,-6.2101,-6.2101,-6.2685,-6.307,-6.307,-6.3274,-6.3111,-6.246,-6.2743,-6.2522,-6.1676,-6.1187,-6.0524,-5.9685,-5.9102,-5.8465,-5.7758,-5.695,-5.6492,-5.629,-5.4987,-5.4308,-5.4124,-5.3482,-5.3185,-5.3143,-5.2338,-5.16,-5.075,-4.869,-4.7516,-4.6846,-4.5852,-4.5094,-4.4615,-4.4615,-4.3599,-4.2286,-4.2286,-4.1314,-4.0096,-4.0096,-4.0096,-4.0096,-4.0096,-4.0096,-4.0096,-4.0096,-4.0096,-3.9969,-3.9497,-3.9088,-3.8546,-3.769,-3.6711,-3.5831,-3.5227,-3.4392,-3.3742,-3.3561,-3.3292,-3.338,-3.4204,-3.3844,-3.3694,-3.4249,-3.3829,-3.3499,-3.3499,-3.338,-3.3245,-3.3125,-3.2512,-3.2183,-3.2288,-3.1675,-3.1144,-3.0807,-3.0718,-3.0222,-2.9341,-2.9379,-2.8917,-2.798,-2.799,-2.754,-2.6739,-2.6637,-2.6786,-3.8996,-4.0454,-4.2962,-4.4494,-4.6272,-4.827,0.0,0.0,-5.2683,-5.3837,-5.5322,-5.6508,-5.6874,-5.8165,-5.9262,-5.9551,-6.0181,-6.0685,-6.0781,-6.0127,-5.9935,-6.0704,-6.1581,-6.2101,-6.2101,-6.2178,-6.2235,-6.2235,-6.2048,-6.1893,-6.1811,-6.2127,-6.1931,-6.1117,-6.0584,-5.9834,-5.8846,-5.7854,-5.721,-5.6932,-5.6106,-5.5354,-5.4656,-5.4473,-5.4014,-5.3335,-5.3243,-5.3185,-5.3143,-5.2338,-5.1394,-5.036,-4.9137,-4.7653,-4.6105,-4.51,-4.4682,-4.4615,-4.4615,-4.3599,-4.2286,-4.2286,-4.1314,-4.0096,-4.0096,-4.0096,-4.0096,-4.0096,-4.0096,-4.0096,-4.0096,-4.0096,-3.9969,-3.9497,-3.9088,-3.8515,-3.7379,-3.6552,-3.555,-3.4037,-3.3397,-3.2819,-3.1926,-3.1749,-3.2138,-3.3425,-3.3544,-3.3529,-3.3589,-3.3544,-3.3499,-3.3499,-3.2976,-3.2363,-3.1765,-3.112,-3.0986,-3.157,-3.0972,-3.0682,-3.0778,-3.0388,-2.9901,-2.931,-2.8641,-2.8033,-2.757,-2.6795,-2.622,-2.574,-2.5287,-2.5594,-4.123,-4.2329,-4.3875,-4.5598,-4.7453,-4.9394,-5.1423,-5.2558,-5.3876,-5.6222,-5.7291,-5.8102,-5.9064,-5.9834,-6.0296,0.0,-6.0593,-6.08,-6.08,-6.005,-5.9646,-5.9992,-6.0358,-6.0781,-6.1281,-6.1351,-6.1351,-6.1351,-6.1556,-6.1439,-6.0795,-6.1202,-6.0989,-6.0036,-5.9684,-5.9016,-5.8013,-5.7394,-5.6753,-5.6088,-5.528,-5.473,-5.4381,-5.3922,-5.3537,-5.3185,-5.3185,-5.3185,-5.3106,-5.1873,-5.088,-4.9991,-4.8222,-4.6837,-4.5807,-4.5405,-4.4671,-4.391,-4.391,-4.2912,-4.166,-4.166,-4.0933,-4.0096,-4.0096,-4.0096,-4.0096,-4.0096,-4.0096,-4.0096,-4.0096,-4.0096,-3.9918,-3.9222,-3.8925,-3.8372,-3.6746,-3.5844,-3.4934,-3.35,-3.3099,-3.279,-3.2182,-3.2422,-3.2856,-3.341,-3.2841,-3.2497,-3.2871,-3.2587,-3.2333,-3.2333,-3.2079,-3.1795,-3.1525,-3.1241,-3.1082,-3.1102,-3.0821,-3.0455,-2.9934,-2.9747,-2.931,-2.8605,-2.7719,-2.7262,-2.7209,-2.6289,-2.5777,-2.5586,-2.5372,-2.536,-4.2271,-4.3409,-4.4499,-4.6253,-4.8222,-5.0202,-5.1885,-5.3106,-5.4664,-5.7376,-5.8319,-5.8992,-6.0223,-6.0646,-6.08,-6.08,-6.08,-6.08,-6.08,-5.9858,-5.9338,-5.98,-5.9242,-5.9319,-6.0666,-6.08,-6.08,-6.08,-6.1205,-6.1078,-6.0222,-6.051,-6.0284,-5.9437,-5.9197,-5.8665,-5.7845,-5.7198,-5.6448,-5.5574,-5.4564,-5.4069,-5.4051,-5.3482,-5.3096,-5.2876,-5.2876,-5.2747,-5.2428,-5.1207,-5.0217,-4.9284,-4.7457,-4.6234,-4.5479,-4.5173,-4.4367,-4.3392,-4.3392,-4.2412,-4.1204,-4.1204,-4.0696,-4.0096,-4.0096,-4.0096,-4.0096,-4.0096,-4.0096,-4.0096,-4.0096,-3.9995,-3.9722,-3.898,-3.8706,-3.8056,-3.6064,-3.5194,-3.4386,-3.2993,-3.2652,-3.2507,-3.2272,-3.2781,-3.3215,-3.3215,-3.2392,-3.2019,-3.2706,-3.2183,-3.1705,-3.1525,-3.1511,-3.1511,-3.1511,-3.1331,-3.1039,-3.0573,-3.0382,-2.9824,-2.8825,-2.8795,-2.8481,-2.7761,-2.6886,-2.6505,-2.6677,-2.5653,-2.5159,-2.5146,-2.4996,-2.4687,-4.0718,-4.2698,-4.4712,-4.6462,-4.8798,-5.1087,-5.2779,-5.4434,-5.5876,-5.6849,-5.8319,-5.9473,-5.9531,-6.0223,-6.08,-6.08,-6.08,-6.08,-6.08,-5.9377,-5.8934,-6.0569,-5.858,-5.8061,0.0,-6.08,-6.08,-6.08,-6.0819,-6.0685,-6.0403,-6.0217,-5.9994,-5.9696,-5.9436,-5.9082,-5.8679,-5.7121,-5.608,-5.5596,-5.3995,-5.3243,-5.3243,-5.3203,-5.2766,-5.2032,-5.2032,-5.1591,-5.0835,-5.0411,-4.9406,-4.8098,-4.736,-4.623,-4.4899,-4.3868,-4.3426,-4.3392,-4.3392,-4.2412,-4.1204,-4.1204,-4.0696,-4.0096,-4.0096,-4.0096,-4.0096,-4.0096,-4.0096,-4.0096,-4.0096,-3.9747,-3.9329,-3.8914,-3.8455,-3.753,-3.5394,-3.4707,-3.4,-3.2355,-3.1771,-3.154,-3.1525,-3.2079,-3.2542,-3.2542,-3.2512,-3.2721,-3.338,-3.2886,-3.2213,-3.157,-3.1511,-3.1511,-3.1511,-3.0883,-3.0369,-2.9942,-2.9327,-2.8554,-2.76,-2.7541,-2.7317,-2.6847,-2.6162,-2.5819,-2.5845,-2.462,-2.4054,-2.4029,-2.3446,-2.317,-4.1421,-4.3139,-4.472,-4.6471,-4.8375,-5.0144,-5.1279,-5.328,-5.5145,-5.5972,-5.6148,-5.6361,-5.6939,-5.7277,-5.767,-5.8248,-5.9246,-6.0146,-6.0723,-5.9819,-5.9108,-5.9146,-5.8858,0.0,0.0,0.0,0.0,-6.0762,-6.08,-6.0678,-6.0416,-6.0198,-5.9991,-5.9713,-5.9454,-5.8577,-5.7121,-5.6563,-5.5525,-5.4014,-5.3463,-5.3185,-5.3185,-5.3185,-5.3059,-5.2766,-5.2234,-5.1848,-5.1458,-4.976,-4.8686,-4.795,-4.6547,-4.5276,-4.42,-4.363,-4.2794,-4.1948,-4.1948,-4.1288,-4.046,-4.046,-4.0316,-4.0096,-4.0096,-4.0096,-4.0096,-4.0096,-4.0096,-4.0096,-4.0096,-3.9995,-3.9562,-3.8354,-3.7954,-3.7182,-3.4757,-3.4525,-3.4218,-3.2353,-3.2593,-3.2899,-3.2258,-3.3095,-3.3978,-3.4427,-3.3365,-3.2407,-3.2183,-3.1974,-3.175,-3.1525,-3.1511,-3.1511,-3.1511,-3.1286,-3.0835,-3.0085,-2.9823,-2.9245,-2.8259,-2.7845,-2.7362,-2.6736,-2.5765,-2.5229,-2.5129,-2.4362,-2.4004,-2.3991,-2.3803,-2.3471,-4.2327,-4.3828,-4.5105,-4.6547,-4.8163,-4.9625,-5.05,-5.2183,-5.3818,-5.4645,-5.4417,-5.4236,-5.4794,-5.5151,-5.545,-5.569,-5.7144,-5.8498,-5.9361,-5.8995,-5.8784,-5.9146,-5.9127,-5.9108,0.0,0.0,0.0,-6.0723,-6.08,-6.0714,-6.054,-6.0256,-5.987,-5.9406,-5.9055,-5.8034,-5.6284,-5.5987,-5.4951,-5.3185,-5.3185,-5.3059,-5.2784,-5.3057,-5.2747,-5.1903,-5.1665,-5.1224,-5.0541,-4.8908,-4.8083,-4.7655,-4.5996,-4.4811,-4.3931,-4.3068,-4.2112,-4.1204,-4.1204,-4.0713,-4.0096,-4.0096,-4.0096,-4.0096,-4.0096,-4.0096,-4.0096,-4.0096,-4.0096,-4.0096,-4.0096,-3.9969,-3.9486,-3.8051,-3.7594,-3.6826,-3.4411,-3.4325,-3.4174,-3.2353,-3.2774,-3.3141,-3.2302,-3.3066,-3.3918,-3.4367,-3.3335,-3.2437,-3.2228,-3.2004,-3.1765,-3.1525,-3.1511,-3.1438,-3.1248,-3.1248,-3.0661,-2.9261,-2.9082,-2.846,-2.7188,-2.6656,-2.621,-2.5777,-2.4936,-2.4468,-2.4375,-2.3897,-2.369,-2.369,-2.369,-2.3602,-4.3266,-4.4622,-4.5806,-4.6624,-4.8086,-4.9548,-5.0385,-5.1221,-5.2058,-5.2895,-5.307,-5.3042,0.0,0.0,-5.4169,-5.3407,-5.4824,-5.6309,-5.7172,-5.7287,-5.8143,0.0,0.0,0.0,0.0,0.0,0.0,-6.0742,0.0,-6.08,-6.08,-6.0321,-5.9676,-5.8819,-5.831,-5.7436,-5.6153,-5.5316,-5.4339,-5.3185,-5.3185,-5.2784,-5.2013,-5.2803,-5.1867,-4.9702,-5.038,-4.9754,-4.8248,-4.7842,-4.7476,-4.7016,-4.5645,-4.4729,-4.3992,-4.2244,-4.1418,-4.1179,-4.1153,-4.0679,-4.0096,-4.0096,-4.0096,-4.0096,-4.0096,-4.0096,-4.0096,-4.0096,-4.0096,-4.0096,-4.0096,-3.9773,-3.9156,-3.7972,-3.7389,-3.6509,-3.4403,-3.4167,-3.3911,-3.237,-3.2268,-3.2243,-3.1645,-3.2049,-3.2452,-3.2557,-3.2497,-3.2677,-3.326,-3.2796,-3.2123,-3.1466,-3.1406,-3.1217,-3.0734,-3.0705,-2.9767,-2.7614,-2.7248,-2.6342,-2.4642,-2.43,-2.4141,-2.4112,-2.3776,-2.3599,-2.3569,-2.3258,-2.3108,-2.3108,-2.3108,-2.3396,-4.3474,-4.4671,-4.5652,-4.5883,-4.7182,-4.849,-4.8702,-4.9933,-5.1058,-5.1289,-5.0391,-4.9575,0.0,0.0,0.0,-5.3128,-5.5767,0.0,-5.965,-5.9861,0.0,-5.9819,0.0,-6.0089,-5.9858,-6.0223,0.0,0.0,-6.08,-6.08,-6.08,-5.9933,-5.9244,-5.88,-5.7908,-5.6755,-5.5318,-5.4201,-5.3495,-5.3185,-5.3185,-5.2784,-5.1995,-5.2197,-5.1646,-5.0435,-4.9389,-4.8574,-4.7881,-4.6279,-4.5476,-4.5125,-4.4278,-4.3502,-4.2788,-4.19,-4.1204,-4.0652,-4.0434,-4.0265,-4.0096,-4.0096,-4.0096,-4.0096,-4.0096,-4.0096,-4.0096,-4.0096,-4.0096,-4.0096,-4.0096,-4.002,-3.9563,-3.8051,-3.7255,-3.641,-3.4961,-3.4278,-3.371,-3.29,-3.2221,-3.1854,-3.2183,-3.1974,-3.2093,-3.3095,-3.2378,-3.163,-3.1315,-3.112,-3.0776,-3.0148,-3.0073,-2.9892,-2.9415,-2.9372,-2.8771,-2.7292,-2.7129,-2.6633,-2.5594,-2.5052,-2.4636,-2.4395,-2.3863,-2.348,-2.3228,-2.3138,-2.3108,-2.3108,-2.3108,-2.3183,-4.4124,-4.4968,-4.5594,-4.5594,-4.6586,-4.7471,-4.7123,-4.8075,-4.9037,-4.9082,-4.8081,-4.7318,-4.7704,-4.9145,-5.045,0.0,0.0,0.0,-5.841,-5.9238,-5.9784,0.0,-6.0492,0.0,-6.0127,-6.0512,-6.08,0.0,-6.08,-6.0627,-6.0242,-5.9569,-5.8741,-5.773,-5.7024,-5.5977,-5.4501,-5.3638,-5.3185,-5.3185,-5.3185,-5.2601,-5.1481,-5.183,-5.1151,-4.9664,0.0,-4.7949,-4.7232,-4.5578,-4.4739,-4.4409,-4.3553,-4.2799,-4.215,-4.1508,-4.0869,-4.0296,-4.0146,-4.0096,-4.0096,-4.0096,-4.0096,-4.0096,-4.0096,-4.0096,-4.0096,-4.0096,-4.0096,-4.0096,-4.0096,-4.0096,-3.9691,-3.8078,-3.7416,-3.6668,-3.4999,-3.4335,-3.3825,-3.2955,-3.209,-3.163,-3.1989,-3.175,-3.175,-3.2497,-3.1974,-3.1152,-3.0223,-3.0342,-3.0268,-2.9666,-2.9606,-2.9319,-2.8652,-2.8581,-2.8011,-2.667,-2.6329,-2.5848,-2.5157,-2.4499,-2.409,-2.3877,-2.3542,-2.3288,-2.3108,-2.3108,-2.3108,-2.3108,-2.3108,-2.3246,-4.4893,-4.5341,-4.5594,-4.5594,-4.6259,-4.6691,-4.5888,-4.632,-4.6896,-4.6849,-4.6291,-4.6032,-4.6785,-4.8311,-4.9307,-4.8866,0.0,-5.4998,-5.6123,-5.7538,-5.9048,-6.0619,-6.08,-6.0742,-6.0646,-6.0627,-6.0569,-6.0473,-6.0473,-6.0185,-5.9531,-5.9114,-5.806,-5.6207,-5.5879,-5.5119,-5.3813,-5.3437,-5.3227,-5.3185,-5.3096,-5.2252,-5.082,-5.1408,-5.0435,-4.8306,0.0,0.0,-4.643,-4.5127,-4.4435,-4.4072,-4.3022,-4.2347,-4.1799,-4.1153,-4.0583,-4.0163,-4.0096,-4.0096,-4.0096,-4.0096,-4.0096,-4.0096,-4.0096,-4.0096,-4.0096,-4.0096,-4.0096,-4.0096,-4.0096,-4.0096,-3.9724,-3.821,-3.7685,-3.7004,-3.4959,-3.4356,-3.3842,-3.269,-3.1928,-3.1511,-3.1511,-3.1511,-3.1511,-3.1511,-3.1421,-3.0928,-2.9744,-3.0058,-3.0076,-2.9331,-2.9256,-2.8862,-2.7954,-2.784,-2.7185,-2.5734,-2.5144,-2.4562,-2.3998,-2.3395,-2.3108,-2.3108,-2.3108,-2.3108,-2.3108,-2.3108,-2.3108,-2.3108,-2.3108,-2.3371,-4.5065,-4.5341,-4.5594,-4.5594,-4.6259,-4.6691,-4.5888,-4.632,-4.6731,-4.6129,-4.5899,-4.5851,-4.6005,-4.7448,-4.9235,-5.112,-5.3176,-5.5535,-5.8457,-5.91,-5.9677,0.0,-6.08,-6.0512,-5.98,-5.9723,0.0,0.0,0.0,-5.8954,-5.9473,-5.8162,-5.6738,-5.535,-5.4724,-5.424,-5.3794,-5.3579,-5.3357,-5.3185,-5.2527,-5.1701,-5.0784,-5.0271,-4.9389,-4.8233,0.0,0.0,-4.5577,-4.3756,-4.2803,-4.2452,-4.1983,-4.1618,-4.1291,-4.1017,-4.0704,-4.0412,-4.0188,-4.0096,-4.0096,-4.0096,-4.0096,-4.0096,-4.0096,-4.0096,-4.0096,-4.0096,-4.0096,-4.0096,-4.0096,-4.0096,-3.9859,-3.8842,-3.7718,-3.6668,-3.5862,-3.4407,-3.3009,-3.2228,-3.1758,-3.1511,-3.1511,-3.1511,-3.1511,-3.1511,-3.1017,-3.0417,-2.9696,-2.9696,-2.9158,-2.7542,-2.7383,-2.7041,-2.6202,-2.5869,-2.5349,-2.4464,-2.4053,-2.3658,-2.3288,-2.3155,-2.3108,-2.3108,-2.3108,-2.3108,-2.3108,-2.3108,-2.3108,-2.3108,-2.3108,-2.3158,-4.4967,-4.5279,-4.5577,-4.5476,-4.584,-4.5892,-4.468,-4.5024,-4.5395,-4.4648,-4.4858,-4.5297,-4.5729,-4.7209,-4.8736,-4.9931,-5.2232,-5.4746,-5.7228,-5.833,-5.9358,-6.0646,-6.0396,-5.9954,0.0,-5.9127,0.0,0.0,0.0,0.0,-5.8184,-5.682,-5.5682,-5.4962,-5.4281,-5.3851,-5.3658,-5.3014,-5.2667,-5.2564,-5.1756,-5.0949,-5.016,-4.9776,-4.8893,-4.7608,-4.6416,0.0,-4.4704,-4.3371,-4.2514,-4.2082,-4.1913,-4.1591,-4.1186,-4.0965,-4.0728,-4.0461,-4.0196,-4.0096,-4.0045,-3.9656,-3.9537,-3.9537,-3.9537,-3.9537,-3.9537,-3.9537,-3.9808,-4.0096,-4.0096,-3.9918,-3.9566,-3.8969,-3.7242,-3.5566,-3.4849,-3.3527,-3.2332,-3.1829,-3.1626,-3.1511,-3.1511,-3.1511,-3.1376,-3.1017,-3.0717,-3.0163,-2.919,-2.9071,-2.8603,-2.7395,-2.7045,-2.6587,-2.581,-2.5398,-2.4908,-2.4147,-2.3793,-2.3539,-2.3378,-2.3198,-2.3108,-2.3108,-2.3108,-2.3108,-2.3108,-2.3108,-2.3108,-2.3108,-2.3108,-2.3108,-4.5041,-4.5398,-4.5717,-4.5609,-4.5554,-4.5135,-4.3567,-4.3975,-4.4423,-4.3478,-4.4136,-4.5045,-4.5691,-4.6873,-4.7886,-4.8245,-5.0514,-5.3003,-5.5199,-5.6823,-5.8388,0.0,-5.9819,0.0,-5.8992,-5.8396,0.0,0.0,0.0,0.0,-5.6714,-5.5696,-5.5004,-5.4806,-5.4177,-5.3737,-5.3499,-5.2545,-5.2038,-5.1977,-5.1004,-5.0196,-4.9592,-4.9243,-4.8343,-4.7058,-4.6067,0.0,0.0,-4.3359,-4.2691,-4.2207,-4.2124,-4.1723,-4.1186,-4.1018,-4.0776,-4.0485,-4.0246,-4.0163,-4.0011,-3.9436,-3.9123,-3.8988,-3.8988,-3.8988,-3.9022,-3.9174,-3.9656,-4.0062,-3.991,-3.9724,-3.9351,-3.8547,-3.6434,-3.4361,-3.3468,-3.2532,-3.1811,-3.1568,-3.1511,-3.1511,-3.1511,-3.1511,-3.1271,-3.0612,-3.0387,-2.9894,-2.8742,-2.8472,-2.8147,-2.7518,-2.7045,-2.6467,-2.57,-2.5217,-2.4709,-2.4147,-2.3734,-2.3509,-2.3509,-2.3228,-2.3108,-2.3108,-2.3108,-2.3108,-2.3108,-2.3108,-2.3108,-2.3108,-2.3108,-2.3108,-4.5671,-4.6056,-4.6275,-4.6437,-4.5896,-4.495,-4.3524,-4.4427,-4.5144,-4.362,-4.4562,-4.571,-4.5787,-4.5935,-4.654,-4.8052,-4.8565,-5.0126,-5.4072,-5.542,-5.6661,-5.8319,0.0,0.0,-5.7387,0.0,0.0,0.0,0.0,0.0,0.0,-5.5371,-5.5004,-5.4806,-5.4334,-5.3889,-5.3499,-5.2667,-5.218,-5.1977,-5.0455,-4.9665,-4.9555,-4.8031,-4.7241,-4.7003,0.0,0.0,0.0,-4.3451,-4.2825,-4.2512,-4.2207,-4.1723,-4.1209,-4.1186,-4.0884,-4.051,-4.0485,-4.0296,-4.0096,-4.0028,-3.9554,-3.8988,-3.8988,-3.8988,-3.914,-3.9808,-4.0045,-3.996,-3.9259,-3.9555,-3.9488,-3.7385,-3.5227,-3.3409,-3.2672,-3.2012,-3.1539,-3.1511,-3.1511,-3.1511,-3.1511,-3.1511,-3.1271,-3.0612,-3.0028,-2.94,-2.8697,-2.8079,-2.7493,-2.7019,-2.6602,-2.6014,-2.516,-2.4523,-2.4176,-2.4102,-2.3514,-2.3138,-2.3138,-2.3108,-2.3108,-2.3108,-2.3108,-2.3108,-2.3108,-2.3108,-2.3108,-2.3108,-2.3108,-2.3108,-4.5625,-4.6404,-4.7027,-4.7029,-4.6148,-4.5036,-4.3985,-4.438,-4.4672,-4.3523,-4.462,-4.5807,-4.5807,-4.5807,-4.6013,-4.6687,0.0,0.0,-5.1178,-5.227,-5.3803,-5.6487,-5.6612,0.0,0.0,0.0,0.0,0.0,0.0,0.0,0.0,-5.3741,-5.3675,-5.3833,-5.3431,-5.2809,-5.2003,-5.1609,-5.1103,-5.0547,-4.937,-4.882,-4.8783,-4.7626,-4.6837,-4.6324,0.0,0.0,0.0,-4.3269,-4.2844,-4.257,-4.2228,-4.1827,-4.1431,-4.1255,-4.1018,-4.0728,-4.0558,-4.032,-4.0028,-3.9588,-3.9225,-3.8988,-3.8988,-3.8988,-3.8954,-3.8819,-3.9436,-3.9775,-3.8346,-3.7801,-3.7226,-3.5626,-3.4372,-3.3303,-3.2552,-3.1938,-3.1511,-3.1511,-3.1511,-3.1376,-3.0957,-3.0883,-3.0567,-2.952,-2.9146,-2.8742,-2.8094,-2.752,-2.7019,-2.6587,-2.639,-2.5906,-2.4893,-2.4379,-2.3914,-2.3514,-2.3258,-2.3108,-2.3108,-2.3108,-2.3108,-2.3108,-2.3108,-2.3108,-2.3108,-2.3108,-2.3108,-2.3108,-2.3108,-2.3108,-4.5115,-4.6113,-4.6967,-4.6927,-4.5886,-4.4727,-4.423,-4.4328,-4.4344,-4.3794,-4.4813,-4.5807,-4.5807,-4.5807,-4.5807,0.0,0.0,-4.7295,-4.8979,-4.9931,-5.1401,-5.4015,0.0,0.0,0.0,0.0,0.0,0.0,0.0,0.0,0.0,-5.2215,-5.2153,-5.2824,-5.2431,-5.1825,-5.1005,-5.0626,-5.0031,-4.9225,-4.8361,-4.7829,-4.7572,-4.6746,-4.6067,-4.5498,0.0,0.0,0.0,-4.3142,-4.2844,-4.257,-4.2228,-4.1892,-4.156,-4.13,-4.1065,-4.0847,-4.0583,-4.032,-4.0011,-3.9503,-3.9174,-3.8988,-3.8988,-3.8853,-3.8565,-3.8058,-3.8408,-3.8689,-3.7586,-3.6341,-3.523,-3.4649,-3.3818,-3.3041,-3.2505,-3.1938,-3.1511,-3.1511,-3.1511,-3.1286,-3.0627,-3.0507,-3.0073,-2.8786,-2.8607,-2.8353,-2.769,-2.7316,-2.689,-2.6363,-2.6215,-2.5755,-2.4738,-2.4205,-2.375,-2.3288,-2.3138,-2.3032,-2.2869,-2.302,-2.3032,-2.2869,-2.302,-2.3108,-2.3108,-2.3108,-2.3108,-2.3108,-2.3108,-2.3108,-4.4177,-4.5054,-4.5773,-4.5953,-4.4912,-4.3874,-4.4144,-4.4358,-4.4515,-4.4561,-4.5239,-4.5807,-4.5807,-4.5807,-4.5807,-4.5807,-4.5807,0.0,-4.8071,-4.9048,-4.992,0.0,0.0,0.0,0.0,0.0,0.0,0.0,0.0,0.0,0.0,-5.1021,-5.0716,-5.1961,-5.1572,-5.1195,-5.1006,-5.0076,-4.9169,-4.8306,-4.7498,-4.6691,-4.5902,-4.5094,-4.4709,0.0,0.0,0.0,0.0,-4.3142,-4.2844,-4.257,-4.2228,-4.1892,-4.156,-4.13,-4.1065,-4.0847,-4.0583,-4.032,-4.0096,-4.0096,-3.9605,-3.8988,-3.8988,-3.8481,-3.7922,-3.7905,-3.7086,-3.6402,-3.7111,-3.5619,-3.4092,-3.482,-3.3671,-3.2398,-3.2398,-3.1938,-3.1511,-3.1511,-3.1511,-3.1286,-3.0627,-3.0507,-3.0073,-2.8786,-2.8607,-2.8353,-2.769,-2.76,-2.7265,-2.639,-2.6013,-2.5453,-2.4567,-2.3956,-2.3599,-2.3599,-2.3288,-2.2857,-2.2347,-2.2819,-2.2844,-2.2334,-2.2832,-2.3108,-2.3108,-2.3108,-2.3108,-2.3108,-2.3108,-2.3108,-4.3922,-4.4967,-4.579,-4.6463,-4.5536,-4.4542,-4.4766,-4.4546,-4.4333,-4.4498,-4.5199,-4.5807,-4.5807,-4.5807,-4.5807,-4.5807,-4.5807,0.0,0.0,0.0,0.0,-5.0638,-5.2531,0.0,0.0,0.0,0.0,0.0,0.0,0.0,0.0,-4.8985,-4.9229,-5.1055,-5.0157,-4.9635,-4.9564,-4.8458,-4.7736,-4.7461,-4.6673,-4.6159,-4.5865,-4.5076,0.0,0.0,0.0,0.0,0.0,-4.2957,-4.267,-4.2532,-4.1977,-4.1675,-4.1582,-4.1498,-4.1226,-4.0802,-4.0156,-3.9675,-3.9283,-3.8751,-3.8447,-3.8159,-3.7635,-3.7686,-3.7905,-3.7905,-3.6716,-3.5628,-3.6345,-3.5226,-3.3896,-3.3908,-3.3121,-3.2342,-3.2178,-3.1783,-3.1511,-3.1511,-3.1122,-3.0627,-2.9983,-2.9505,-2.8906,-2.8064,-2.7929,-2.7839,-2.763,-2.7086,-2.6616,-2.6336,-2.5301,-2.4525,-2.4263,-2.3852,-2.3509,-2.3258,-2.3168,-2.302,-2.2844,-2.3007,-2.302,-2.2844,-2.3007,-2.3108,-2.3108,-2.3108,-2.3108,-2.3108,-2.3108,-2.3108,-4.3386,-4.4441,-4.5282,-4.5825,-4.5132,-4.4429,-4.487,-4.4583,-4.4335,-4.4781,-4.5375,-4.5807,-4.5807,-4.5807,-4.5807,-4.5807,-4.5807,-4.5916,0.0,0.0,0.0,-5.0156,0.0,0.0,0.0,0.0,0.0,0.0,0.0,0.0,0.0,0.0,-4.813,-4.9261,-4.8443,-4.7999,-4.7999,-4.7095,-4.6489,-4.6195,-4.57,-4.5296,-4.4966,-4.4488,0.0,0.0,0.0,0.0,0.0,-4.2975,-4.2689,-4.2514,-4.1661,-4.1257,-4.1148,-4.0723,-4.0351,-3.9957,-3.9348,-3.8907,-3.8514,-3.8058,-3.7719,-3.733,-3.6569,-3.6671,-3.7019,-3.7019,-3.6112,-3.5205,-3.5678,-3.4849,-3.3822,-3.3465,-3.2681,-3.1946,-3.1701,-3.1168,-3.0763,-3.0763,-3.0447,-2.9953,-2.9325,-2.8876,-2.8368,-2.7705,-2.76,-2.76,-2.76,-2.6967,-2.6428,-2.6135,-2.5035,-2.4205,-2.3927,-2.3616,-2.3318,-2.3108,-2.3108,-2.3007,-2.2807,-2.2995,-2.3007,-2.2794,-2.2995,-2.3108,-2.3108,-2.3108,-2.3108,-2.3108,-2.3108,-2.3108,0.0,-4.3631,-4.4322,-4.4364,-4.3976,-4.3788,-4.4636,-4.4529,0.0,-4.5336,-4.5677,-4.58,-4.5807,-4.5807,-4.5807,-4.5807,-4.5807,-4.6095,0.0,-4.7948,0.0,0.0,0.0,0.0,0.0,0.0,0.0,0.0,0.0,0.0,0.0,0.0,-4.7226,-4.6838,-4.6504,-4.6382,-4.6494,-4.5988,-4.5388,-4.4691,-4.4636,-4.4213,-4.3515,-4.3515,0.0,0.0,0.0,0.0,0.0,-4.3142,-4.2808,-4.2408,-4.1321,-4.071,-4.0284,-3.9294,-3.8794,-3.8555,-3.8237,-3.7999,-3.7821,-3.7753,-3.7263,-3.6575,-3.5774,-3.5515,-3.5532,-3.5583,-3.5339,-3.5068,-3.5071,-3.4488,-3.3767,-3.3401,-3.229,-3.124,-3.0946,-3.0232,-2.9606,-2.9606,-2.9577,-2.9337,-2.8712,-2.8562,-2.8308,-2.769,-2.76,-2.76,-2.7534,-2.7148,-2.6573,-2.5876,-2.5078,-2.4326,-2.3704,-2.3318,-2.3108,-2.3108,-2.3108,-2.2882,-2.2397,-2.2832,-2.2869,-2.2385,-2.2844,-2.3108,-2.3108,-2.3108,-2.3108,-2.3108,-2.3108,-2.3108,-4.3701,0.0,-4.3488,-4.4161,-4.429,-4.4401,0.0,-4.496,-4.5034,-4.5549,-4.5731,-4.5791,-4.58,-4.5807,-4.5807,-4.5807,-4.5807,-4.6095,-4.6978,0.0,0.0,-5.2242,0.0,0.0,0.0,0.0,0.0,0.0,0.0,0.0,0.0,0.0,-4.533,-4.5097,-4.477,-4.5194,-4.6494,-4.4882,-4.4287,-4.4691,-4.4085,-4.3681,-4.3515,-4.3515,0.0,0.0,0.0,0.0,-4.3462,-4.3142,-4.2464,-4.1619,-4.1107,-4.0374,-3.9547,-3.9312,-3.8947,-3.8508,-3.7895,-3.7393,-3.6965,-3.6326,-3.6005,-3.5757,-3.4996,-3.4759,-3.4878,-3.543,-3.5132,-3.4718,-3.5008,-3.431,-3.3324,-3.251,-3.1467,-3.0523,-3.0021,-2.9766,-2.9606,-2.9606,-2.9175,-2.8786,-2.8622,-2.8158,-2.7779,-2.7615,-2.76,-2.7458,-2.7122,-2.6707,-2.6256,-2.5783,-2.4473,-2.373,-2.3946,-2.3424,-2.3108,-2.3108,-2.3108,-2.3045,-2.292,-2.3032,-2.3045,-2.2907,-2.3045,-2.3108,-2.3108,-2.3108,-2.3108,-2.3108,-2.3108,-2.3108,-4.4005,-4.3781,-4.3677,-4.4173,-4.4387,-4.451,-4.4757,-4.4965,-4.5171,-4.5419,-4.566,-4.5795,-4.58,-4.6136,-4.6406,-4.6406,-4.6714,0.0,0.0,0.0,-5.1144,0.0,0.0,0.0,0.0,0.0,0.0,0.0,0.0,0.0,0.0,0.0,-4.4712,-4.4515,-4.4173,-4.4432,-4.5342,-4.4108,-4.3718,-4.414,-4.3699,-4.3515,-4.3515,-4.3515,0.0,0.0,0.0,0.0,-4.293,-4.2613,-4.185,-4.0774,-4.0109,-3.9401,-3.8725,-3.8374,-3.7965,-3.7491,-3.7077,-3.6434,-3.5605,-3.4844,-3.4585,-3.4568,-3.4523,-3.4037,-3.3626,-3.4387,-3.4194,-3.3822,-3.404,-3.339,-3.2498,-3.1872,-3.0816,-2.9817,-2.9407,-2.8997,-2.8678,-2.8678,-2.8393,-2.8128,-2.8128,-2.7839,-2.76,-2.76,-2.7433,-2.7174,-2.6927,-2.639,-2.5865,-2.5508,-2.4398,-2.3613,-2.3508,-2.3014,-2.2832,-2.3083,-2.3108,-2.3108,-2.3108,-2.2857,-2.2732,-2.2732,-2.297,-2.3108,-2.3108,-2.3108,-2.3108,-2.3108,-2.3108,-2.2987,-4.4005,-4.4178,-4.4382,-4.4293,-4.4344,-4.4411,-4.4496,-4.4795,-4.5094,-4.5201,-4.5493,-4.5731,-4.5757,-4.6378,0.0,0.0,0.0,0.0,-4.9772,-4.9995,0.0,0.0,0.0,0.0,0.0,0.0,0.0,0.0,0.0,0.0,0.0,0.0,0.0,-4.4487,-4.4158,-4.3989,-4.3958,-4.3649,-4.3515,-4.3515,-4.3515,-4.3515,-4.3515,-4.3515,0.0,0.0,0.0,0.0,-4.2104,-4.1829,-4.1053,-3.9911,-3.8968,-3.8321,-3.7848,-3.7075,-3.6536,-3.6128,-3.6044,-3.5292,-3.4252,-3.3728,-3.3491,-3.3508,-3.3998,-3.3376,-3.2581,-3.3085,-3.2988,-3.2745,-3.2796,-3.2236,-3.1581,-3.13,-3.0217,-2.9183,-2.8976,-2.8232,-2.76,-2.76,-2.76,-2.76,-2.76,-2.76,-2.76,-2.76,-2.7265,-2.6953,-2.6823,-2.6203,-2.5591,-2.5024,-2.4296,-2.353,-2.275,-2.2293,-2.2297,-2.2819,-2.2932,-2.2982,-2.2982,-2.2606,-2.2397,-2.2309,-2.2832,-2.3108,-2.3108,-2.3108,-2.3058,-2.2982,-2.3058,-2.2847,-4.3989,-4.4606,-4.5056,-4.4382,-4.43,-4.444,-4.4632,-4.4757,-4.4948,-4.5292,-4.5429,-4.5475,-4.5549,-4.58,-4.619,0.0,0.0,-5.0698,0.0,0.0,0.0,0.0,0.0,0.0,0.0,0.0,0.0,0.0,0.0,0.0,0.0,0.0,0.0,-4.4329,-4.4131,-4.3945,-4.3818,-4.3617,-4.3515,-4.3515,-4.3515,-4.3515,-4.3515,-4.3515,-4.313,0.0,0.0,-4.2029,-4.1262,-4.099,-4.022,-3.9139,-3.8754,-3.8022,-3.7077,-3.6285,-3.5715,-3.5311,-3.4917,-3.4249,-3.366,-3.4167,-3.3914,-3.3305,-3.2801,-3.2936,-3.3119,-3.2615,-3.2236,-3.2031,-3.2313,-3.1694,-3.0893,-3.061,-2.9543,-2.8556,-2.8654,-2.8105,-2.76,-2.76,-2.76,-2.76,-2.76,-2.76,-2.76,-2.76,-2.7534,-2.7214,-2.6496,-2.6283,-2.5627,-2.4094,-2.3173,-2.2514,-2.2161,-2.1411,-2.1182,-2.1707,-2.2184,-2.2406,-2.2406,-2.2782,-2.2757,-2.2322,-2.2832,-2.3108,-2.3108,-2.3108,-2.2869,-2.2418,-2.2895,-2.2827,-4.3122,-4.3558,-4.3905,-4.3963,-4.4867,-4.5775,-4.5919,-4.5679,-4.5502,-4.5734,-4.5587,-4.5554,0.0,0.0,-4.8343,-5.0037,0.0,0.0,0.0,0.0,0.0,0.0,0.0,0.0,0.0,0.0,0.0,0.0,0.0,0.0,0.0,0.0,0.0,0.0,-4.3593,-4.3146,-4.3102,-4.2498,-4.2635,-4.3496,-4.3057,-4.2837,-4.2837,-4.2396,-4.2011,-4.1662,0.0,-4.1203,-4.0435,-4.0169,-3.9387,-3.8313,-3.8076,-3.7561,-3.6882,-3.5957,-3.5181,-3.445,-3.3731,-3.3188,-3.2797,-3.273,-3.2493,-3.2222,-3.2276,-3.2547,-3.2709,-3.2189,-3.2041,-3.2116,-3.2266,-3.1657,-3.0942,-3.0688,-2.9753,-2.8912,-2.8828,-2.8181,-2.76,-2.76,-2.76,-2.76,-2.76,-2.76,-2.76,-2.76,-2.7188,-2.6733,-2.6336,-2.5892,-2.5108,-2.3848,-2.321,-2.2514,-2.1608,-2.1018,-2.1056,-2.1882,-2.1895,-2.1995,-2.2297,-2.2531,-2.2543,-2.2293,-2.2832,-2.3108,-2.3108,-2.3108,-2.297,-2.2732,-2.2995,-2.282,-4.2123,-4.2599,-4.304,-4.367,-4.5037,-4.6401,-4.7038,-4.652,-4.6054,-4.6568,-4.6237,0.0,0.0,-4.7981,0.0,-5.2049,0.0,0.0,0.0,0.0,0.0,0.0,0.0,0.0,0.0,0.0,0.0,0.0,0.0,0.0,0.0,0.0,0.0,0.0,-4.3018,-4.2385,-4.2168,-4.147,-4.1735,-4.2928,-4.2304,-4.2029,-4.2011,-4.137,-4.1003,-4.0836,-4.0836,-4.0359,-3.9591,-3.9332,-3.8664,-3.7774,-3.7486,-3.7117,-3.6599,-3.5614,-3.472,-3.3864,-3.2926,-3.2471,-3.2209,-3.165,-3.1326,-3.1309,-3.187,-3.2158,-3.2232,-3.2005,-3.2116,-3.2213,-3.1779,-3.1188,-3.0667,-3.0485,-2.9778,-2.9122,-2.8935,-2.8232,-2.76,-2.76,-2.76,-2.76,-2.76,-2.76,-2.76,-2.76,-2.693,-2.6416,-2.631,-2.5646,-2.4734,-2.3606,-2.325,-2.246,-2.0937,-2.061,-2.0905,-2.187,-2.1656,-2.1619,-2.192,-2.2171,-2.2184,-2.1933,-2.2694,-2.3045,-2.2907,-2.3045,-2.3045,-2.292,-2.3045,-2.2761,-4.1343,-4.2609,-4.382,-4.3876,-4.4051,-4.4832,-4.7201,-4.6651,-4.6129,-4.7956,-4.7702,0.0,0.0,-4.7261,-4.8395,-4.9581,0.0,0.0,0.0,0.0,0.0,0.0,0.0,0.0,0.0,0.0,0.0,0.0,0.0,0.0,0.0,0.0,0.0,0.0,0.0,-4.2097,-4.122,-4.113,-4.115,-4.126,-4.1205,-4.1187,-4.1168,-4.1132,-4.0689,-3.9992,-3.9992,-3.9533,-3.8784,-3.8512,-3.8158,-3.7756,-3.7487,-3.6782,-3.5773,-3.483,-3.427,-3.3864,-3.2926,-3.2471,-3.2293,-3.2242,-3.1769,-3.1207,-3.1258,-3.1769,-3.2293,-3.2273,-3.229,-3.19,-3.0228,-2.9523,-2.9273,-2.9373,-2.8935,-2.8495,-2.8602,-2.8079,-2.76,-2.76,-2.76,-2.76,-2.76,-2.76,-2.76,-2.76,-2.7188,-2.6718,-2.6336,-2.5934,-2.4929,-2.3058,-2.263,-2.1769,-2.0027,-1.9887,-2.0125,-2.0767,-2.1257,-2.1307,-2.083,-2.1769,-2.1832,-2.083,-2.2334,-2.2857,-2.2372,-2.2857,-2.2844,-2.2355,-2.2869,-2.2593,-4.021,-4.1296,-4.2286,-4.2783,-4.333,-4.4591,-4.7757,-4.7802,-4.7338,-4.7984,-4.8474,0.0,0.0,0.0,-4.9952,0.0,0.0,0.0,0.0,0.0,0.0,0.0,0.0,0.0,0.0,0.0,0.0,0.0,0.0,0.0,0.0,0.0,0.0,0.0,0.0,-4.0714,-4.0359,-3.9863,-3.9368,-3.8872,-3.9368,-3.9625,-3.9588,-3.9093,-3.8704,-3.8447,-3.8927,-3.8982,-3.8692,-3.858,-3.837,-3.8016,-3.7077,-3.5756,-3.4318,-3.3818,-3.3231,-3.2555,-3.207,-3.1791,-3.1633,-3.1633,-3.143,-3.119,-3.119,-3.1718,-3.2168,-3.1493,-3.1497,-3.163,-3.1336,-3.0719,-3.0139,-3.0011,-2.9347,-2.887,-2.9162,-2.8378,-2.772,-2.8128,-2.7899,-2.76,-2.76,-2.76,-2.76,-2.76,-2.6982,-2.6469,-2.631,-2.538,-2.4313,-2.3239,-2.204,-2.0919,-1.9899,-1.9798,-1.9899,-2.0138,-2.0326,-2.0665,-2.1182,-2.1282,-2.1282,-2.1207,-2.1794,-2.2184,-2.2309,-2.2184,-2.2185,-2.2346,-2.2223,-2.197,-3.9288,-4.0387,-4.1404,-4.2004,-4.3075,-4.4736,-4.7679,-4.8157,-4.8218,-4.8919,-4.9258,-4.9516,-4.9797,0.0,0.0,0.0,0.0,0.0,0.0,0.0,0.0,0.0,0.0,0.0,0.0,0.0,0.0,0.0,0.0,0.0,0.0,0.0,0.0,0.0,0.0,0.0,-3.9515,-3.8726,-3.8028,-3.7492,-3.7514,-3.7679,-3.7918,-3.7367,-3.7125,-3.7162,-3.7698,-3.8083,-3.8322,-3.8322,-3.8118,-3.767,-3.631,-3.5012,-3.3845,-3.3626,-3.3091,-3.2417,-3.2002,-3.1723,-3.1495,-3.1275,-3.119,-3.119,-3.119,-3.1565,-3.1793,-3.1066,-3.0895,-3.1046,-3.1516,-3.0941,-3.0176,-2.9852,-2.9271,-2.8845,-2.8952,-2.8244,-2.7735,-2.8188,-2.7914,-2.76,-2.76,-2.76,-2.7525,-2.7315,-2.6546,-2.5952,-2.5726,-2.4513,-2.3405,-2.2686,-2.1372,-2.0343,-1.9836,-1.9798,-1.9798,-1.9798,-1.9798,-2.015,-2.0928,-2.0792,-2.0779,-2.0953,-2.1333,-2.1594,-2.1794,-2.1757,-2.196,-2.2365,-2.2018,-2.177,-3.8665,-4.0148,-4.1615,-4.176,-4.3303,-4.5201,-4.6728,-4.7456,-4.8518,-5.1065,-5.0093,-4.8808,-4.8874,-4.8456,0.0,0.0,0.0,0.0,0.0,0.0,0.0,0.0,0.0,0.0,0.0,0.0,0.0,0.0,0.0,0.0,0.0,0.0,0.0,0.0,0.0,0.0,-3.8707,-3.7896,-3.7474,-3.7456,-3.5775,-3.5445,-3.6285,-3.6285,-3.6285,-3.6285,-3.6303,-3.6758,-3.7492,-3.7511,-3.7166,-3.6552,-3.5225,-3.4689,-3.4652,-3.4376,-3.4166,-3.3847,-3.2909,-3.2454,-3.2175,-3.1427,-3.119,-3.119,-3.119,-3.119,-3.119,-3.119,-3.0712,-3.0189,-3.0189,-2.9665,-2.8998,-2.8517,-2.8411,-2.825,-2.7715,-2.76,-2.76,-2.76,-2.76,-2.76,-2.76,-2.7585,-2.736,-2.6692,-2.5915,-2.5151,-2.4472,-2.3434,-2.2366,-2.1223,-2.0566,-2.0105,-1.9824,-1.9798,-1.9798,-1.9798,-1.9798,-1.9798,-1.9798,-2.0377,-2.0415,-1.9811,-2.0903,-2.1232,-2.0691,-2.1757,-2.2297,-2.2293,-2.2365,-2.2106,-3.7931,-3.876,-3.9896,-4.0691,-4.2268,-4.4072,-4.5847,-4.698,-4.8237,0.0,-4.9047,-4.7756,-4.8483,0.0,0.0,0.0,0.0,0.0,0.0,0.0,0.0,0.0,0.0,0.0,0.0,0.0,0.0,0.0,0.0,0.0,0.0,0.0,0.0,0.0,0.0,0.0,-3.786,-3.707,-3.634,-3.5738,-3.5243,-3.5151,-3.5389,-3.5389,-3.5389,-3.5445,-3.6633,-3.729,-3.7477,-3.7308,-3.6678,-3.574,-3.4601,-3.3723,-3.3037,-3.2678,-3.2494,-3.2364,-3.1813,-3.1571,-3.1478,-3.1258,-3.119,-3.119,-3.119,-3.119,-3.119,-3.119,-3.0892,-3.0506,-3.0253,-2.9826,-2.9273,-2.8565,-2.8113,-2.7911,-2.824,-2.7944,-2.775,-2.8203,-2.7929,-2.76,-2.76,-2.721,-2.6836,-2.6641,-2.551,-2.4269,-2.3075,-2.2682,-2.2049,-2.0874,-2.0629,-2.0355,-1.9836,-1.9798,-1.9798,-1.9798,-1.9798,-1.9798,-1.9798,-1.9962,-1.9974,-1.9798,-2.0125,-2.0426,-2.0691,-2.0589,-2.0762,-2.1166,-2.0803,-2.0611,-3.8413,-3.9039,-3.9825,-4.088,-4.2609,-4.4381,-4.5627,0.0,0.0,0.0,-4.8524,-4.7498,-4.7843,0.0,0.0,0.0,0.0,0.0,0.0,0.0,0.0,0.0,0.0,0.0,0.0,0.0,0.0,0.0,0.0,0.0,0.0,0.0,0.0,0.0,0.0,0.0,-3.7015,-3.6193,-3.5518,-3.5004,-3.4674,-3.4509,-3.4509,-3.4509,-3.4509,-3.4619,-3.6303,-3.6831,-3.6509,-3.6485,-3.5901,-3.4896,-3.3749,-3.293,-3.2389,-3.2275,-3.2041,-3.1779,-3.1669,-3.1464,-3.119,-3.119,-3.119,-3.119,-3.119,-3.119,-3.119,-3.119,-3.0855,-3.0443,-3.0253,-2.9722,-2.909,-2.8541,-2.8137,-2.7971,-2.815,-2.7899,-2.772,-2.8113,-2.7884,-2.751,-2.7255,-2.6881,-2.6359,-2.5708,-2.4375,-2.3042,-2.1932,-2.173,-2.1368,-2.0512,-2.0372,-2.0214,-1.9823,-1.9798,-1.9798,-1.9798,-1.9798,-1.9798,-1.9798,-1.9798,-1.9798,-1.9798,-1.9798,-1.9974,-2.0352,-2.0226,-2.0333,-2.0693,-2.0209,-2.0135,-3.9437,-4.0131,-4.0605,-4.1721,-4.371,-4.5492,-4.592,-4.785,-4.9344,-4.8688,0.0,-4.7551,-4.6972,0.0,0.0,0.0,0.0,0.0,0.0,0.0,0.0,0.0,0.0,0.0,0.0,0.0,0.0,0.0,0.0,0.0,0.0,0.0,0.0,0.0,0.0,0.0,-3.6174,-3.5316,-3.4894,0.0,-3.4156,-3.3807,-3.3807,-3.3807,-3.3844,-3.399,-3.5514,-3.5789,-3.5127,-3.5315,-3.4963,-3.4163,-3.2892,-3.2406,-3.2424,-3.2708,-3.2369,-3.183,-3.2111,-3.1769,-3.119,-3.119,-3.119,-3.119,-3.119,-3.119,-3.1173,-3.1086,-3.0612,-3.0133,-3.0069,-2.9358,-2.8607,-2.8429,-2.8372,-2.8226,-2.77,-2.76,-2.76,-2.76,-2.754,-2.7315,-2.6716,-2.6458,-2.5821,-2.4157,-2.2833,-2.1746,-2.1082,-2.0772,-2.0485,-2.0233,-1.9965,-1.9798,-1.9798,-1.9798,-1.9798,-1.9798,-1.9849,-1.9861,-1.9798,-1.9798,-1.9798,-1.9798,-1.9798,-1.9798,-1.9798,-2.0352,-2.0595,-2.056,-2.0189,-2.0284,-3.8105,-3.8384,-3.8954,-4.066,-4.2787,-4.489,-4.6488,-4.6801,-4.658,-4.5979,-4.5732,-4.5679,0.0,0.0,0.0,0.0,0.0,0.0,0.0,0.0,0.0,0.0,0.0,0.0,0.0,0.0,0.0,0.0,0.0,0.0,0.0,0.0,0.0,0.0,0.0,-3.5436,-3.5279,-3.4472,-3.4064,0.0,-3.388,-3.3807,-3.3807,-3.3807,-3.4137,-3.4766,-3.5114,-3.5555,-3.5944,-3.4971,-3.4461,-3.4163,-3.2892,-3.2406,-3.2354,-3.2137,-3.1938,-3.1762,-3.1516,-3.1326,-3.119,-3.119,-3.119,-3.119,-3.119,-3.119,-3.1016,-3.0177,-2.9852,-2.9612,-2.9074,-2.8644,-2.8327,-2.8377,-2.8241,-2.8005,-2.7675,-2.76,-2.76,-2.76,-2.718,-2.6752,-2.6617,-2.5497,-2.4154,-2.2682,-2.2184,-2.1746,-2.1082,-2.0772,-2.0485,-2.0233,-1.9965,-1.9798,-1.9798,-1.9798,-1.9798,-1.9798,-2.0251,-2.0302,-1.9823,-1.9798,-1.9798,-1.9798,-1.9798,-1.9798,-1.9798,-1.9924,-1.984,-1.9526,-1.9419,-1.9474,-3.8508,-3.8672,-3.9059,-4.1407,0.0,-4.4296,-4.5458,-4.5498,-4.513,-4.4426,-4.459,0.0,0.0,0.0,0.0,0.0,0.0,0.0,0.0,0.0,0.0,0.0,0.0,0.0,0.0,0.0,0.0,0.0,0.0,0.0,0.0,0.0,0.0,0.0,-3.5053,-3.4531,-3.4417,-3.4009,-3.3807,-3.3807,-3.3807,-3.3807,-3.3807,-3.3807,-3.4027,-3.4417,-3.4417,-3.4454,-3.4481,-3.3946,-3.3494,-3.3106,-3.2609,-3.2406,-3.2336,-3.1946,-3.18,-3.1744,-3.1346,-3.119,-3.119,-3.119,-3.119,-3.119,-3.119,-3.119,-3.0962,-2.9897,-2.9467,-2.9206,-2.8576,-2.8186,-2.7917,-2.7764,-2.7859,-2.7839,-2.7245,-2.7121,-2.7031,-2.6692,-2.6363,-2.6019,-2.5704,-2.4355,-2.3074,-2.2352,-2.1841,-2.1399,-2.1033,-2.0648,-2.0346,-2.0207,-1.9965,-1.9798,-1.9798,-1.9798,-1.9798,-1.9798,-2.0087,-2.0138,-1.9811,-1.9798,-1.9798,-1.9798,-1.9798,-1.9798,-1.9798,-1.9798,-1.9597,-1.9251,-1.9015,-1.9062,-3.9051,-3.9434,-3.9835,-4.2605,-4.3406,0.0,-4.4082,-4.4309,-4.4216,-4.3626,0.0,0.0,0.0,0.0,0.0,0.0,0.0,0.0,0.0,0.0,0.0,0.0,0.0,0.0,0.0,0.0,0.0,0.0,0.0,0.0,0.0,0.0,-3.5199,-3.5082,-3.4255,-3.3733,-3.3587,-3.3733,-3.3733,-3.3587,-3.3587,-3.3587,-3.3587,-3.344,-3.3458,-3.3587,-3.344,-3.3018,-3.241,-3.2654,-3.2412,-3.1924,-3.2148,-3.2229,-3.2143,-3.1738,-3.1524,-3.1348,-3.0955,-3.0818,-3.0835,-3.097,-3.092,-3.0835,-3.097,-3.092,-3.0608,-2.9602,-2.9125,-2.8792,-2.8247,-2.7868,-2.755,-2.7244,-2.7479,-2.7518,-2.6621,-2.6422,-2.6258,-2.5719,-2.5501,-2.5202,-2.4477,-2.3306,-2.2489,-2.242,-2.1636,-2.1033,-2.0934,-2.0523,-2.022,-2.0144,-1.9939,-1.9798,-1.9798,-1.9798,-1.9798,-1.9798,-1.9899,-1.9911,-1.9798,-1.9899,-1.9911,-1.9798,-1.9798,-1.9798,-1.9798,-1.9798,-1.9617,-1.9278,-1.8908,-1.8948,-3.7612,0.0,-4.0499,0.0,-4.2807,-4.2652,0.0,0.0,-4.3269,0.0,0.0,0.0,0.0,0.0,0.0,0.0,0.0,0.0,0.0,0.0,0.0,0.0,0.0,0.0,0.0,0.0,0.0,0.0,0.0,0.0,0.0,-3.4383,-3.419,-3.4164,-3.3942,-3.3476,-3.2766,-3.3458,-3.3458,-3.2748,-3.2748,-3.2748,-3.2729,-3.2045,-3.21,-3.2711,-3.2027,-3.1672,-3.1555,-3.1405,-3.1584,-3.1885,-3.1687,-3.1516,-3.1319,-3.0959,-3.0403,-2.9765,-2.9408,-2.9297,-2.9399,-3.004,-2.9803,-2.9416,-3.0057,-2.9803,-2.9134,-2.8411,-2.8181,-2.8087,-2.7838,-2.7565,-2.7441,-2.7765,-2.7303,-2.6591,-2.5884,-2.5734,-2.5719,-2.563,-2.5128,-2.4425,-2.3466,-2.2857,-2.2397,-2.21,-2.1664,-2.1166,-2.0709,-2.0585,-2.0359,-1.9901,-1.9824,-1.9798,-1.9798,-1.9798,-1.9798,-1.9798,-2.0302,-2.0352,-1.9823,-2.0314,-2.0339,-1.9811,-1.9798,-1.9798,-1.9798,-1.9798,-1.9615,-1.9216,-1.9219,-1.9229,-3.7701,-3.8915,-4.0226,0.0,-4.1926,-4.2051,-4.2647,0.0,-4.3032,0.0,0.0,0.0,0.0,0.0,0.0,0.0,0.0,0.0,0.0,0.0,0.0,0.0,0.0,0.0,0.0,0.0,0.0,0.0,0.0,0.0,-3.4397,-3.4281,-3.3981,-3.3451,-3.3371,0.0,-3.2722,-3.2624,-3.236,-3.1935,-3.1935,-3.1935,-3.1898,-3.1091,-3.1164,-3.188,-3.1072,-3.0723,-3.0711,-3.0472,-3.0442,-3.0593,-3.079,-3.0753,-3.0531,-3.0179,-2.9799,-2.9455,-2.9119,-2.8993,-2.9044,-2.9382,-2.9264,-2.9061,-2.9381,-2.9264,-2.8864,-2.8187,-2.801,-2.7916,-2.7561,-2.7103,-2.6742,-2.6687,-2.6045,-2.5315,-2.4627,-2.4754,-2.4918,-2.4552,-2.4253,-2.3888,-2.3459,-2.2897,-2.2443,-2.2296,-2.1503,-2.0871,-2.0635,-2.0334,-2.0055,-1.9824,-1.9798,-1.9798,-1.9798,-1.9798,-1.9798,-1.9798,-2.0037,-2.0075,-1.9811,-2.0037,-2.0062,-1.9811,-2.0125,-2.0125,-1.9798,-2.0125,-1.9902,-1.9212,-1.9242,-1.9256,-3.7767,0.0,-3.9525,-4.0388,-4.1047,-4.1534,0.0,0.0,0.0,0.0,0.0,0.0,0.0,0.0,0.0,0.0,0.0,0.0,0.0,0.0,0.0,0.0,0.0,0.0,0.0,0.0,0.0,0.0,0.0,0.0,-3.4461,-3.4222,-3.378,-3.308,-3.2823,-3.2548,-3.2219,-3.1597,-3.1323,-3.1397,-3.1195,-3.1103,-3.1072,-3.0265,-3.0228,-3.076,-3.0173,-2.9898,-2.9874,-2.9617,-2.952,-2.9538,-2.9935,-2.9942,-2.9678,-2.9331,-2.9059,-2.8819,-2.8524,-2.8417,-2.8451,-2.8619,-2.857,-2.8451,-2.8654,-2.857,-2.8325,-2.7858,-2.7843,-2.7826,-2.7207,-2.6803,-2.6397,-2.5761,-2.5083,-2.441,-2.3744,-2.3999,-2.4201,-2.3699,-2.3595,-2.3573,-2.3486,-2.2942,-2.2443,-2.2282,-2.1382,-2.0648,-2.0523,-2.0144,-1.9888,-1.9798,-1.9798,-1.9798,-1.9798,-1.9798,-1.9798,-1.9798,-1.9798,-1.9798,-1.9798,-1.9798,-1.9798,-1.9798,-2.0402,-2.0402,-1.9798,-2.0264,-2.0093,-1.9344,-1.9267,-1.9258,-3.7127,-3.7814,0.0,-3.9514,-4.0366,0.0,0.0,0.0,0.0,0.0,0.0,0.0,0.0,0.0,0.0,0.0,0.0,0.0,0.0,0.0,0.0,0.0,0.0,0.0,0.0,0.0,0.0,0.0,0.0,0.0,-3.4602,-3.375,-3.3254,-3.3187,-3.2329,-3.1463,-3.0635,-3.0516,-3.077,-3.1397,-3.0632,-3.0265,-3.0246,-2.9427,-2.9097,-2.9115,-2.9078,-2.906,-2.9049,-2.884,-2.9044,-2.9484,-2.9329,-2.9022,-2.8663,-2.8518,-2.789,-2.7094,-2.6894,-2.681,-2.6928,-2.7638,-2.7402,-2.6945,-2.7655,-2.7385,-2.6842,-2.6932,-2.7414,-2.7672,-2.6616,-2.6826,-2.7064,-2.5867,-2.5083,-2.441,-2.3744,-2.3625,-2.364,-2.361,-2.3595,-2.3486,-2.3194,-2.2777,-2.2305,-2.1722,-2.1277,-2.0785,-2.0283,-2.0207,-2.0067,-1.9824,-1.9798,-1.9798,-1.9798,-1.9798,-1.9798,-1.9798,-1.9798,-1.9798,-1.9798,-1.9798,-1.9798,-1.9798,-2.0402,-2.0402,-1.9798,-1.9836,-1.9823,-1.9759,-1.9437,-1.9296,-3.678,0.0,0.0,-3.8932,-3.9587,-4.0102,-4.0786,0.0,0.0,0.0,0.0,0.0,0.0,0.0,0.0,0.0,0.0,0.0,0.0,0.0,0.0,0.0,0.0,0.0,0.0,0.0,0.0,0.0,0.0,0.0,-3.434,-3.3529,-3.2836,-3.2315,-3.147,-3.0598,-2.9669,-3.0081,-3.0117,-2.9849,-2.9574,-2.9427,-2.9427,-2.9133,-2.9005,-2.9005,-2.9005,-2.9005,-2.8994,-2.8917,-2.8845,-2.877,-2.8576,-2.8253,-2.7865,-2.7613,-2.7279,-2.6975,-2.6775,-2.6691,-2.6742,-2.7012,-2.6911,-2.6742,-2.7012,-2.6792,-2.6499,-2.681,-2.6841,-2.6689,-2.6373,-2.6083,-2.5605,-2.4567,-2.4133,-2.3894,-2.3655,-2.3595,-2.3595,-2.3595,-2.3436,-2.3238,-2.3127,-2.2595,-2.2053,-2.1664,-2.1118,-2.0598,-2.0258,-2.0042,-1.9914,-1.9798,-1.9798,-1.9798,-1.9798,-1.9798,-1.9798,-1.9798,-1.9798,-1.9798,-1.9798,-2.0189,-2.0214,-1.9811,-2.0402,-2.0402,-1.9798,-2.0201,-2.0057,-1.9422,-1.9301,-1.9089,-3.6293,0.0,0.0,0.0,0.0,-3.9109,-3.9939,0.0,0.0,0.0,0.0,0.0,0.0,0.0,0.0,0.0,0.0,0.0,0.0,0.0,0.0,0.0,0.0,0.0,0.0,0.0,0.0,0.0,0.0,0.0,-3.4257,-3.3494,-3.2564,-3.1477,-3.0658,-2.9906,-2.9218,-2.9646,-2.9566,-2.9005,-2.9005,-2.9005,-2.9005,-2.9005,-2.9005,-2.9005,-2.9005,-2.9005,-2.8994,-2.8858,-2.8601,-2.8273,-2.7996,-2.7669,-2.7312,-2.7072,-2.6958,-2.6875,-2.6758,-2.6691,-2.6691,-2.6691,-2.6691,-2.6691,-2.6691,-2.6504,-2.6324,-2.6405,-2.6276,-2.6013,-2.5623,-2.5035,-2.4383,-2.3743,-2.3595,-2.3595,-2.3595,-2.3595,-2.3595,-2.3595,-2.3436,-2.3179,-2.2934,-2.2503,-2.1969,-2.1361,-2.0883,-2.0459,-2.0118,-1.9914,-1.9798,-1.9798,-1.9798,-1.9798,-1.9798,-1.9798,-1.9798,-1.9798,-1.9798,-1.9886,-2.0087,-2.0302,-2.0314,-2.01,-2.0302,-2.0135,-1.9592,-2.0135,-1.9991,-1.9212,-1.9054,-1.8709,0.0,0.0,0.0,0.0,0.0,0.0,-3.9157,0.0,0.0,0.0,0.0,0.0,0.0,0.0,0.0,0.0,0.0,0.0,0.0,0.0,0.0,0.0,0.0,0.0,0.0,0.0,0.0,0.0,0.0,-3.4245,-3.4393,-3.3598,-3.2403,-3.0742,-2.9912,-2.9382,-2.9189,-2.9189,-2.9123,-2.9005,-2.9005,-2.9005,-2.9005,-2.9005,-2.9005,-2.9005,-2.8994,-2.8994,-2.897,-2.8551,-2.8286,-2.8061,-2.7657,-2.7294,-2.6991,-2.6991,-2.6875,-2.6691,-2.6691,-2.6691,-2.6691,-2.6691,-2.6691,-2.6691,-2.6691,-2.6487,-2.6173,-2.5633,-2.5773,-2.5735,-2.4361,-2.3812,-2.3625,-2.3625,-2.361,-2.3595,-2.3595,-2.3595,-2.3595,-2.3595,-2.3595,-2.3341,-2.2626,-2.2489,-2.2035,-2.0795,-2.0585,-2.0409,-1.9875,-1.9798,-1.9798,-1.9798,-1.9798,-1.9798,-1.9798,-1.9798,-1.9798,-1.9798,-1.9798,-2.0049,-2.0641,-2.0138,-2.0087,-2.0654,-2.0138,-1.9642,-1.9226,-1.9592,-1.9566,-1.916,-1.8735,-1.8111,-3.5622,0.0,0.0,0.0,0.0,0.0,0.0,0.0,0.0,0.0,0.0,0.0,0.0,0.0,0.0,0.0,0.0,0.0,0.0,0.0,0.0,0.0,0.0,0.0,0.0,0.0,0.0,0.0,-3.4341,-3.3921,-3.3959,-3.2662,-3.1426,-3.0362,-2.9569,-2.9112,-2.9062,-2.9062,-2.904,-2.9005,-2.9005,-2.9005,-2.9005,-2.9005,-2.9005,-2.8994,-2.8846,-2.8785,-2.8755,-2.8507,-2.8277,-2.8061,-2.7562,-2.7214,-2.6975,-2.6842,-2.6758,-2.6691,-2.6691,-2.6691,-2.6691,-2.6691,-2.6691,-2.6657,-2.647,-2.6225,-2.5899,-2.5362,-2.5001,-2.4745,-2.4489,-2.438,-2.4321,-2.4321,-2.3947,-2.3595,-2.3595,-2.3595,-2.3595,-2.3595,-2.3399,-2.3068,-2.2581,-2.2156,-2.1565,-2.0734,-2.0422,-2.0195,-1.985,-1.9798,-1.9798,-1.9798,-1.9798,-1.9798,-1.9798,-1.9798,-1.9798,-1.9798,-1.9798,-1.9874,-2.0037,-2.0314,-2.0327,-2.0037,-2.0314,-2.0173,-1.9618,-1.9436,-1.8989,-1.8251,-1.7838,-1.7518,-3.56,-3.5943,-3.6451,0.0,0.0,0.0,-3.8294,-3.8058,0.0,0.0,0.0,0.0,0.0,0.0,0.0,0.0,0.0,0.0,0.0,0.0,0.0,0.0,0.0,0.0,0.0,0.0,0.0,0.0,-3.4468,-3.3815,-3.3868,-3.2404,-3.1328,-3.0801,-2.9685,-2.9062,-2.9005,-2.9005,-2.9005,-2.9005,-2.9005,-2.9005,-2.9005,-2.9005,-2.9005,-2.8994,-2.8798,-2.8694,-2.8669,-2.8242,-2.7992,-2.7837,-2.7367,-2.7037,-2.6859,-2.6741,-2.6691,-2.6691,-2.6691,-2.6691,-2.6691,-2.6691,-2.6691,-2.6641,-2.6383,-2.603,-2.5626,-2.5079,-2.4497,-2.4022,-2.4154,-2.4171,-2.4171,-2.4171,-2.3872,-2.3595,-2.3595,-2.3595,-2.3595,-2.3595,-2.3334,-2.2934,-2.242,-2.1921,-2.1337,-2.0548,-2.0296,-2.0093,-1.9824,-1.9798,-1.9798,-1.9798,-1.9798,-1.9798,-1.9798,-1.9798,-1.9798,-1.9798,-1.9798,-1.9911,-2.0189,-2.0277,-2.0289,-2.0189,-2.0289,-1.998,-1.9317,-1.9226,-1.875,-1.7881,-1.749,-1.7306,-3.56,-3.5667,-3.6039,-3.733,0.0,0.0,-3.7483,-3.7195,-3.6728,0.0,0.0,0.0,0.0,0.0,0.0,0.0,0.0,0.0,0.0,0.0,0.0,0.0,0.0,0.0,0.0,0.0,-3.5772,-3.6113,-3.4674,-3.3842,-3.3972,-3.2642,-3.1832,-3.1708,-3.0157,-2.9241,-2.9133,-2.9042,-2.9005,-2.9005,-2.9005,-2.9005,-2.9005,-2.9005,-2.9005,-2.8994,-2.8755,-2.8602,-2.8449,-2.7717,-2.7495,-2.7567,-2.7136,-2.6859,-2.6691,-2.6691,-2.6691,-2.6691,-2.6691,-2.6691,-2.6691,-2.6691,-2.6691,-2.6641,-2.6314,-2.587,-2.5389,-2.4792,-2.4177,-2.3714,-2.3714,-2.3714,-2.3714,-2.3714,-2.3655,-2.3595,-2.3595,-2.3595,-2.3595,-2.3595,-2.337,-2.2934,-2.2244,-2.1874,-2.1323,-2.0397,-2.0233,-2.0093,-1.9824,-1.9798,-1.9798,-1.9798,-1.9798,-1.9798,-1.9798,-1.9798,-1.9798,-1.9798,-1.9798,-2.0037,-2.0578,-2.0075,-2.0037,-2.0591,-2.0062,-1.9436,-1.8667,-1.8869,-1.859,-1.7826,-1.7462,-1.7306,0.0,0.0,0.0,0.0,0.0,0.0,-3.6965,-3.64,-3.6197,0.0,0.0,0.0,0.0,0.0,0.0,0.0,0.0,0.0,0.0,0.0,0.0,0.0,0.0,0.0,0.0,0.0,-3.4708,-3.4983,-3.4261,-3.382,-3.3847,-3.2954,-3.2439,-3.2414,-3.0833,-2.9995,-2.9971,-2.9317,-2.9005,-2.9005,-2.9005,-2.9005,-2.9005,-2.9005,-2.9005,-2.8982,-2.8619,-2.8036,-2.7284,-2.665,-2.6857,-2.7535,-2.6972,-2.6725,-2.6691,-2.6691,-2.6691,-2.6691,-2.6691,-2.6691,-2.6691,-2.6691,-2.6691,-2.6573,-2.5872,-2.5577,-2.5313,-2.4395,-2.4275,-2.4395,-2.4395,-2.4395,-2.4395,-2.4395,-2.3999,-2.3595,-2.3595,-2.3595,-2.3595,-2.3595,-2.3551,-2.3275,-2.2558,-2.2189,-2.167,-2.0684,-2.0346,-2.0093,-1.9824,-1.9798,-1.9798,-1.9798,-1.9798,-1.9798,-1.9798,-1.9798,-1.9798,-1.9798,-1.9798,-1.9849,-1.9962,-1.9861,-1.9861,-1.9962,-1.9861,-1.9566,-1.9081,-1.8127,-1.759,-1.7407,-1.7334,-1.7306,0.0,0.0,0.0,-3.6197,0.0,0.0,0.0,-3.618,-3.5819,0.0,0.0,0.0,0.0,0.0,0.0,0.0,0.0,0.0,0.0,0.0,0.0,0.0,0.0,0.0,0.0,0.0,-3.3994,-3.4094,-3.3824,-3.3684,-3.3775,-3.3041,-3.2601,-3.2601,-3.1421,-3.0613,-3.021,-2.9794,-2.939,-2.9005,-2.9005,-2.9005,-2.9005,-2.9005,-2.9005,-2.8982,-2.8582,-2.7869,-2.6942,-2.6353,-2.6135,-2.6204,-2.6177,-2.637,-2.6691,-2.6691,-2.6691,-2.6691,-2.6691,-2.6691,-2.6691,-2.6691,-2.6691,-2.659,-2.5941,-2.5403,-2.4839,-2.4036,-2.3951,-2.4096,-2.4096,-2.4096,-2.4096,-2.4096,-2.3849,-2.3595,-2.3595,-2.3595,-2.3595,-2.3595,-2.3523,-2.3143,-2.2276,-2.1856,-2.1321,-2.0359,-2.0093,-1.9939,-1.9837,-1.9798,-1.9798,-1.9798,-1.9798,-1.9798,-1.9798,-1.9798,-1.9798,-1.9798,-1.9798,-1.9798,-1.9798,-1.9798,-1.9798,-1.9798,-1.9592,-1.9305,-1.8895,-1.8018,-1.759,-1.759,-1.7379,-1.7306,0.0,0.0,0.0,0.0,0.0,-3.5769,0.0,0.0,0.0,0.0,0.0,0.0,0.0,0.0,0.0,0.0,0.0,0.0,0.0,0.0,0.0,0.0,0.0,0.0,0.0,0.0,-3.3646,-3.3307,-3.3487,-3.3651,-3.3739,-3.3135,-3.28,-3.2821,-3.2045,-3.1237,-3.0448,-3.0283,-2.9794,-2.9005,-2.9005,-2.9005,-2.9005,-2.9005,-2.8982,-2.8917,-2.8388,-2.7596,-2.6619,-2.5941,-2.5311,-2.4793,-2.5232,-2.5845,-2.6488,-2.6488,-2.6573,-2.6691,-2.6691,-2.6691,-2.6691,-2.6691,-2.6573,-2.6333,-2.5957,-2.5134,-2.4234,-2.3739,-2.3595,-2.3595,-2.3595,-2.3595,-2.3595,-2.3595,-2.3595,-2.3595,-2.3595,-2.3595,-2.3588,-2.3566,-2.3414,-2.2979,-2.1946,-2.1524,-2.0993,-2.0029,-1.9888,-1.9862,-1.9811,-1.9798,-1.9798,-1.9798,-1.9798,-1.9798,-1.9798,-1.9798,-1.9798,-1.9798,-1.9798,-1.9798,-1.9798,-1.9798,-1.9849,-1.9962,-1.9661,-1.9291,-1.8863,-1.8402,-1.8054,-1.7772,-1.7462,-1.7306,0.0,0.0,0.0,0.0,-3.5667,0.0,0.0,0.0,0.0,-3.56,0.0,0.0,0.0,0.0,0.0,0.0,0.0,0.0,0.0,0.0,0.0,0.0,0.0,0.0,0.0,0.0,0.0,-3.2609,-3.3473,-3.3882,-3.3542,-3.3462,-3.3473,-3.366,-3.2876,-3.2082,-3.1268,-3.0558,-2.9794,-2.9005,-2.9005,-2.9005,-2.9005,-2.9005,-2.8893,-2.8682,-2.7747,-2.6644,-2.5409,-2.4521,-2.4293,-2.4538,-2.4592,-2.5083,-2.5711,-2.5711,-2.6133,-2.6691,-2.6691,-2.6691,-2.6691,-2.6691,-2.6105,-2.5354,-2.5297,-2.4567,-2.3696,-2.3616,-2.3595,-2.3595,-2.3595,-2.3595,-2.3595,-2.3595,-2.3595,-2.3595,-2.3595,-2.3595,-2.3566,-2.3385,-2.3319,-2.3024,-2.2198,-2.1874,-2.1372,-2.0296,-2.0144,-2.0067,-1.9824,-1.9798,-1.9798,-1.9798,-1.9798,-1.9798,-1.9798,-1.9798,-1.9798,-1.9798,-1.9798,-1.9798,-1.9798,-1.9798,-2.0037,-2.0578,-2.0537,-2.0283,-1.9837,-1.9436,-1.8591,-1.7379,-1.7334,-1.7306,0.0,0.0,0.0,0.0,0.0,0.0,-3.56,0.0,-3.56,0.0,0.0,0.0,0.0,0.0,0.0,0.0,0.0,0.0,0.0,0.0,0.0,0.0,0.0,0.0,0.0,0.0,0.0,0.0,0.0,-3.3603,-3.3117,-3.3342,-3.3534,-3.3615,-3.341,-3.2687,-3.1415,-3.1072,-3.0265,-2.9005,-2.9005,-2.9005,-2.8994,-2.8881,-2.8785,-2.8645,-2.7512,-2.6371,-2.5232,-2.4282,-2.3627,-2.3224,-2.3224,-2.4458,-2.6234,-2.6234,-2.6437,-2.6691,-2.6691,-2.6691,-2.6674,-2.6556,-2.6191,-2.5703,-2.5179,-2.4623,-2.4099,-2.3702,-2.3595,-2.3595,-2.3595,-2.3595,-2.3595,-2.3595,-2.3595,-2.3595,-2.3595,-2.3595,-2.3545,-2.3341,-2.3172,-2.2777,-2.1846,-2.1623,-2.1188,-2.0131,-1.9965,-1.9939,-1.9798,-1.9798,-1.9798,-1.9798,-1.9798,-1.9798,-1.9798,-1.9798,-1.9798,-1.9798,-1.9798,-1.9798,-1.9798,-2.0151,-2.044,-2.0691,-2.1006,-2.0936,-2.0466,-1.9757,-1.8967,-1.8086,-1.7539,-1.7306,-3.56,0.0,0.0,0.0,0.0,0.0,0.0,0.0,0.0,0.0,0.0,0.0,0.0,0.0,0.0,0.0,0.0,0.0,0.0,0.0,0.0,0.0,0.0,0.0,0.0,0.0,0.0,0.0,-3.3139,0.0,-3.2433,-3.2893,-3.3298,-3.3491,-3.3629,-3.2983,-3.1415,-3.1397,-3.0595,-2.9005,-2.9005,-2.9005,-2.8994,-2.8798,-2.8669,-2.854,-2.7124,-2.6016,-2.5119,-2.3991,-2.3157,-2.2617,-2.2835,-2.434,-2.637,-2.6183,-2.6352,-2.6691,-2.6691,-2.6657,-2.659,-2.6453,-2.6155,-2.5738,-2.5098,-2.4639,-2.4224,-2.3739,-2.3595,-2.3595,-2.3595,-2.3595,-2.3595,-2.3595,-2.3595,-2.3595,-2.3595,-2.3566,-2.3458,-2.3238,-2.2994,-2.2489,-2.1465,-2.1296,-2.0955,-1.9952,-1.9798,-1.9798,-1.9798,-1.9798,-1.9798,-1.9798,-1.9798,-1.9798,-1.9798,-1.9798,-1.9798,-1.9798,-1.9798,-1.9874,-2.0037,-2.0465,-2.083,-2.1131,-2.1506,-2.1365,-2.0636,-1.9951,-1.9169,-1.8301,-1.7628,-1.7306,0.0,0.0,0.0,-3.56,0.0,0.0,0.0,0.0,-3.56,0.0,0.0,0.0,0.0,0.0,-3.4601,-3.3905,-3.3924,0.0,0.0,0.0,0.0,0.0,0.0,0.0,0.0,0.0,0.0,-3.2798,-3.3396,0.0,-3.1447,-3.2047,-3.2749,-3.3495,-3.3509,-3.2821,-3.1415,-3.1397,-3.0595,-2.9005,-2.9005,-2.9005,-2.8994,-2.8798,-2.8594,-2.8293,-2.6379,-2.5347,-2.4893,-2.323,-2.2861,-2.3427,-2.4152,-2.4915,-2.5558,-2.4829,-2.5472,-2.6691,-2.6691,-2.6573,-2.6401,-2.6401,-2.5742,-2.4942,-2.4902,-2.4318,-2.3616,-2.3595,-2.3595,-2.3595,-2.3595,-2.3595,-2.3595,-2.3595,-2.3595,-2.3595,-2.3595,-2.3458,-2.3231,-2.2957,-2.2746,-2.2263,-2.1213,-2.1017,-2.0746,-1.9927,-1.9798,-1.9798,-1.9798,-1.9798,-1.9798,-1.9798,-1.9798,-1.9798,-1.9798,-1.9798,-1.9798,-1.9798,-1.9798,-2.0049,-2.0641,-2.0679,-2.1194,-2.2234,-2.2284,-2.1605,-2.0216,-2.0204,-1.92,-1.7328,-1.7317,-1.7306,0.0,0.0,-3.56,-3.56,0.0,0.0,0.0,0.0,0.0,0.0,0.0,0.0,0.0,0.0,-3.4203,-3.3958,-3.3948,-3.4038,0.0,0.0,0.0,0.0,0.0,0.0,0.0,0.0,0.0,-3.1814,-3.2076,-3.1857,0.0,-3.1794,-3.2519,-3.2749,-3.3068,-3.2491,-3.0944,-3.0944,-3.0231,-2.881,-2.881,-2.881,-2.8779,-2.8594,-2.8317,-2.7918,-2.6592,-2.5872,-2.5508,-2.4411,-2.3731,-2.346,-2.4203,-2.4355,-2.4289,-2.5507,-2.6268,-2.6691,-2.6691,-2.6573,-2.6383,-2.6295,-2.5795,-2.5157,-2.4815,-2.4333,-2.3873,-2.3659,-2.3595,-2.3595,-2.3595,-2.3595,-2.3595,-2.3595,-2.3595,-2.3595,-2.3595,-2.3436,-2.3216,-2.2957,-2.2737,-2.2263,-2.1188,-2.0993,-2.0721,-1.9927,-1.9798,-1.9798,-1.9798,-1.9798,-1.9798,-1.9798,-1.9798,-1.9798,-1.9798,-1.9798,-1.9798,-1.9798,-1.9798,-2.0062,-2.0666,-2.1043,-2.1393,-2.1757,-2.1861,-2.1484,-2.0579,-1.9661,-1.8868,-1.8199,-1.7589,-1.7306,-3.4822,-3.4822,0.0,-3.4822,-3.4822,0.0,-3.5143,0.0,0.0,0.0,0.0,0.0,0.0,0.0,-3.3636,-3.3395,-3.3419,-3.3423,0.0,-3.3998,0.0,0.0,0.0,0.0,0.0,0.0,-3.3633,-3.1732,-3.1953,-3.1662,0.0,0.0,-3.2162,-3.2282,-3.2586,-3.2045,-3.0603,-3.0586,-2.9953,-2.8694,-2.8694,-2.8694,-2.8682,-2.8492,-2.8183,-2.7736,-2.6702,-2.609,-2.5827,-2.4984,-2.4313,-2.3849,-2.4609,-2.4594,-2.4323,-2.549,-2.6065,-2.6353,-2.6539,-2.647,-2.6279,-2.6012,-2.5554,-2.5036,-2.4574,-2.405,-2.3585,-2.3599,-2.3445,-2.3325,-2.3535,-2.3595,-2.3595,-2.3595,-2.3595,-2.3595,-2.3595,-2.3436,-2.3216,-2.2957,-2.2737,-2.2263,-2.1188,-2.0993,-2.0721,-1.9927,-1.9798,-1.9798,-1.9798,-1.9798,-1.9798,-1.9798,-1.9798,-1.9886,-2.0087,-1.9924,-1.9886,-2.01,-1.9911,-2.0062,-2.0666,-2.1031,-2.138,-2.1782,-2.1675,-2.1346,-2.0807,-1.9542,-1.8782,-1.8402,-1.7662,-1.7306]},{"header":{"parameterUnit":"m.s-1","parameterCategory":1,"la1":30.6,"la2":29.2853,"lo1":-89.7004,"lo2":-87.6739,"dy":0.0162,"dx":0.0183,"nx":112,"ny":82,"refTime":"2023-07-11T12:00:00:Z","depth":0,"parameterNumber":3,"parameterNumberName":"V-component_of_WINDS"},"data":[0.0,0.0,0.0,0.0,0.0,0.0,0.0,0.0,0.0,0.0,0.0,0.0,0.0,0.0,0.0,0.0,0.0,0.0,0.0,0.0,0.0,0.0,0.0,0.0,0.0,0.0,0.0,0.0,0.0,0.0,0.0,0.0,0.0,0.0,0.0,0.0,0.0,0.0,0.0,0.0,0.0,0.0,0.0,0.0,0.0,0.0,0.0,0.0,0.0,0.0,0.0,0.0,0.0,0.0,0.0,0.0,0.0,0.0,0.0,0.0,0.0,0.0,0.0,0.0,0.0,0.0,0.0,0.0,0.0,0.0,0.0,0.0,0.0,0.0,0.0,0.0,0.0,0.0,0.0,0.0,0.0,0.0,0.0,0.0,0.0,0.0,0.0,0.0,0.0,0.0,-2.2304,-2.3844,-2.6935,-2.967,-3.1574,-3.1739,-3.0746,-2.8354,0.0,0.0,0.0,0.0,0.0,0.0,0.0,0.0,0.0,0.0,0.0,0.0,0.0,0.0,0.0,0.0,0.0,0.0,0.0,0.0,0.0,0.0,0.0,0.0,0.0,0.0,0.0,0.0,0.0,0.0,0.0,0.0,0.0,0.0,0.0,0.0,0.0,0.0,0.0,0.0,0.0,0.0,0.0,0.0,0.0,0.0,0.0,0.0,0.0,0.0,0.0,0.0,0.0,0.0,0.0,0.0,0.0,0.0,0.0,0.0,0.0,0.0,0.0,0.0,0.0,0.0,0.0,0.0,0.0,0.0,0.0,0.0,0.0,0.0,0.0,0.0,0.0,0.0,0.0,0.0,0.0,0.0,0.0,0.0,0.0,0.0,0.0,0.0,0.0,0.0,0.0,0.0,0.0,0.0,0.0,0.0,0.0,0.0,0.0,0.0,0.0,0.0,0.0,0.0,-2.3504,-2.7146,-2.9336,-3.0803,-3.1467,-3.1566,-3.048,-2.793,0.0,0.0,0.0,0.0,0.0,0.0,0.0,0.0,0.0,0.0,0.0,0.0,0.0,0.0,0.0,0.0,0.0,0.0,0.0,0.0,0.0,0.0,0.0,0.0,0.0,0.0,0.0,0.0,0.0,0.0,0.0,0.0,0.0,0.0,0.0,0.0,0.0,0.0,0.0,0.0,0.0,0.0,0.0,0.0,0.0,0.0,0.0,0.0,0.0,0.0,0.0,0.0,0.0,0.0,0.0,0.0,0.0,0.0,0.0,0.0,0.0,0.0,0.0,0.0,0.0,0.0,0.0,0.0,0.0,0.0,0.0,0.0,0.0,0.0,0.0,0.0,0.0,0.0,0.0,0.0,0.0,0.0,0.0,0.0,0.0,0.0,0.0,0.0,0.0,0.0,0.0,0.0,0.0,0.0,0.0,0.0,0.0,0.0,0.0,0.0,0.0,0.0,0.0,-2.338,-2.517,-2.8027,-2.9629,-3.0596,-3.0781,-3.1035,-3.0068,-2.748,-2.6881,0.0,0.0,0.0,0.0,0.0,0.0,0.0,0.0,0.0,0.0,0.0,0.0,0.0,0.0,0.0,0.0,0.0,0.0,0.0,0.0,0.0,0.0,0.0,0.0,0.0,0.0,0.0,0.0,0.0,0.0,0.0,0.0,0.0,0.0,0.0,0.0,0.0,0.0,0.0,0.0,0.0,0.0,0.0,0.0,0.0,0.0,0.0,0.0,0.0,0.0,0.0,0.0,0.0,0.0,0.0,0.0,0.0,0.0,0.0,0.0,0.0,0.0,0.0,0.0,0.0,0.0,0.0,0.0,0.0,0.0,0.0,0.0,0.0,0.0,0.0,0.0,0.0,0.0,0.0,0.0,0.0,0.0,0.0,0.0,0.0,0.0,0.0,0.0,0.0,0.0,0.0,0.0,0.0,0.0,0.0,0.0,0.0,0.0,0.0,0.0,0.0,0.0,-2.5343,-2.6201,-2.7822,-2.9043,-2.9785,-2.9893,-3.0039,-2.9199,-2.7002,-2.615,0.0,0.0,0.0,0.0,0.0,0.0,0.0,0.0,0.0,0.0,0.0,0.0,0.0,0.0,0.0,0.0,0.0,0.0,0.0,0.0,0.0,0.0,0.0,0.0,0.0,0.0,0.0,0.0,0.0,0.0,0.0,0.0,0.0,0.0,0.0,0.0,0.0,0.0,0.0,0.0,0.0,0.0,0.0,0.0,0.0,0.0,0.0,0.0,0.0,0.0,0.0,0.0,0.0,0.0,0.0,0.0,0.0,0.0,0.0,0.0,0.0,0.0,0.0,0.0,0.0,0.0,0.0,0.0,0.0,0.0,0.0,0.0,0.0,0.0,0.0,0.0,0.0,0.0,0.0,0.0,0.0,0.0,0.0,0.0,0.0,0.0,0.0,0.0,0.0,0.0,0.0,0.0,0.0,0.0,0.0,0.0,0.0,0.0,0.0,0.0,0.0,0.0,-2.4365,-2.5625,-2.6963,-2.79,-2.8584,-2.8975,-2.832,-2.7523,-2.6494,-2.4888,0.0,0.0,0.0,0.0,0.0,0.0,0.0,0.0,0.0,0.0,0.0,0.0,0.0,0.0,0.0,0.0,0.0,0.0,0.0,0.0,0.0,0.0,0.0,0.0,0.0,0.0,0.0,0.0,0.0,0.0,0.0,0.0,0.0,0.0,0.0,0.0,0.0,0.0,0.0,0.0,0.0,0.0,0.0,0.0,0.0,0.0,0.0,0.0,0.0,0.0,0.0,0.0,0.0,0.0,0.0,0.0,0.0,0.0,0.0,0.0,0.0,0.0,0.0,0.0,0.0,0.0,0.0,0.0,0.0,0.0,0.0,0.0,0.0,0.0,0.0,0.0,0.0,0.0,0.0,0.0,0.0,0.0,0.0,0.0,0.0,0.0,0.0,0.0,0.0,0.0,0.0,0.0,0.0,0.0,0.0,0.0,0.0,0.0,0.0,0.0,0.0,0.0,-2.3867,-2.5059,0.0,-2.7461,-2.8359,-2.8516,-2.8476,-2.7839,-2.6418,0.0,0.0,0.0,0.0,0.0,0.0,0.0,0.0,0.0,0.0,0.0,0.0,0.0,0.0,0.0,0.0,0.0,0.0,0.0,0.0,0.0,0.0,0.0,0.0,0.0,0.0,0.0,0.0,0.0,0.0,0.0,0.0,0.0,0.0,0.0,0.0,0.0,0.0,0.0,0.0,0.0,0.0,0.0,0.0,0.0,0.0,0.0,0.0,0.0,0.0,0.0,0.0,0.0,0.0,0.0,0.0,0.0,0.0,0.0,0.0,0.0,0.0,0.0,0.0,0.0,0.0,0.0,0.0,0.0,0.0,0.0,0.0,0.0,0.0,0.0,0.0,0.0,0.0,0.0,0.0,0.0,0.0,0.0,0.0,0.0,0.0,0.0,0.0,0.0,0.0,0.0,0.0,0.0,0.0,0.0,0.0,0.0,0.0,0.0,0.0,0.0,0.0,-2.2285,-2.3389,-2.4407,0.0,-2.6777,-2.7588,-2.7861,-2.7855,-2.727,-2.5964,0.0,0.0,0.0,0.0,0.0,0.0,0.0,0.0,0.0,0.0,0.0,0.0,0.0,0.0,0.0,0.0,0.0,0.0,0.0,0.0,0.0,0.0,0.0,0.0,0.0,0.0,0.0,0.0,0.0,0.0,0.0,0.0,0.0,0.0,0.0,0.0,0.0,0.0,0.0,0.0,0.0,0.0,0.0,0.0,0.0,0.0,0.0,0.0,0.0,0.0,0.0,0.0,0.0,0.0,0.0,0.0,0.0,0.0,0.0,0.0,0.0,0.0,0.0,0.0,0.0,0.0,0.0,0.0,0.0,0.0,0.0,0.0,0.0,0.0,0.0,0.0,0.0,0.0,0.0,0.0,0.0,0.0,0.0,0.0,0.0,0.0,0.0,0.0,0.0,0.0,0.0,0.0,0.0,0.0,0.0,0.0,0.0,0.0,0.0,0.0,0.0,0.0,-2.2275,-2.2828,-2.3754,-2.5489,-2.5684,-2.6035,-2.6934,-2.6109,-2.5396,0.0,0.0,0.0,0.0,0.0,0.0,0.0,0.0,0.0,0.0,0.0,0.0,0.0,0.0,0.0,0.0,0.0,0.0,0.0,0.0,0.0,0.0,0.0,0.0,0.0,0.0,0.0,0.0,0.0,0.0,0.0,0.0,0.0,0.0,0.0,0.0,0.0,0.0,0.0,0.0,0.0,0.0,0.0,0.0,0.0,0.0,0.0,0.0,0.0,0.0,0.0,0.0,0.0,0.0,0.0,0.0,0.0,0.0,0.0,0.0,0.0,0.0,0.0,0.0,0.0,0.0,0.0,0.0,0.0,0.0,0.0,0.0,0.0,0.0,0.0,0.0,0.0,0.0,0.0,0.0,0.0,0.0,0.0,0.0,0.0,0.0,0.0,0.0,0.0,0.0,0.0,0.0,0.0,0.0,0.0,0.0,0.0,0.0,0.0,0.0,0.0,0.0,0.0,-2.1424,-2.2467,-2.352,-2.4641,-2.5313,-2.5928,-2.6506,-2.6758,-2.6497,-2.5711,0.0,0.0,0.0,0.0,0.0,0.0,0.0,0.0,0.0,0.0,0.0,0.0,0.0,0.0,0.0,0.0,0.0,0.0,0.0,0.0,0.0,0.0,0.0,0.0,0.0,0.0,0.0,0.0,0.0,0.0,0.0,0.0,0.0,0.0,0.0,0.0,0.0,0.0,0.0,0.0,0.0,0.0,0.0,0.0,0.0,0.0,0.0,0.0,0.0,0.0,0.0,0.0,0.0,0.0,0.0,0.0,0.0,0.0,0.0,0.0,0.0,0.0,0.0,0.0,0.0,0.0,0.0,0.0,0.0,0.0,0.0,0.0,0.0,0.0,0.0,0.0,0.0,0.0,0.0,0.0,0.0,0.0,0.0,0.0,0.0,0.0,0.0,0.0,0.0,0.0,0.0,0.0,0.0,0.0,0.0,0.0,0.0,0.0,0.0,0.0,0.0,0.0,-2.1054,-2.2019,-2.3027,-2.4053,-2.5075,-2.5822,-2.6262,-2.7161,-2.7248,-2.611,0.0,0.0,0.0,0.0,0.0,0.0,0.0,0.0,0.0,0.0,0.0,0.0,0.0,0.0,0.0,0.0,0.0,0.0,0.0,0.0,0.0,0.0,0.0,0.0,0.0,0.0,0.0,0.0,0.0,0.0,0.0,0.0,0.0,0.0,0.0,0.0,0.0,0.0,0.0,0.0,0.0,0.0,0.0,0.0,0.0,0.0,0.0,0.0,0.0,0.0,0.0,0.0,0.0,0.0,0.0,0.0,0.0,0.0,0.0,0.0,0.0,0.0,0.0,0.0,0.0,0.0,0.0,0.0,0.0,0.0,0.0,0.0,0.0,0.0,0.0,0.0,0.0,0.0,0.0,0.0,0.0,0.0,0.0,0.0,0.0,0.0,0.0,0.0,0.0,0.0,0.0,0.0,0.0,0.0,0.0,0.0,0.0,0.0,0.0,0.0,0.0,0.0,-2.1034,-2.1691,-2.2539,-2.3831,-2.4992,-2.5847,-2.623,-2.7502,-2.7713,-2.6462,0.0,0.0,0.0,0.0,0.0,0.0,0.0,0.0,0.0,0.0,0.0,0.0,0.0,0.0,0.0,0.0,0.0,0.0,0.0,0.0,0.0,0.0,0.0,0.0,0.0,0.0,0.0,0.0,0.0,0.0,0.0,0.0,0.0,0.0,0.0,0.0,0.0,0.0,0.0,0.0,0.0,0.0,0.0,0.0,0.0,0.0,0.0,0.0,0.0,0.0,0.0,0.0,0.0,0.0,0.0,0.0,0.0,0.0,0.0,0.0,-1.7054,0.0,0.0,0.0,0.0,0.0,0.0,0.0,0.0,0.0,0.0,0.0,0.0,0.0,0.0,0.0,0.0,0.0,0.0,0.0,0.0,0.0,0.0,0.0,0.0,0.0,0.0,0.0,0.0,0.0,0.0,0.0,0.0,0.0,0.0,0.0,0.0,0.0,0.0,0.0,0.0,0.0,-2.1073,-2.2338,-2.3642,-2.4926,-2.5824,-2.6617,-2.7379,-2.8184,-2.8368,-2.7663,-2.7828,0.0,0.0,0.0,0.0,0.0,0.0,0.0,0.0,0.0,0.0,0.0,0.0,0.0,0.0,0.0,0.0,0.0,0.0,0.0,0.0,0.0,0.0,0.0,0.0,0.0,0.0,0.0,0.0,0.0,0.0,0.0,0.0,0.0,0.0,0.0,0.0,0.0,0.0,0.0,0.0,0.0,0.0,0.0,0.0,0.0,0.0,0.0,0.0,0.0,0.0,0.0,0.0,0.0,0.0,0.0,0.0,0.0,0.0,0.0,0.0,-1.7348,0.0,0.0,0.0,0.0,0.0,0.0,0.0,0.0,0.0,0.0,0.0,0.0,0.0,0.0,0.0,0.0,0.0,0.0,0.0,0.0,0.0,0.0,0.0,0.0,0.0,0.0,0.0,0.0,0.0,0.0,0.0,0.0,0.0,0.0,0.0,0.0,0.0,0.0,0.0,0.0,-2.156,-2.292,-2.4273,-2.5477,-2.6611,-2.7512,-2.7923,-2.8802,-2.908,-2.8457,-2.8475,0.0,0.0,0.0,0.0,0.0,0.0,0.0,0.0,0.0,0.0,0.0,0.0,0.0,0.0,0.0,0.0,0.0,0.0,0.0,0.0,0.0,0.0,0.0,0.0,0.0,0.0,0.0,0.0,0.0,0.0,0.0,0.0,0.0,0.0,0.0,0.0,0.0,0.0,0.0,0.0,0.0,0.0,0.0,0.0,0.0,0.0,0.0,0.0,0.0,0.0,0.0,0.0,0.0,0.0,-1.9559,-1.9799,-1.9492,-1.9673,-2.012,-1.9045,-1.8604,-1.8584,0.0,0.0,0.0,0.0,0.0,0.0,0.0,0.0,0.0,0.0,0.0,0.0,0.0,0.0,0.0,0.0,0.0,0.0,0.0,0.0,0.0,0.0,0.0,0.0,0.0,-2.3389,-2.3506,0.0,0.0,0.0,0.0,0.0,0.0,0.0,0.0,0.0,0.0,0.0,0.0,-2.2482,-2.3786,-2.5042,-2.6108,-2.7477,-2.8391,-2.8383,-2.9312,-2.9663,-2.9101,-2.895,-2.831,0.0,0.0,0.0,0.0,0.0,0.0,0.0,0.0,0.0,0.0,0.0,0.0,0.0,0.0,0.0,0.0,0.0,0.0,0.0,0.0,0.0,0.0,0.0,0.0,0.0,0.0,0.0,0.0,0.0,0.0,0.0,0.0,-1.4303,-1.4825,0.0,0.0,0.0,0.0,0.0,0.0,0.0,0.0,0.0,0.0,0.0,0.0,0.0,0.0,-1.8685,-1.9541,-1.996,-2.0013,-2.1096,-2.147,-2.1326,-2.1286,-2.139,-2.1663,-2.0995,0.0,-1.9219,-1.8844,0.0,0.0,0.0,0.0,0.0,0.0,0.0,0.0,0.0,0.0,0.0,0.0,0.0,0.0,0.0,0.0,0.0,0.0,0.0,0.0,0.0,0.0,-2.3779,-2.4092,-2.4248,-2.4277,0.0,-2.3125,-2.2197,-2.1719,0.0,0.0,0.0,0.0,0.0,0.0,0.0,0.0,-2.4071,-2.5484,-2.6814,-2.7723,-2.851,-2.9126,-2.9546,-2.9738,-2.979,-2.9691,-2.9202,-2.8787,-2.8574,-2.7218,0.0,0.0,0.0,0.0,0.0,0.0,0.0,0.0,0.0,0.0,0.0,0.0,0.0,0.0,0.0,0.0,0.0,0.0,0.0,0.0,0.0,0.0,0.0,0.0,0.0,0.0,0.0,0.0,0.0,-1.2863,-1.3599,-1.316,-1.3393,-1.3178,0.0,0.0,0.0,0.0,0.0,0.0,0.0,0.0,0.0,-1.7562,-1.8053,-1.8908,-2.0095,-2.0816,-2.1296,-2.147,-2.1984,-2.2251,-2.2351,-2.2118,-2.2198,-2.2445,-2.1857,-2.1309,-2.0762,-1.9813,-1.94,-1.9434,0.0,0.0,0.0,0.0,0.0,-2.5421,-2.5752,0.0,0.0,0.0,0.0,0.0,0.0,0.0,0.0,0.0,0.0,0.0,0.0,0.0,0.0,-2.4736,-2.4971,-2.5109,-2.5109,-2.4657,-2.3883,0.0,-2.277,-2.2722,-2.223,0.0,0.0,0.0,0.0,0.0,-2.5351,-2.664,-2.7827,-2.8569,-2.917,-2.9585,-2.9792,-2.9792,-2.9792,-2.9792,-2.9553,-2.9264,-2.89,-2.8235,-2.7557,0.0,0.0,0.0,0.0,0.0,0.0,0.0,0.0,0.0,0.0,0.0,0.0,0.0,0.0,0.0,0.0,0.0,0.0,0.0,0.0,0.0,0.0,0.0,0.0,0.0,0.0,0.0,0.0,-1.2335,-1.2792,-1.1883,-1.2694,-1.2495,0.0,0.0,0.0,0.0,0.0,0.0,-1.5577,-1.5996,-1.6891,-1.8386,-1.9237,-2.0234,-2.1444,-2.1859,-2.2245,-2.2532,-2.2532,-2.2605,-2.2739,-2.2519,-2.2498,-2.2612,-2.2098,-2.1877,-2.1777,-2.0535,-2.0468,-2.1126,-2.1171,-2.227,-2.3998,-2.4637,-2.5619,-2.6688,-2.6892,-2.7226,-2.7363,-2.6514,0.0,-2.5019,-2.3783,0.0,0.0,0.0,0.0,-2.3838,-2.4053,0.0,-2.5116,-2.5116,-2.5322,-2.5585,-2.5622,-2.5458,-2.5027,0.0,-2.4165,-2.4249,-2.3619,0.0,0.0,0.0,0.0,-2.6234,-2.6704,-2.7719,-2.8609,-2.9209,-2.9585,-2.9792,-2.9792,-2.9792,-2.9792,-2.9792,-2.9792,-2.9603,-2.9126,-2.8963,-2.8473,-2.7507,0.0,0.0,0.0,0.0,0.0,0.0,0.0,0.0,0.0,0.0,0.0,0.0,0.0,0.0,0.0,0.0,0.0,0.0,0.0,0.0,0.0,0.0,0.0,0.0,0.0,0.0,0.0,0.0,0.0,-1.2296,-1.2039,0.0,0.0,0.0,0.0,-1.2758,-1.2907,-1.3713,-1.5505,-1.6248,-1.7603,-1.9816,-2.052,-2.1342,-2.2304,-2.2385,-2.2545,-2.2839,-2.2839,-2.2699,-2.2438,-2.2425,-2.2278,-2.2011,-2.171,-2.1641,-2.1594,-2.0895,-2.0887,-2.138,-2.2323,-2.3191,-2.4097,-2.5909,-2.6866,-2.7226,-2.7046,-2.7031,-2.7109,-2.7451,-2.6728,-2.5489,-2.4629,-2.3744,0.0,0.0,-2.3769,-2.3975,-2.4842,-2.5086,-2.5116,-2.5116,-2.5135,-2.5179,-2.5467,-2.5137,-2.4923,0.0,-2.5251,-2.5147,-2.5094,0.0,-2.6504,-2.6052,-2.731,-2.8321,-2.8304,-2.8748,-2.9209,-2.9702,-2.9792,-2.9792,-2.9792,-2.9792,-2.9792,-2.9792,-2.9792,-2.9779,-2.9754,-2.9176,-2.8624,-2.8072,-2.644,0.0,0.0,0.0,0.0,0.0,0.0,0.0,0.0,0.0,0.0,0.0,0.0,0.0,0.0,0.0,0.0,0.0,0.0,0.0,0.0,0.0,0.0,0.0,0.0,0.0,0.0,0.0,0.0,-1.0694,-1.1491,0.0,-1.0885,-1.0649,-1.1368,-1.3345,-1.3654,-1.4649,-1.6862,-1.731,-1.8379,-2.016,-2.0576,-2.145,-2.2699,-2.2706,-2.2759,-2.2928,-2.2928,-2.2706,-2.2418,-2.2418,-2.2258,-2.1971,-2.1742,-2.1614,-2.1574,-2.0978,-2.1332,-2.2482,-2.3856,-2.5028,-2.6149,-2.7568,-2.8408,-2.868,-2.8086,-2.8018,-2.8086,-2.7148,-2.6143,-2.5195,-2.46,-2.4199,-2.3949,-2.415,-2.4394,-2.4619,-2.4639,-2.5078,-2.5352,-2.4785,-2.5191,-2.5702,-2.5544,-2.5824,-2.6141,-2.6312,-2.6086,-2.5935,-2.6205,-2.6928,-2.7545,-2.7639,-2.8326,-2.8873,-2.886,-2.9254,-2.9624,-2.9792,-2.9792,-2.9792,-2.9792,-2.9792,-2.9792,-2.9792,-2.9792,-2.9792,-2.9792,-2.9239,-2.8662,-2.8109,-2.6851,-2.5875,0.0,0.0,0.0,0.0,0.0,0.0,0.0,0.0,0.0,0.0,0.0,0.0,0.0,0.0,0.0,0.0,0.0,0.0,0.0,0.0,0.0,0.0,0.0,0.0,0.0,0.0,-1.104,-0.9726,-1.1038,-1.156,-1.0169,-1.0368,-1.164,-1.4117,-1.4379,-1.552,-1.8042,-1.8409,-1.9197,-2.0515,-2.0888,-2.1628,-2.2859,-2.2928,-2.2812,-2.2712,-2.2712,-2.2505,-2.2124,-2.2124,-2.1964,-2.1677,-2.149,-2.1403,-2.137,-2.0982,-2.1493,-2.2647,-2.4476,-2.5897,-2.715,-2.8449,-2.9101,-2.9228,-2.8379,-2.8262,-2.8262,-2.6846,-2.5889,-2.5215,-2.4766,-2.4434,-2.4268,-2.4551,-2.4736,-2.4814,-2.4668,-2.5068,-2.5341,-2.469,-2.5113,-2.566,-2.5745,-2.6206,-2.6661,-2.6883,-2.6835,-2.6857,-2.7133,-2.7805,-2.8391,-2.8657,-2.9064,-2.9339,-2.9339,-2.9624,-2.9792,-2.9792,-2.9792,-2.9792,-2.9792,-2.9792,-2.9792,-2.9792,-2.9616,-2.9503,-2.9503,-2.895,-2.8398,-2.7846,-2.6936,-2.6189,-2.5605,0.0,0.0,0.0,0.0,0.0,0.0,0.0,0.0,0.0,0.0,0.0,0.0,0.0,0.0,0.0,0.0,0.0,0.0,0.0,0.0,0.0,0.0,0.0,-0.8966,-0.9863,-1.0297,-0.9734,-1.069,-1.1168,-1.0582,-1.0921,-1.2333,-1.4986,-1.4916,-1.6051,-1.8945,-1.9314,-1.993,-2.0886,-2.1489,-2.2104,-2.2846,-2.2846,-2.2699,-2.2405,-2.2405,-2.2104,-2.1614,-2.1614,-2.139,-2.1096,-2.1096,-2.1089,-2.1082,-2.1069,-2.1277,-2.1838,-2.4059,-2.5671,-2.6965,-2.8358,-2.8887,-2.874,-2.793,-2.7689,-2.7542,-2.6641,-2.6074,-2.5635,-2.5185,-2.4473,-2.3984,-2.4861,-2.4746,-2.4512,-2.4922,-2.5086,-2.5021,-2.4785,-2.4805,-2.5078,-2.5961,-2.6185,-2.6445,-2.7097,-2.7598,-2.7921,-2.7921,-2.859,-2.9091,-2.9131,-2.9507,0.0,-2.9792,-2.9792,-2.9792,-2.9792,-2.9792,-2.9792,-2.9792,-2.9779,-2.9767,-2.9767,-2.9227,-2.8863,-2.8863,-2.8373,-2.7821,-2.7304,-2.6716,-2.6162,-2.5623,0.0,0.0,0.0,0.0,0.0,0.0,0.0,0.0,0.0,0.0,0.0,0.0,0.0,0.0,0.0,0.0,0.0,0.0,0.0,0.0,0.0,0.0,-0.9747,-0.9893,-1.0439,-1.0843,-1.0894,-1.1287,-1.1491,-1.1324,-1.1419,-1.2514,-1.4875,-1.4978,-1.6009,-1.848,-1.8644,-1.9086,-1.9918,-2.0626,-2.1258,-2.1732,-2.2268,-2.2392,-2.2104,-2.2104,-2.1911,-2.1614,-2.1614,-2.134,-2.0795,-2.0795,-2.0675,-2.0454,-2.0247,-2.1006,-2.2444,-2.4404,-2.5545,-2.6255,-2.7867,-2.8076,-2.751,-2.7275,-2.6992,-2.665,-2.6094,-2.5615,-2.5166,-2.4727,-2.4434,-2.4297,-2.4531,-2.4512,-2.4375,-2.4189,-2.4365,-2.4421,-2.3737,-2.455,-2.5504,-2.5455,-2.6249,-2.7097,-2.7598,-2.8042,-2.8363,-2.8363,-2.8736,-2.9221,-2.9546,0.0,0.0,-2.9792,-2.9792,-2.9792,-2.9792,-2.9792,-2.9792,-2.9792,-2.9402,-2.9164,-2.9164,-2.8649,-2.8335,-2.8335,-2.7795,-2.7291,-2.6738,-2.6896,-2.6725,0.0,0.0,0.0,0.0,0.0,0.0,0.0,0.0,0.0,0.0,0.0,0.0,0.0,0.0,0.0,0.0,0.0,0.0,0.0,0.0,0.0,0.0,-0.9496,-1.0066,-1.05,-1.0718,-1.0944,-1.1185,-1.1392,-1.1525,-1.1525,-1.1582,-1.2356,-1.4285,-1.4789,-1.5884,-1.7857,-1.8259,-1.8757,-1.9625,-2.0372,-2.0877,-2.1279,-2.2015,-2.2211,-2.1804,-2.1804,-2.165,-2.1363,-2.1243,-2.1058,0.0,-2.0541,-2.0394,-2.0221,-2.0054,-2.0883,0.0,0.0,0.0,0.0,0.0,-2.7441,-2.6992,-2.6816,-2.6475,-2.6045,-2.5605,-2.5156,-2.4746,-2.4492,-2.4287,-2.4189,-2.4365,-2.4287,-2.4092,-2.3857,-2.3975,-2.403,-2.3642,-2.4576,-2.5562,-2.5623,-2.6467,-2.7272,-2.7557,0.0,0.0,-2.851,-2.8986,-2.9507,-2.9753,-2.9792,-2.9792,0.0,-2.9792,-2.9792,-2.9792,-2.9792,-2.9792,-2.9792,-2.9478,0.0,0.0,0.0,-2.7896,-2.7444,-2.714,0.0,0.0,0.0,-2.7775,0.0,0.0,0.0,0.0,-2.9103,-2.9442,0.0,0.0,0.0,0.0,0.0,0.0,0.0,0.0,0.0,0.0,0.0,0.0,0.0,0.0,0.0,0.0,-0.9825,-1.023,-1.0776,-1.0853,-1.0867,-1.09,-1.1219,-1.1392,-1.1392,-1.1514,-1.2147,-1.3508,-1.4449,-1.5574,-1.7029,0.0,0.0,0.0,0.0,-2.0822,-2.1049,-2.1916,-2.2044,-2.1568,-2.1568,-2.1349,-2.1049,-2.0795,-2.0641,-2.0561,-2.0294,-2.0167,-2.0134,-2.0134,-2.0921,-2.2309,-2.352,-2.4789,-2.6099,-2.6701,-2.6914,0.0,0.0,0.0,0.0,-2.5137,-2.4697,-2.4336,-2.4287,-2.4014,-2.3799,-2.417,-2.4004,-2.3721,-2.3721,-2.3721,-2.3791,-2.4041,-2.4637,-2.5369,-2.5946,-2.6663,-2.7219,-2.7232,-2.7855,-2.8402,-2.8461,-2.9186,-2.9792,-2.9792,-2.9792,0.0,-2.9792,-2.9792,-2.9792,-2.9792,0.0,0.0,-2.9691,-2.9578,-2.9289,-2.8737,-2.8235,-2.7482,-2.6537,-2.6555,-2.6782,-2.7196,-2.8358,-2.8938,-2.8853,-2.9945,-3.0358,-3.0189,-2.9792,-3.0043,0.0,0.0,0.0,0.0,0.0,0.0,0.0,0.0,0.0,0.0,0.0,0.0,0.0,0.0,0.0,-0.9137,-0.9866,-1.049,-1.0731,-1.0765,-1.0853,-1.1094,-1.128,-1.1392,-1.1392,-1.1416,-1.1938,-1.3161,-1.425,-1.4964,-1.5321,-1.7248,0.0,-1.7086,-1.9192,-2.011,-1.9747,-2.1058,-2.1543,-2.1196,0.0,0.0,-2.0762,-2.0702,-2.0414,-1.9967,-1.9907,-1.9746,-1.9533,-1.9533,-2.0873,-2.2981,-2.4554,-2.5839,-2.6766,-2.6588,-2.6289,-2.5927,-2.584,-2.5566,-2.5127,-2.4687,-2.4258,-2.3848,-2.3452,-2.3286,0.0,-2.3325,-2.3286,-2.3218,-2.3218,-2.3218,-2.3242,-2.3285,-2.4294,-2.5242,-2.5359,-2.6343,-2.7267,-2.7565,-2.7756,-2.7922,-2.8126,-2.9075,-2.9792,-2.9792,-2.9792,-2.9792,-2.9792,-2.9792,-2.9792,-2.9792,-2.9377,-2.9051,-2.9051,-2.8273,-2.772,-2.7607,-2.7115,-2.6713,-2.6499,-2.685,-2.7095,-2.7196,-2.8264,-2.8958,-2.9202,-2.9871,-3.0395,-3.0822,-3.0523,-3.0581,0.0,0.0,0.0,0.0,0.0,0.0,0.0,0.0,0.0,0.0,0.0,-0.8417,0.0,0.0,-0.946,-0.9747,-1.0169,-1.0544,-1.07,-1.0721,-1.0775,-1.0924,-1.1077,-1.1168,-1.1168,-1.1233,-1.1552,-1.2106,-1.3776,-1.4761,-1.4595,-1.6946,-1.7872,-1.7071,-1.8976,-1.9869,-1.9393,-2.0831,-2.1403,-2.1109,-2.0962,-2.0815,-2.0668,-2.0374,-2.008,-1.9793,-1.9646,-1.9499,-1.9482,-2.0385,-2.1786,-2.3518,-2.4898,-2.5884,-2.6535,-2.6433,-2.6113,-2.5693,-2.5693,-2.5303,-2.4707,-2.4492,-2.3984,-2.3428,-2.3159,-2.3091,-2.3091,-2.3091,-2.3091,-2.3091,-2.3091,-2.3091,-2.3178,-2.356,-2.4423,-2.5359,-2.5883,-2.6583,-2.72,-2.761,-2.7654,-2.7652,-2.7792,-2.8425,-2.9038,-2.9315,-2.9126,-2.9051,-2.9327,-2.9126,-2.895,-2.895,-2.8687,-2.8511,-2.8511,-2.7758,-2.7281,-2.7281,-2.6801,-2.6624,-2.685,-2.7061,-2.7451,-2.798,-2.8993,-2.9585,-2.9713,-3.0442,-3.0887,-3.0999,-3.0851,-3.1146,0.0,0.0,0.0,0.0,0.0,0.0,0.0,0.0,-0.8396,-0.8908,-0.906,-0.9185,-0.9657,-0.9791,-0.9945,-1.0368,-1.0452,-1.0578,-1.0704,-1.0694,-1.0687,-1.0717,-1.0789,-1.088,-1.088,-1.1053,-1.1121,-1.1121,-1.3161,-1.4281,-1.4062,-1.6372,-1.7633,-1.7322,-1.878,-1.952,-1.9321,-2.0567,-2.1135,-2.1022,-2.0728,-2.0561,-2.0488,-2.0013,-1.9766,-1.97,-1.9466,-1.9424,-1.954,-2.1345,-2.2638,-2.3665,-2.4943,-2.5665,-2.6034,-2.6206,-2.6035,-2.5693,-2.5693,-2.5109,-2.4414,-2.4414,-2.3793,-2.3091,-2.3091,-2.3091,-2.3091,-2.3091,-2.3091,-2.3091,-2.3091,-2.3091,-2.3309,-2.4026,-2.4722,-2.5453,-2.633,-2.6794,-2.7062,-2.7337,-2.7357,-2.7324,-2.7299,-2.7566,-2.8009,-2.8637,-2.8398,-2.8273,-2.8675,-2.8386,-2.8109,-2.8109,-2.8009,-2.7896,-2.7795,-2.7281,-2.7005,-2.7153,-2.6637,-2.6599,-2.7196,-2.7297,-2.7815,-2.8771,-2.9702,-3.0207,-3.0203,-3.0883,-3.1128,-3.0895,-3.0777,-3.1293,-1.1459,-1.0274,-0.9426,-0.9458,-0.9047,-0.8674,0.0,0.0,-0.9289,-0.9493,-0.9506,-0.952,-0.9581,-0.9799,-0.9984,-1.0032,-1.0409,-1.07,-1.0717,-1.0602,-1.0568,-1.0704,-1.0789,-1.088,-1.088,-1.0894,-1.0904,-1.0904,-1.2131,-1.2803,-1.2716,-1.5059,-1.6233,-1.5948,-1.7659,-1.8722,-1.912,-1.9569,-2.0119,-2.0722,-2.0421,-2.0147,-1.9893,-1.9826,-1.9659,-1.9412,-1.9379,-1.9424,-1.954,-2.1345,-2.228,-2.2686,-2.4969,-2.5739,-2.5557,-2.5711,-2.5732,-2.5693,-2.5693,-2.5109,-2.4414,-2.4414,-2.3793,-2.3091,-2.3091,-2.3091,-2.3091,-2.3091,-2.3091,-2.3091,-2.3091,-2.3091,-2.3309,-2.4026,-2.4722,-2.5251,-2.551,-2.6314,-2.685,-2.6354,-2.6506,-2.6695,-2.6611,-2.664,-2.7027,-2.8047,-2.8147,-2.8134,-2.8185,-2.8147,-2.8109,-2.8109,-2.767,-2.7216,-2.6713,-2.6113,-2.6,-2.6549,-2.6047,-2.6147,-2.717,-2.7663,-2.8189,-2.8803,-2.9659,-3.026,-3.0552,-3.0353,-3.0363,-3.0541,-3.0003,-3.0434,-1.1531,-1.026,-0.9176,-0.9329,-0.9009,-0.871,-0.9125,-0.9326,-0.95,-0.9914,-1.0038,-1.0049,-1.0215,-1.0349,-1.0428,0.0,-1.0548,-1.0721,-1.0721,-1.0588,-1.0517,-1.0578,-1.0643,-1.0717,-1.0806,-1.0749,-1.0749,-1.0749,-1.1896,-1.2779,-1.3269,-1.4976,-1.6128,-1.6438,-1.7538,-1.8395,-1.8779,-1.9343,-1.9888,-2.0414,-2.012,-1.992,-1.9793,-1.9626,-1.9486,-1.9424,-1.9424,-1.9424,-1.9526,-2.109,-2.2189,-2.298,-2.457,-2.5563,-2.6048,-2.6083,-2.5791,-2.5352,-2.5352,-2.4775,-2.4053,-2.4053,-2.3633,-2.3091,-2.3091,-2.3091,-2.3091,-2.3091,-2.3091,-2.3091,-2.3091,-2.3091,-2.3396,-2.4509,-2.4978,-2.5398,-2.6211,-2.6523,-2.6564,-2.6469,-2.6565,-2.6731,-2.6944,-2.7205,-2.757,-2.8034,-2.7557,-2.7268,-2.7582,-2.7344,-2.719,-2.719,-2.6977,-2.6738,-2.6512,-2.6273,-2.6371,-2.6858,-2.6675,-2.7004,-2.8097,-2.8352,-2.8803,-2.9557,-2.9725,-3.0145,-3.0822,-3.051,-3.0382,-3.0492,-3.0238,-3.0223,-1.1277,-1.0022,-0.8851,-0.9043,-0.8937,-0.8852,-0.9207,-0.9364,-0.9639,-1.0117,-1.0283,-1.0402,-1.0619,-1.0694,-1.0721,-1.0721,-1.0721,-1.0721,-1.0721,-1.0555,-1.0463,-1.0544,-1.0446,-1.046,-1.0697,-1.0721,-1.0721,-1.0721,-1.1551,-1.2496,-1.342,-1.4597,-1.5661,-1.6553,-1.7324,-1.8076,-1.8725,-1.9069,-1.9575,-2.0227,-1.986,-1.9679,-1.9673,-1.9466,-1.9325,-1.9245,-1.9245,-1.9199,-1.9277,-2.0494,-2.1705,-2.2786,-2.392,-2.5038,-2.5993,-2.6015,-2.5615,-2.5116,-2.5116,-2.4548,-2.3789,-2.3789,-2.3496,-2.3091,-2.3091,-2.3091,-2.3091,-2.3091,-2.3091,-2.3091,-2.3091,-2.3266,-2.3691,-2.4893,-2.5316,-2.5729,-2.6686,-2.6641,-2.6445,-2.6479,-2.6559,-2.6737,-2.702,-2.7507,-2.7871,-2.7871,-2.7241,-2.6927,-2.7444,-2.7065,-2.6663,-2.6512,-2.6499,-2.6499,-2.6499,-2.6348,-2.6451,-2.693,-2.6821,-2.7209,-2.8265,-2.8296,-2.8668,-2.9446,-2.9405,-2.9697,-3.0353,-3.0103,-2.9983,-2.9968,-2.9789,-2.9487,-1.0105,-0.9076,-0.7934,-0.8245,-0.8604,-0.9008,-0.9306,-0.9598,-0.9852,-0.996,-1.0283,-1.0487,-1.0497,-1.0619,-1.0721,-1.0721,-1.0721,-1.0721,-1.0721,-1.047,-1.0392,-1.068,-1.0263,-1.0172,0.0,-1.0721,-1.0721,-1.0721,-1.0724,-1.1247,-1.2289,-1.335,-1.4403,-1.5438,-1.6483,-1.7711,-1.9066,-1.8491,-1.89,-2.0167,-1.9653,-1.9379,-1.9379,-1.943,-1.9205,-1.8938,-1.8938,-1.8778,-1.8628,-1.9477,-2.0465,-2.1478,-2.2971,-2.413,-2.4952,-2.5072,-2.5135,-2.5116,-2.5116,-2.4548,-2.3789,-2.3789,-2.3496,-2.3091,-2.3091,-2.3091,-2.3091,-2.3091,-2.3091,-2.3091,-2.3091,-2.3647,-2.4337,-2.5031,-2.5695,-2.6218,-2.631,-2.6572,-2.6624,-2.6026,-2.6248,-2.6524,-2.6512,-2.6977,-2.7306,-2.7306,-2.7281,-2.7457,-2.8009,-2.7595,-2.709,-2.6549,-2.6499,-2.6499,-2.6499,-2.5971,-2.5823,-2.6316,-2.5833,-2.5993,-2.7004,-2.7064,-2.7317,-2.7862,-2.8426,-2.8738,-2.8767,-2.8699,-2.8667,-2.8637,-2.8004,-2.7675,-0.9944,-0.8973,-0.7885,-0.8194,-0.853,-0.8842,-0.9042,-0.9395,-0.9724,-0.9869,-0.9774,-0.9685,-0.9784,-0.9778,-0.991,-1.0009,-1.0313,-1.0605,-1.0707,-1.0548,-1.0422,-1.0429,-1.0378,0.0,0.0,0.0,0.0,-1.0714,-1.0721,-1.1178,-1.2223,-1.3346,-1.4333,-1.5373,-1.6418,-1.749,-1.8491,-1.831,-1.8713,-1.9659,-1.9459,-1.9424,-1.9424,-1.9424,-1.9312,-1.9205,-1.9011,-1.8871,-1.8857,-1.9852,-2.0666,-2.1474,-2.3207,-2.4137,-2.4563,-2.4937,-2.4707,-2.4219,-2.4219,-2.3838,-2.3359,-2.3359,-2.3218,-2.3091,-2.3091,-2.3091,-2.3091,-2.3091,-2.3091,-2.3091,-2.3091,-2.3266,-2.3654,-2.4493,-2.4825,-2.5139,-2.566,-2.6134,-2.6375,-2.5966,-2.657,-2.712,-2.7067,-2.777,-2.8511,-2.8888,-2.7996,-2.7253,-2.7065,-2.6889,-2.67,-2.6512,-2.6499,-2.6499,-2.6499,-2.6311,-2.6569,-2.7387,-2.7268,-2.7632,-2.8694,-2.8335,-2.8396,-2.8986,-2.8365,-2.8453,-2.9292,-2.8842,-2.8607,-2.8592,-2.8368,-2.8034,-1.0015,-0.9017,-0.7953,-0.8208,-0.8492,-0.875,-0.8848,-0.9201,-0.949,-0.9635,-0.9351,-0.9137,-0.9231,-0.9229,-0.9217,-0.9319,-0.9627,-1.0052,-1.0333,-1.027,-1.0233,-1.0429,-1.0426,-1.0422,0.0,0.0,0.0,-1.0707,-1.0721,-1.0979,-1.1699,-1.3083,-1.4166,-1.4674,-1.61,-1.7328,-1.822,-1.8124,-1.852,-1.9424,-1.9424,-1.9312,-1.9212,-1.9377,-1.9199,-1.8891,-1.8804,-1.8644,-1.8521,-1.9512,-2.0286,-2.1031,-2.2558,-2.3514,-2.4039,-2.4305,-2.413,-2.3789,-2.3789,-2.3506,-2.3091,-2.3091,-2.3091,-2.3091,-2.3091,-2.3091,-2.3091,-2.3091,-2.3091,-2.3091,-2.3091,-2.3309,-2.3667,-2.4241,-2.4589,-2.4898,-2.5405,-2.6042,-2.64,-2.5966,-2.6718,-2.7319,-2.7045,-2.7745,-2.8461,-2.8837,-2.7971,-2.7218,-2.7102,-2.6914,-2.6713,-2.6512,-2.6499,-2.6555,-2.6748,-2.6748,-2.7007,-2.7586,-2.7719,-2.7968,-2.8401,-2.8151,-2.8169,-2.8565,-2.7877,-2.79,-2.8729,-2.8416,-2.8233,-2.8233,-2.8233,-2.8128,-1.0288,-0.9231,-0.8025,-0.8221,-0.8479,-0.8737,-0.8828,-0.9032,-0.9238,-0.9327,-0.9119,-0.8936,0.0,0.0,-0.8701,-0.8638,-0.8806,-0.917,-0.9696,-0.9715,-0.9926,0.0,0.0,0.0,0.0,0.0,0.0,-1.0711,0.0,-1.0721,-1.0721,-1.2684,-1.3709,-1.3512,-1.5488,-1.715,-1.8245,-1.804,-1.838,-1.9424,-1.9424,-1.9212,-1.8931,-1.9219,-1.8878,-1.8029,-1.8337,-1.8171,-1.774,-1.8485,-1.9302,-2.02,-2.1163,-2.2301,-2.3391,-2.3176,-2.3374,-2.3715,-2.376,-2.3486,-2.3091,-2.3091,-2.3091,-2.3091,-2.3091,-2.3091,-2.3091,-2.3091,-2.3091,-2.3091,-2.3091,-2.3604,-2.4171,-2.4366,-2.4865,-2.5327,-2.5515,-2.6217,-2.6673,-2.6038,-2.6659,-2.7115,-2.6612,-2.6952,-2.7291,-2.7318,-2.7268,-2.7419,-2.7908,-2.7519,-2.7014,-2.6461,-2.6411,-2.6603,-2.7072,-2.7105,-2.7098,-2.7018,-2.7248,-2.71,-2.6426,-2.6635,-2.6753,-2.6779,-2.7052,-2.7207,-2.7233,-2.7473,-2.76,-2.76,-2.76,-2.7944,-1.0087,-0.9088,-0.7998,-0.8039,-0.8319,-0.855,-0.8587,-0.8804,-0.8946,-0.8756,-0.8207,-0.7741,0.0,0.0,0.0,-0.8533,-0.9332,0.0,-1.0384,-1.0421,0.0,-1.0548,0.0,-1.0595,-1.0555,-1.0619,0.0,0.0,-1.0721,-1.0721,-1.0721,-1.1853,-1.2863,-1.3508,-1.4707,-1.6207,-1.7907,-1.8663,-1.9141,-1.9424,-1.9424,-1.9212,-1.8925,-1.8998,-1.8798,-1.8357,-1.7976,-1.8041,-1.844,-1.8875,-1.9479,-2.0327,-2.1536,-2.2046,-2.2155,-2.2868,-2.2957,-2.2824,-2.3169,-2.3188,-2.3091,-2.3091,-2.3091,-2.3091,-2.3091,-2.3091,-2.3091,-2.3091,-2.3091,-2.3091,-2.3091,-2.3222,-2.3537,-2.4241,-2.4252,-2.4501,-2.5811,-2.6007,-2.6042,-2.6346,-2.6561,-2.6788,-2.7065,-2.6889,-2.6989,-2.777,-2.7228,-2.66,-2.6276,-2.6113,-2.5824,-2.5297,-2.5234,-2.5418,-2.591,-2.5929,-2.6306,-2.7232,-2.7367,-2.7579,-2.7993,-2.7641,-2.7542,-2.7756,-2.7391,-2.731,-2.7499,-2.7575,-2.76,-2.76,-2.76,-2.769,-1.0136,-0.9098,-0.7988,-0.7988,-0.8214,-0.837,-0.8203,-0.8315,-0.8371,-0.8103,-0.7561,-0.7125,-0.7183,-0.7454,-0.7709,0.0,0.0,0.0,-1.0102,-1.0245,-1.0407,0.0,-1.0666,0.0,-1.0602,-1.067,-1.0721,0.0,-1.0721,-1.069,-1.0622,-1.1579,-1.2419,-1.3195,-1.4218,-1.5655,-1.7643,-1.8797,-1.9424,-1.9424,-1.9424,-1.9145,-1.8738,-1.8865,-1.8617,-1.8076,0.0,-1.7928,-1.8546,-1.8937,-1.9511,-2.0297,-2.1242,-2.1748,-2.1942,-2.2362,-2.2596,-2.274,-2.3003,-2.3091,-2.3091,-2.3091,-2.3091,-2.3091,-2.3091,-2.3091,-2.3091,-2.3091,-2.3091,-2.3091,-2.3091,-2.3091,-2.3321,-2.42,-2.4182,-2.4327,-2.5429,-2.5932,-2.6308,-2.6806,-2.6689,-2.66,-2.6901,-2.67,-2.67,-2.7329,-2.6889,-2.6197,-2.536,-2.546,-2.5398,-2.4838,-2.4788,-2.5097,-2.5798,-2.5847,-2.6235,-2.708,-2.7384,-2.7598,-2.7757,-2.7691,-2.7712,-2.7895,-2.7565,-2.7448,-2.76,-2.76,-2.76,-2.76,-2.76,-2.7764,-1.0364,-0.9225,-0.7988,-0.7988,-0.8157,-0.818,-0.7782,-0.7803,-0.7795,-0.7473,-0.7125,-0.6879,-0.6992,-0.722,-0.7424,-0.7467,0.0,-0.8957,-0.9455,-0.9758,-1.008,-1.0621,-1.0721,-1.0711,-1.0694,-1.069,-1.068,-1.0663,-1.0663,-1.0612,-1.0497,-1.1357,-1.2143,-1.2847,-1.4126,-1.5675,-1.7485,-1.8661,-1.9307,-1.9424,-1.9325,-1.9018,-1.8497,-1.8711,-1.8357,-1.7582,0.0,0.0,-1.8289,-1.875,-1.9378,-2.0143,-2.0636,-2.1344,-2.2108,-2.1824,-2.2264,-2.3013,-2.3091,-2.3091,-2.3091,-2.3091,-2.3091,-2.3091,-2.3091,-2.3091,-2.3091,-2.3091,-2.3091,-2.3091,-2.3091,-2.3091,-2.3341,-2.4284,-2.4414,-2.4492,-2.5051,-2.6066,-2.6919,-2.7067,-2.6791,-2.6499,-2.6499,-2.6499,-2.6499,-2.6499,-2.6424,-2.6009,-2.4958,-2.5222,-2.5292,-2.4721,-2.4658,-2.5089,-2.6068,-2.6189,-2.6367,-2.6764,-2.7319,-2.7399,-2.6829,-2.7331,-2.76,-2.76,-2.76,-2.76,-2.76,-2.76,-2.76,-2.76,-2.76,-2.7914,-1.0404,-0.9225,-0.7988,-0.7988,-0.8157,-0.818,-0.7782,-0.7803,-0.7715,-0.7151,-0.6706,-0.6495,-0.6517,-0.6774,-0.7248,-0.8097,-0.872,-0.9418,-1.0176,-1.0354,-1.0456,0.0,-1.0721,-1.067,-1.0544,-1.0531,0.0,0.0,0.0,-1.0395,-1.0487,-1.0386,-1.1093,-1.2651,-1.4984,-1.6583,-1.7479,-1.8188,-1.8829,-1.9424,-1.9118,-1.8818,-1.8484,-1.8235,-1.7976,-1.7555,0.0,0.0,-1.7896,-1.818,-1.8722,-1.9458,-2.0137,-2.075,-2.1266,-2.158,-2.2043,-2.2574,-2.2969,-2.3091,-2.3091,-2.3091,-2.3091,-2.3091,-2.3091,-2.3091,-2.3091,-2.3091,-2.3091,-2.3091,-2.3091,-2.3091,-2.342,-2.4745,-2.4436,-2.4327,-2.6235,-2.6641,-2.6552,-2.6214,-2.6355,-2.6499,-2.6499,-2.6499,-2.6499,-2.6499,-2.6084,-2.5523,-2.4863,-2.4863,-2.4684,-2.4047,-2.3962,-2.4347,-2.5303,-2.5589,-2.6022,-2.6697,-2.7068,-2.7336,-2.7448,-2.7534,-2.76,-2.76,-2.76,-2.76,-2.76,-2.76,-2.76,-2.76,-2.76,-2.766,-1.09,-0.9521,-0.8088,-0.8531,-0.8392,-0.7989,-0.7427,-0.7383,-0.7291,-0.6623,-0.6404,-0.6366,-0.6376,-0.6792,-0.7284,-0.7741,-0.8565,-0.9284,-0.9833,-1.022,-1.0466,-1.0694,-1.0649,-1.0571,0.0,-1.0426,0.0,0.0,0.0,0.0,-1.0259,-1.098,-1.1963,-1.3195,-1.5693,-1.7303,-1.7954,-1.8449,-1.8845,-1.9132,-1.8838,-1.8544,-1.8257,-1.8055,-1.7796,-1.7387,-1.6894,0.0,-1.7609,-1.7523,-1.821,-1.9234,-1.96,-2.0229,-2.1042,-2.1553,-2.1998,-2.2485,-2.2916,-2.3091,-2.3062,-2.2838,-2.2769,-2.2769,-2.2769,-2.2769,-2.2769,-2.2769,-2.2925,-2.3091,-2.3091,-2.3396,-2.395,-2.4946,-2.512,-2.531,-2.632,-2.6372,-2.6241,-2.6238,-2.6361,-2.6499,-2.6499,-2.6499,-2.6386,-2.6084,-2.5774,-2.531,-2.4494,-2.4393,-2.4161,-2.3501,-2.3666,-2.415,-2.4979,-2.5398,-2.5906,-2.6642,-2.7011,-2.7258,-2.7372,-2.7524,-2.76,-2.76,-2.76,-2.76,-2.76,-2.76,-2.76,-2.76,-2.76,-2.76,-1.1491,-1.0169,-0.8731,-0.9176,-0.8752,-0.8009,-0.7095,-0.7014,-0.6937,-0.6256,-0.6203,-0.6331,-0.6371,-0.6796,-0.7157,-0.7264,-0.8057,-0.881,-0.9299,-0.9764,-1.023,0.0,-1.0548,0.0,-1.0402,-1.0297,0.0,0.0,0.0,0.0,-0.9936,-1.1712,-1.3015,-1.3665,-1.6048,-1.7655,-1.8421,-1.8607,-1.8748,-1.8918,-1.8564,-1.827,-1.7989,-1.7862,-1.7595,-1.7186,-1.6767,0.0,0.0,-1.7025,-1.7792,-1.8958,-1.9142,-1.9957,-2.1042,-2.141,-2.1909,-2.2441,-2.2828,-2.3013,-2.3042,-2.2711,-2.2588,-2.251,-2.251,-2.251,-2.2529,-2.2617,-2.2838,-2.3071,-2.2984,-2.3457,-2.4114,-2.4735,-2.5571,-2.6188,-2.5972,-2.5993,-2.6107,-2.643,-2.6499,-2.6499,-2.6499,-2.6499,-2.6298,-2.5686,-2.5498,-2.5084,-2.4117,-2.3891,-2.3671,-2.3296,-2.3666,-2.4253,-2.5036,-2.555,-2.6095,-2.6642,-2.7063,-2.7284,-2.7284,-2.7499,-2.76,-2.76,-2.76,-2.76,-2.76,-2.76,-2.76,-2.76,-2.76,-2.76,-1.1865,-1.1217,-1.0365,-0.9712,-0.9338,-0.8686,-0.7235,-0.7036,-0.6999,-0.6227,-0.6263,-0.6373,-0.6384,-0.6456,-0.6644,-0.7235,-0.7367,-0.7883,-0.9049,-0.9398,-0.9672,-1.0283,0.0,0.0,-1.0054,0.0,0.0,0.0,0.0,0.0,0.0,-1.1643,-1.3015,-1.3665,-1.558,-1.7185,-1.8421,-1.8199,-1.835,-1.8918,-1.8302,-1.8015,-1.7975,-1.7482,-1.7253,-1.7166,0.0,0.0,0.0,-1.6843,-1.7466,-1.8265,-1.8958,-1.9957,-2.0997,-2.1042,-2.1624,-2.2397,-2.2441,-2.274,-2.3091,-2.3052,-2.2779,-2.251,-2.251,-2.251,-2.2598,-2.2925,-2.3062,-2.3013,-2.2666,-2.2895,-2.3318,-2.376,-2.5011,-2.5985,-2.5469,-2.5923,-2.6465,-2.6499,-2.6499,-2.6499,-2.6499,-2.6499,-2.6298,-2.5686,-2.5197,-2.4669,-2.4079,-2.3509,-2.3326,-2.3695,-2.4163,-2.4794,-2.5715,-2.6297,-2.6616,-2.6709,-2.7229,-2.7575,-2.7575,-2.76,-2.76,-2.76,-2.76,-2.76,-2.76,-2.76,-2.76,-2.76,-2.76,-2.76,-1.2492,-1.1839,-1.1019,-1.1182,-1.0125,-0.8856,-0.8003,-0.7327,-0.6726,-0.6214,-0.6271,-0.6387,-0.6387,-0.6387,-0.6467,-0.6717,0.0,0.0,-0.8106,-0.8454,-0.8883,-0.9643,-0.9728,0.0,0.0,0.0,0.0,0.0,0.0,0.0,0.0,-1.1607,-1.2948,-1.4236,-1.5954,-1.7223,-1.7906,-1.8149,-1.8348,-1.8335,-1.7969,-1.7769,-1.7756,-1.7393,-1.7105,-1.686,0.0,0.0,0.0,-1.6718,-1.7419,-1.8179,-1.8912,-1.9783,-2.06,-2.0907,-2.141,-2.1998,-2.2309,-2.2696,-2.3052,-2.2799,-2.2646,-2.251,-2.251,-2.251,-2.249,-2.2412,-2.2711,-2.3022,-2.2757,-2.3392,-2.4117,-2.4371,-2.5261,-2.5961,-2.5432,-2.5921,-2.6499,-2.6499,-2.6499,-2.6386,-2.6034,-2.5971,-2.5649,-2.477,-2.4456,-2.4117,-2.3521,-2.3504,-2.3695,-2.415,-2.4394,-2.4908,-2.5947,-2.6431,-2.6852,-2.7229,-2.7473,-2.76,-2.76,-2.76,-2.76,-2.76,-2.76,-2.76,-2.76,-2.76,-2.76,-2.76,-2.76,-2.76,-1.2937,-1.241,-1.1765,-1.2081,-1.0752,-0.9202,-0.8497,-0.7517,-0.6677,-0.6252,-0.6298,-0.6387,-0.6387,-0.6387,-0.6387,0.0,0.0,-0.7016,-0.7375,-0.7741,-0.8199,-0.8918,0.0,0.0,0.0,0.0,0.0,0.0,0.0,0.0,0.0,-1.1636,-1.2762,-1.4525,-1.6155,-1.7152,-1.7625,-1.8114,-1.821,-1.7856,-1.7602,-1.7408,-1.7315,-1.7072,-1.6824,-1.656,0.0,0.0,0.0,-1.6669,-1.7419,-1.8179,-1.8912,-1.9646,-2.0382,-2.0817,-2.132,-2.1776,-2.2264,-2.2696,-2.3042,-2.275,-2.2617,-2.251,-2.251,-2.2432,-2.2266,-2.1973,-2.2343,-2.279,-2.2808,-2.3544,-2.4326,-2.4544,-2.5253,-2.5757,-2.5396,-2.5921,-2.6499,-2.6499,-2.6499,-2.6311,-2.5699,-2.5598,-2.5234,-2.4155,-2.4004,-2.3791,-2.3183,-2.3382,-2.3842,-2.4423,-2.4553,-2.5035,-2.6068,-2.659,-2.7023,-2.7448,-2.7575,-2.751,-2.7315,-2.7495,-2.751,-2.7315,-2.7495,-2.76,-2.76,-2.76,-2.76,-2.76,-2.76,-2.76,-1.3086,-1.3079,-1.2909,-1.2099,-1.1042,-0.9827,-0.8531,-0.7572,-0.6851,-0.6411,-0.6358,-0.6387,-0.6387,-0.6387,-0.6387,-0.6387,-0.6387,0.0,-0.7238,-0.744,-0.7683,0.0,0.0,0.0,0.0,0.0,0.0,0.0,0.0,0.0,0.0,-1.1779,-1.2469,-1.4349,-1.589,-1.7005,-1.7563,-1.7856,-1.7896,-1.7582,-1.7347,-1.7052,-1.6707,-1.6413,-1.6328,0.0,0.0,0.0,0.0,-1.6669,-1.7419,-1.8179,-1.8912,-1.9646,-2.0382,-2.0817,-2.132,-2.1776,-2.2264,-2.2696,-2.3091,-2.3091,-2.2808,-2.251,-2.251,-2.2217,-2.1894,-2.1885,-2.2009,-2.2198,-2.2686,-2.3076,-2.3431,-2.3819,-2.4632,-2.5312,-2.5312,-2.5921,-2.6499,-2.6499,-2.6499,-2.6311,-2.5699,-2.5598,-2.5234,-2.4155,-2.4004,-2.3791,-2.3183,-2.3108,-2.3442,-2.4394,-2.4739,-2.5287,-2.6229,-2.6841,-2.7207,-2.7207,-2.7448,-2.73,-2.6632,-2.7255,-2.7285,-2.6617,-2.727,-2.76,-2.76,-2.76,-2.76,-2.76,-2.76,-2.76,-1.3324,-1.3373,-1.3347,-1.3268,-1.2148,-1.0745,-0.9771,-0.8508,-0.7369,-0.67,-0.6503,-0.6387,-0.6387,-0.6387,-0.6387,-0.6387,-0.6387,0.0,0.0,0.0,0.0,-0.802,-0.8791,0.0,0.0,0.0,0.0,0.0,0.0,0.0,0.0,-1.1309,-1.2217,-1.4399,-1.5574,-1.6247,-1.6464,-1.71,-1.7434,-1.7333,-1.6987,-1.68,-1.6693,-1.6406,0.0,0.0,0.0,0.0,0.0,-1.7192,-1.7893,-1.8218,-1.9463,-2.0102,-2.0337,-2.0464,-2.1006,-2.1695,-2.1577,-2.2049,-2.2623,-2.2373,-2.2197,-2.2031,-2.1728,-2.1758,-2.1885,-2.1885,-2.179,-2.1779,-2.2218,-2.2821,-2.3405,-2.3798,-2.462,-2.5382,-2.5653,-2.6141,-2.6499,-2.6499,-2.6172,-2.5699,-2.5159,-2.4757,-2.4255,-2.3496,-2.3384,-2.3308,-2.3133,-2.3649,-2.4176,-2.4452,-2.5467,-2.6242,-2.6537,-2.6959,-2.7284,-2.7473,-2.7549,-2.7495,-2.7285,-2.748,-2.7495,-2.7285,-2.748,-2.76,-2.76,-2.76,-2.76,-2.76,-2.76,-2.76,-1.3472,-1.3428,-1.3413,-1.3574,-1.2516,-1.1284,-1.0721,-0.9223,-0.7818,-0.7293,-0.6781,-0.6387,-0.6387,-0.6387,-0.6387,-0.6387,-0.6387,-0.6453,0.0,0.0,0.0,-0.7944,0.0,0.0,0.0,0.0,0.0,0.0,0.0,0.0,0.0,0.0,-1.1944,-1.4067,-1.51,-1.5596,-1.5596,-1.6562,-1.6978,-1.6871,-1.6633,-1.6486,-1.6366,-1.6192,0.0,0.0,0.0,0.0,0.0,-1.7145,-1.7846,-1.821,-1.9261,-1.9844,-2.0069,-2.0137,-2.0615,-2.1245,-2.1142,-2.1622,-2.2236,-2.1973,-2.1777,-2.1553,-2.1113,-2.1172,-2.1427,-2.1427,-2.1431,-2.1573,-2.181,-2.2577,-2.3409,-2.3815,-2.4459,-2.5128,-2.5499,-2.575,-2.5871,-2.5871,-2.5548,-2.5134,-2.4607,-2.423,-2.3803,-2.3195,-2.3108,-2.3108,-2.3108,-2.3754,-2.4323,-2.4639,-2.5755,-2.659,-2.6867,-2.7167,-2.7423,-2.76,-2.76,-2.748,-2.724,-2.7465,-2.748,-2.7225,-2.7465,-2.76,-2.76,-2.76,-2.76,-2.76,-2.76,-2.76,0.0,-1.3339,-1.3076,-1.3141,-1.2299,-1.1426,-1.1181,-0.9668,0.0,-0.7994,-0.7132,-0.6437,-0.6387,-0.6387,-0.6387,-0.6387,-0.6387,-0.6581,0.0,-0.7273,0.0,0.0,0.0,0.0,0.0,0.0,0.0,0.0,0.0,0.0,0.0,0.0,-1.1775,-1.3375,-1.4496,-1.5071,-1.5107,-1.6116,-1.652,-1.6321,-1.6301,-1.6092,-1.5784,-1.5784,0.0,0.0,0.0,0.0,0.0,-1.6669,-1.7404,-1.811,-1.8451,-1.9037,-1.9702,-1.9806,-2.0141,-2.0554,-2.0977,-2.1444,-2.1836,-2.1797,-2.1514,-2.1064,-2.0654,-2.0556,-2.0566,-2.0595,-2.0972,-2.1385,-2.1492,-2.2344,-2.3316,-2.377,-2.4167,-2.4572,-2.5004,-2.4921,-2.4788,-2.4788,-2.4763,-2.4562,-2.4092,-2.3966,-2.3753,-2.3183,-2.3108,-2.3108,-2.3155,-2.3547,-2.4137,-2.4825,-2.5631,-2.6373,-2.7089,-2.7423,-2.76,-2.76,-2.76,-2.733,-2.6692,-2.727,-2.7315,-2.6677,-2.7285,-2.76,-2.76,-2.76,-2.76,-2.76,-2.76,-2.76,-1.4094,0.0,-1.314,-1.3343,-1.2909,-1.2157,0.0,-1.007,-0.9162,-0.7673,-0.7039,-0.6639,-0.6437,-0.6387,-0.6387,-0.6387,-0.6387,-0.6581,-0.7021,0.0,0.0,-0.8977,0.0,0.0,0.0,0.0,0.0,0.0,0.0,0.0,0.0,0.0,-1.1934,-1.2931,-1.3955,-1.4684,-1.5107,-1.5729,-1.6119,-1.6321,-1.6046,-1.5899,-1.5784,-1.5784,0.0,0.0,0.0,0.0,-1.5872,-1.6669,-1.7265,-1.772,-1.8356,-1.888,-1.9342,-1.9333,-1.9844,-2.0475,-2.0255,-2.0727,-2.1288,-2.1026,-2.084,-2.0644,-2.0205,-2.0068,-2.0137,-2.0507,-2.0437,-2.045,-2.1296,-2.1753,-2.2266,-2.3404,-2.3766,-2.4062,-2.4747,-2.4811,-2.4788,-2.4788,-2.4481,-2.4155,-2.4017,-2.3627,-2.3258,-2.312,-2.3108,-2.3245,-2.3577,-2.4047,-2.4538,-2.5062,-2.5565,-2.6124,-2.6771,-2.7306,-2.76,-2.76,-2.76,-2.7525,-2.7375,-2.751,-2.7525,-2.736,-2.7525,-2.76,-2.76,-2.76,-2.76,-2.76,-2.76,-2.76,-1.4298,-1.3909,-1.3458,-1.3505,-1.3201,-1.271,-1.1731,-1.0743,-0.9653,-0.852,-0.7487,-0.6742,-0.6437,-0.6433,-0.647,-0.647,-0.6669,0.0,0.0,0.0,-0.8559,0.0,0.0,0.0,0.0,0.0,0.0,0.0,0.0,0.0,0.0,0.0,-1.198,-1.2764,-1.3769,-1.4437,-1.4733,-1.5457,-1.5912,-1.6066,-1.5905,-1.5784,-1.5784,-1.5784,0.0,0.0,0.0,0.0,-1.5678,-1.6411,-1.6961,-1.736,-1.791,-1.8425,-1.8888,-1.8716,-1.9188,-1.9934,-1.9714,-2.004,-2.0557,-2.0117,-2.0018,-2.0008,-1.9932,-1.9602,-1.9414,-1.9853,-1.9991,-2.0122,-2.0707,-2.1272,-2.192,-2.2786,-2.3169,-2.3506,-2.408,-2.4116,-2.401,-2.401,-2.3772,-2.3602,-2.3602,-2.3308,-2.3108,-2.3108,-2.3275,-2.3518,-2.3771,-2.4394,-2.4978,-2.5342,-2.5879,-2.6283,-2.6455,-2.6886,-2.727,-2.757,-2.76,-2.76,-2.76,-2.73,-2.7151,-2.7151,-2.7435,-2.76,-2.76,-2.76,-2.76,-2.76,-2.76,-2.77,-1.4298,-1.4142,-1.3887,-1.3647,-1.3346,-1.305,-1.2759,-1.1429,-1.01,-0.9608,-0.8226,-0.7039,-0.6736,-0.6673,0.0,0.0,0.0,0.0,-0.7994,-0.8086,0.0,0.0,0.0,0.0,0.0,0.0,0.0,0.0,0.0,0.0,0.0,0.0,0.0,-1.2861,-1.3817,-1.4346,-1.4442,-1.535,-1.5784,-1.5784,-1.5784,-1.5784,-1.5784,-1.5784,0.0,0.0,0.0,0.0,-1.5377,-1.6057,-1.6587,-1.7044,-1.735,-1.7921,-1.8459,-1.8083,-1.8466,-1.921,-1.9367,-1.9563,-1.9775,-1.9473,-1.9336,-1.9346,-1.9629,-1.9221,-1.8763,-1.9102,-1.9577,-2.0017,-2.0196,-2.0935,-2.1807,-2.2378,-2.2667,-2.2954,-2.3464,-2.3325,-2.3108,-2.3108,-2.3108,-2.3108,-2.3108,-2.3108,-2.3108,-2.3108,-2.3442,-2.3741,-2.3888,-2.4595,-2.5203,-2.552,-2.6054,-2.6305,-2.6056,-2.6217,-2.6572,-2.7255,-2.739,-2.745,-2.745,-2.7001,-2.6692,-2.6587,-2.727,-2.76,-2.76,-2.76,-2.754,-2.745,-2.754,-2.7715,-1.4346,-1.4279,-1.4152,-1.3887,-1.3491,-1.2953,-1.2273,-1.1731,-1.0895,-0.9266,-0.8676,-0.8428,-0.8134,-0.7356,-0.7006,0.0,0.0,-0.8143,0.0,0.0,0.0,0.0,0.0,0.0,0.0,0.0,0.0,0.0,0.0,0.0,0.0,0.0,0.0,-1.3394,-1.3968,-1.4544,-1.4981,-1.5499,-1.5784,-1.5784,-1.5784,-1.5784,-1.5784,-1.5784,-1.5698,0.0,0.0,-1.5297,-1.512,-1.5735,-1.6199,-1.6664,-1.7254,-1.773,-1.8034,-1.7697,-1.8099,-1.8874,-1.9554,-1.9624,-1.9434,-1.9727,-1.958,-1.9228,-1.889,-1.8968,-1.9121,-1.8783,-1.9083,-1.9725,-2.0635,-2.0978,-2.1531,-2.3119,-2.2874,-2.2613,-2.3673,-2.3478,-2.3108,-2.3108,-2.3108,-2.3108,-2.3108,-2.3108,-2.3108,-2.3108,-2.3155,-2.3501,-2.4279,-2.4509,-2.4802,-2.5279,-2.5178,-2.5169,-2.5325,-2.507,-2.5187,-2.5869,-2.6437,-2.6761,-2.6761,-2.721,-2.718,-2.6602,-2.727,-2.76,-2.76,-2.76,-2.7315,-2.6776,-2.7345,-2.7325,-1.4481,-1.4469,-1.4478,-1.455,-1.4039,-1.3396,-1.2896,-1.2293,-1.1503,-1.0454,-0.9482,-0.8752,0.0,0.0,-0.7657,-0.8429,0.0,0.0,0.0,0.0,0.0,0.0,0.0,0.0,0.0,0.0,0.0,0.0,0.0,0.0,0.0,0.0,0.0,0.0,-1.4112,-1.4593,-1.4841,-1.5206,-1.5518,-1.5778,-1.5671,-1.5591,-1.5591,-1.5431,-1.5291,-1.5164,0.0,-1.4997,-1.4767,-1.542,-1.5913,-1.6362,-1.7002,-1.7565,-1.7989,-1.7878,-1.8071,-1.8414,-1.8794,-1.8921,-1.8936,-1.8896,-1.876,-1.8603,-1.8588,-1.8744,-1.8932,-1.9008,-1.9634,-2.0362,-2.0854,-2.1454,-2.2173,-2.3177,-2.2985,-2.2793,-2.3553,-2.3386,-2.3108,-2.3108,-2.3108,-2.3108,-2.3108,-2.3108,-2.3108,-2.3108,-2.3531,-2.4018,-2.4452,-2.495,-2.5273,-2.5296,-2.5329,-2.5169,-2.4693,-2.4609,-2.5038,-2.6078,-2.6093,-2.6213,-2.6572,-2.6911,-2.6926,-2.6626,-2.727,-2.76,-2.76,-2.76,-2.7435,-2.7151,-2.7465,-2.756,-1.4504,-1.4564,-1.4662,-1.493,-1.4471,-1.3965,-1.3878,-1.3065,-1.2179,-1.1827,-1.0622,0.0,0.0,-0.8622,0.0,-0.8593,0.0,0.0,0.0,0.0,0.0,0.0,0.0,0.0,0.0,0.0,0.0,0.0,0.0,0.0,0.0,0.0,0.0,0.0,-1.4237,-1.4646,-1.4674,-1.4889,-1.519,-1.5625,-1.5398,-1.5297,-1.5291,-1.5109,-1.4975,-1.4863,-1.4863,-1.4689,-1.4459,-1.5148,-1.567,-1.618,-1.6837,-1.7407,-1.79,-1.7951,-1.8026,-1.8101,-1.8111,-1.8325,-1.8549,-1.8227,-1.8086,-1.8076,-1.8354,-1.852,-1.8703,-1.9089,-2.0069,-2.097,-2.0885,-2.1586,-2.2486,-2.3024,-2.2953,-2.2906,-2.3484,-2.3325,-2.3108,-2.3108,-2.3108,-2.3108,-2.3108,-2.3108,-2.3108,-2.3108,-2.3826,-2.4366,-2.4481,-2.5203,-2.5557,-2.5149,-2.5373,-2.5165,-2.4138,-2.4238,-2.4859,-2.6063,-2.5809,-2.5764,-2.6123,-2.6422,-2.6437,-2.6138,-2.7106,-2.7525,-2.736,-2.7525,-2.7525,-2.7375,-2.7525,-2.7735,-1.4488,-1.4412,-1.4609,-1.4627,-1.4472,-1.4405,-1.4883,-1.4151,-1.3227,-1.2626,-1.2281,0.0,0.0,-0.9777,-0.886,-0.8075,0.0,0.0,0.0,0.0,0.0,0.0,0.0,0.0,0.0,0.0,0.0,0.0,0.0,0.0,0.0,0.0,0.0,0.0,0.0,-1.4701,-1.4952,-1.497,-1.5028,-1.5068,-1.5048,-1.5042,-1.5035,-1.5022,-1.481,-1.4556,-1.4556,-1.4389,-1.4164,-1.4832,-1.5514,-1.6173,-1.6788,-1.7201,-1.7544,-1.7556,-1.7792,-1.8101,-1.8111,-1.8325,-1.8598,-1.8568,-1.8295,-1.8018,-1.8047,-1.8295,-1.8598,-1.8633,-1.9788,-2.0914,-2.0534,-2.0865,-2.1612,-2.2743,-2.2606,-2.2565,-2.3735,-2.3509,-2.3108,-2.3108,-2.3108,-2.3108,-2.3108,-2.3108,-2.3108,-2.3108,-2.3531,-2.4005,-2.4452,-2.4935,-2.5038,-2.4511,-2.4696,-2.4551,-2.3709,-2.3648,-2.3984,-2.4694,-2.5277,-2.5337,-2.4769,-2.5944,-2.6019,-2.4769,-2.6617,-2.73,-2.6662,-2.73,-2.7285,-2.6701,-2.7315,-2.7469,-1.4585,-1.4624,-1.487,-1.5045,-1.5079,-1.5136,-1.5517,-1.4729,-1.3966,-1.3986,-1.3329,0.0,0.0,0.0,-0.892,0.0,0.0,0.0,0.0,0.0,0.0,0.0,0.0,0.0,0.0,0.0,0.0,0.0,0.0,0.0,0.0,0.0,0.0,0.0,0.0,-1.4568,-1.4689,-1.4509,-1.4329,-1.4148,-1.4329,-1.4422,-1.4409,-1.4229,-1.4039,-1.3946,-1.4168,-1.4188,-1.413,-1.4377,-1.4873,-1.5553,-1.6363,-1.6721,-1.6785,-1.7046,-1.7207,-1.7401,-1.764,-1.7941,-1.8217,-1.8217,-1.81,-1.8008,-1.8008,-1.8266,-1.8619,-1.869,-1.9586,-2.0541,-2.0741,-2.161,-2.2608,-2.329,-2.3188,-2.3222,-2.4254,-2.376,-2.3208,-2.3602,-2.3358,-2.3108,-2.3108,-2.3108,-2.3108,-2.3108,-2.3767,-2.4308,-2.4481,-2.4832,-2.5122,-2.525,-2.4911,-2.4385,-2.3663,-2.3595,-2.3714,-2.3947,-2.4223,-2.4627,-2.5187,-2.5307,-2.5307,-2.5217,-2.5974,-2.6437,-2.6587,-2.6437,-2.6793,-2.7595,-2.7443,-2.762,-1.5476,-1.5453,-1.5635,-1.5705,-1.5678,-1.5732,-1.6185,-1.5357,-1.4569,-1.5015,-1.3718,-1.2116,-1.0812,0.0,0.0,0.0,0.0,0.0,0.0,0.0,0.0,0.0,0.0,0.0,0.0,0.0,0.0,0.0,0.0,0.0,0.0,0.0,0.0,0.0,0.0,0.0,-1.4382,-1.4095,-1.3841,-1.36,-1.3654,-1.3714,-1.3801,-1.3601,-1.3467,-1.348,-1.3721,-1.3861,-1.3948,-1.3948,-1.4441,-1.5315,-1.6261,-1.6559,-1.6553,-1.6949,-1.718,-1.7327,-1.7602,-1.7902,-1.8184,-1.8057,-1.8008,-1.8008,-1.8008,-1.8178,-1.8448,-1.8528,-1.9259,-2.0113,-2.0466,-2.1565,-2.2688,-2.3114,-2.3127,-2.3254,-2.4079,-2.3647,-2.3221,-2.3653,-2.3371,-2.3108,-2.3108,-2.3108,-2.3045,-2.2869,-2.3641,-2.4148,-2.399,-2.446,-2.4935,-2.5251,-2.464,-2.403,-2.364,-2.3595,-2.3595,-2.3595,-2.3595,-2.4014,-2.4941,-2.4724,-2.4709,-2.4971,-2.5367,-2.5734,-2.5974,-2.5929,-2.6522,-2.768,-2.7557,-2.7927,-1.7215,-1.6887,-1.6813,-1.6555,-1.619,-1.6117,-1.7007,-1.6052,-1.5123,-1.5612,-1.3481,-1.138,-1.1003,-0.9584,0.0,0.0,0.0,0.0,0.0,0.0,0.0,0.0,0.0,0.0,0.0,0.0,0.0,0.0,0.0,0.0,0.0,0.0,0.0,0.0,0.0,0.0,-1.4088,-1.3746,-1.3593,-1.3586,-1.3065,-1.2945,-1.3206,-1.3206,-1.3206,-1.3206,-1.3213,-1.3333,-1.36,-1.3606,-1.436,-1.561,-1.6519,-1.6872,-1.6948,-1.7327,-1.7738,-1.8092,-1.8101,-1.8315,-1.8529,-1.8144,-1.8008,-1.8008,-1.8008,-1.8008,-1.8008,-1.8008,-1.8774,-1.9605,-1.9605,-2.0388,-2.136,-2.203,-2.2197,-2.2371,-2.3,-2.3108,-2.3108,-2.3108,-2.3108,-2.3108,-2.3108,-2.3095,-2.2907,-2.2397,-2.3028,-2.3403,-2.2871,-2.3742,-2.4355,-2.42,-2.3658,-2.3385,-2.3573,-2.3595,-2.3595,-2.3595,-2.3595,-2.3595,-2.3595,-2.4231,-2.4276,-2.361,-2.4911,-2.5247,-2.4605,-2.5929,-2.6572,-2.6626,-2.768,-2.8359,-1.7087,-1.6803,-1.673,-1.644,-1.6437,-1.6587,-1.68,-1.6177,-1.5557,0.0,-1.3891,-1.2462,-1.2144,0.0,0.0,0.0,0.0,0.0,0.0,0.0,0.0,0.0,0.0,0.0,0.0,0.0,0.0,0.0,0.0,0.0,0.0,0.0,0.0,0.0,0.0,0.0,-1.3733,-1.3447,-1.3227,-1.3052,-1.2871,-1.2837,-1.2924,-1.2924,-1.2924,-1.2945,-1.3333,-1.3527,-1.3641,-1.4042,-1.4587,-1.5125,-1.5632,-1.595,-1.6203,-1.683,-1.7141,-1.7344,-1.7862,-1.809,-1.8174,-1.8047,-1.8008,-1.8008,-1.8008,-1.8008,-1.8008,-1.8008,-1.8516,-1.9108,-1.9506,-2.0118,-2.088,-2.1968,-2.2512,-2.3008,-2.3591,-2.3396,-2.3233,-2.3665,-2.3384,-2.3108,-2.3108,-2.2782,-2.2468,-2.2305,-2.2719,-2.303,-2.3025,-2.4007,-2.4327,-2.3387,-2.3836,-2.4045,-2.364,-2.3595,-2.3595,-2.3595,-2.3595,-2.3595,-2.3595,-2.3789,-2.3804,-2.3595,-2.3984,-2.4343,-2.4605,-2.4537,-2.513,-2.6313,-2.6153,-2.6922,-1.8322,-1.7997,-1.7731,-1.7511,-1.7323,-1.7092,-1.6776,0.0,0.0,0.0,-1.4431,-1.334,-1.282,0.0,0.0,0.0,0.0,0.0,0.0,0.0,0.0,0.0,0.0,0.0,0.0,0.0,0.0,0.0,0.0,0.0,0.0,0.0,0.0,0.0,0.0,0.0,-1.3427,-1.3173,-1.2971,-1.2784,-1.2663,-1.2603,-1.2603,-1.2603,-1.2603,-1.2643,-1.3213,-1.336,-1.3333,-1.428,-1.4687,-1.4813,-1.5336,-1.5663,-1.5928,-1.6801,-1.7037,-1.7031,-1.7918,-1.812,-1.8008,-1.8008,-1.8008,-1.8008,-1.8008,-1.8008,-1.8008,-1.8008,-1.8539,-1.9208,-1.9506,-2.0237,-2.1135,-2.1999,-2.2482,-2.2904,-2.3516,-2.3358,-2.3208,-2.359,-2.3346,-2.3032,-2.2819,-2.2506,-2.2216,-2.1957,-2.2141,-2.2446,-2.286,-2.3559,-2.3784,-2.3134,-2.3748,-2.4036,-2.3625,-2.3595,-2.3595,-2.3595,-2.3595,-2.3595,-2.3595,-2.3595,-2.3595,-2.3595,-2.3595,-2.3804,-2.4201,-2.4051,-2.4776,-2.619,-2.5925,-2.6842,-2.0257,-1.9791,-1.9259,-1.9178,-1.8441,-1.7577,-1.6884,-1.6886,-1.681,-1.5937,0.0,-1.4142,-1.3192,0.0,0.0,0.0,0.0,0.0,0.0,0.0,0.0,0.0,0.0,0.0,0.0,0.0,0.0,0.0,0.0,0.0,0.0,0.0,0.0,0.0,0.0,0.0,-1.3166,-1.2898,-1.2744,0.0,-1.2432,-1.2305,-1.2305,-1.2305,-1.2318,-1.2371,-1.2926,-1.3026,-1.2959,-1.4313,-1.4706,-1.459,-1.5469,-1.5805,-1.5946,-1.7027,-1.7211,-1.7058,-1.8168,-1.8295,-1.8008,-1.8008,-1.8008,-1.8008,-1.8008,-1.8008,-1.7998,-1.7993,-1.8713,-1.9475,-1.9574,-2.0557,-2.1655,-2.2111,-2.2216,-2.2402,-2.2987,-2.3108,-2.3108,-2.3108,-2.3058,-2.2869,-2.2368,-2.225,-2.2005,-2.1419,-2.1479,-2.1841,-2.2509,-2.2768,-2.3001,-2.3275,-2.348,-2.3595,-2.3595,-2.3595,-2.3595,-2.3595,-2.3655,-2.367,-2.3595,-2.3595,-2.3595,-2.3595,-2.3595,-2.3595,-2.3595,-2.4201,-2.504,-2.6022,-2.6311,-2.7413,-1.9731,-1.94,-1.8999,-1.896,-1.8217,-1.74,-1.715,-1.6919,-1.6552,-1.5664,-1.5357,-1.4897,0.0,0.0,0.0,0.0,0.0,0.0,0.0,0.0,0.0,0.0,0.0,0.0,0.0,0.0,0.0,0.0,0.0,0.0,0.0,0.0,0.0,0.0,0.0,-1.2505,-1.2884,-1.2589,-1.2398,0.0,-1.2331,-1.2305,-1.2305,-1.2305,-1.2425,-1.2697,-1.2824,-1.2985,-1.3171,-1.4174,-1.4539,-1.459,-1.5469,-1.5805,-1.5911,-1.6729,-1.6982,-1.7021,-1.7831,-1.8086,-1.8008,-1.8008,-1.8008,-1.8008,-1.8008,-1.8008,-1.7997,-1.7998,-1.8159,-1.8548,-1.9381,-2.001,-2.0723,-2.1923,-2.2414,-2.2678,-2.3017,-2.3108,-2.3108,-2.3108,-2.2757,-2.2447,-2.2334,-2.1873,-2.1511,-2.1524,-2.1564,-2.1841,-2.2509,-2.2768,-2.3001,-2.3275,-2.348,-2.3595,-2.3595,-2.3595,-2.3595,-2.3595,-2.4081,-2.4141,-2.3625,-2.3595,-2.3595,-2.3595,-2.3595,-2.3595,-2.3595,-2.3744,-2.4068,-2.4548,-2.4633,-2.5726,-1.9886,-1.9651,-1.9315,-1.9253,0.0,-1.7841,-1.7393,-1.6898,-1.6315,-1.5732,-1.5735,0.0,0.0,0.0,0.0,0.0,0.0,0.0,0.0,0.0,0.0,0.0,0.0,0.0,0.0,0.0,0.0,0.0,0.0,0.0,0.0,0.0,0.0,0.0,-1.2241,-1.2313,-1.2569,-1.2378,-1.2305,-1.2305,-1.2305,-1.2305,-1.2305,-1.2305,-1.2385,-1.2569,-1.2569,-1.2583,-1.2678,-1.3844,-1.4217,-1.4181,-1.5336,-1.5805,-1.5903,-1.663,-1.6908,-1.7012,-1.7735,-1.8008,-1.8008,-1.8008,-1.8008,-1.8008,-1.8008,-1.8008,-1.8012,-1.8009,-1.819,-1.8606,-1.9594,-2.0151,-2.0752,-2.1789,-2.236,-2.2695,-2.271,-2.2706,-2.2631,-2.2397,-2.2121,-2.1832,-2.1568,-2.1312,-2.119,-2.1304,-2.1746,-2.2208,-2.2555,-2.2881,-2.315,-2.3297,-2.348,-2.3595,-2.3595,-2.3595,-2.3595,-2.3595,-2.3939,-2.3947,-2.361,-2.3595,-2.3595,-2.3595,-2.3595,-2.3595,-2.3595,-2.3595,-2.404,-2.4863,-2.4503,-2.5644,-2.0112,-2.0093,-1.9861,-1.9641,-1.9099,0.0,-1.7587,-1.6898,-1.6312,-1.5879,0.0,0.0,0.0,0.0,0.0,0.0,0.0,0.0,0.0,0.0,0.0,0.0,0.0,0.0,0.0,0.0,0.0,0.0,0.0,0.0,0.0,0.0,-1.1692,-1.2037,-1.2214,-1.2278,-1.2225,-1.2278,-1.2278,-1.2225,-1.2225,-1.2225,-1.2225,-1.2171,-1.2178,-1.2225,-1.2171,-1.2017,-1.1916,-1.3235,-1.3717,-1.3716,-1.5076,-1.5632,-1.5808,-1.6522,-1.6762,-1.68,-1.7514,-1.7793,-1.7803,-1.7881,-1.7852,-1.7803,-1.7881,-1.7852,-1.7805,-1.8007,-1.8332,-1.8922,-1.9963,-2.0621,-2.114,-2.1816,-2.2302,-2.2533,-2.2239,-2.2171,-2.2033,-2.1581,-2.1446,-2.1194,-2.0721,-2.0847,-2.1017,-2.1091,-2.1921,-2.2555,-2.2646,-2.2994,-2.326,-2.3326,-2.3501,-2.3595,-2.3595,-2.3595,-2.3595,-2.3595,-2.3714,-2.3729,-2.3595,-2.3714,-2.3729,-2.3595,-2.3595,-2.3595,-2.3595,-2.3595,-2.4225,-2.5409,-2.4979,-2.614,-1.9789,0.0,-2.0192,0.0,-1.9339,-1.8823,0.0,0.0,-1.6718,0.0,0.0,0.0,0.0,0.0,0.0,0.0,0.0,0.0,0.0,0.0,0.0,0.0,0.0,0.0,0.0,0.0,0.0,0.0,0.0,0.0,0.0,-1.1296,-1.1689,-1.1764,-1.2103,-1.2184,-1.1966,-1.2178,-1.2178,-1.196,-1.196,-1.196,-1.1953,-1.1663,-1.1683,-1.1946,-1.1657,-1.1489,-1.1524,-1.2252,-1.2962,-1.3658,-1.4399,-1.4906,-1.536,-1.6116,-1.6166,-1.5951,-1.6638,-1.6872,-1.6931,-1.7344,-1.7207,-1.6941,-1.7353,-1.7207,-1.7076,-1.7926,-1.8214,-1.8678,-2.0365,-2.1056,-2.1536,-2.2384,-2.2457,-2.2214,-2.1719,-2.1594,-2.1581,-2.1506,-2.1131,-2.0723,-2.0489,-2.0762,-2.1115,-2.1482,-2.1949,-2.2402,-2.2799,-2.2912,-2.3113,-2.3508,-2.3573,-2.3595,-2.3595,-2.3595,-2.3595,-2.3595,-2.4141,-2.4201,-2.3625,-2.4156,-2.4186,-2.361,-2.3595,-2.3595,-2.3595,-2.3595,-2.3848,-2.4321,-2.516,-2.6225,-2.0204,-2.0583,-2.0773,0.0,-2.0166,-1.9442,-1.8932,0.0,-1.6897,0.0,0.0,0.0,0.0,0.0,0.0,0.0,0.0,0.0,0.0,0.0,0.0,0.0,0.0,0.0,0.0,0.0,0.0,0.0,0.0,0.0,-1.0475,-1.085,-1.1082,-1.1192,-1.1368,0.0,-1.1628,-1.1553,-1.1539,-1.1623,-1.1623,-1.1623,-1.161,-1.1316,-1.1343,-1.1603,-1.1309,-1.1182,-1.1216,-1.185,-1.2454,-1.3104,-1.387,-1.4463,-1.5015,-1.571,-1.5845,-1.5785,-1.6475,-1.6697,-1.6726,-1.6921,-1.6853,-1.6736,-1.6963,-1.6853,-1.6918,-1.7914,-1.819,-1.8653,-2.0674,-2.108,-2.1129,-2.1852,-2.1709,-2.1242,-2.0665,-2.0817,-2.0955,-2.0602,-2.0351,-2.0178,-2.008,-2.0572,-2.1066,-2.1251,-2.2025,-2.2678,-2.2867,-2.3135,-2.3377,-2.3573,-2.3595,-2.3595,-2.3595,-2.3595,-2.3595,-2.3595,-2.3879,-2.3924,-2.361,-2.3879,-2.3909,-2.361,-2.3984,-2.3984,-2.3595,-2.3984,-2.4143,-2.4099,-2.4574,-2.567,-2.0452,0.0,-2.1182,-2.1475,-2.0971,-2.0257,0.0,0.0,0.0,0.0,0.0,0.0,0.0,0.0,0.0,0.0,0.0,0.0,0.0,0.0,0.0,0.0,0.0,0.0,0.0,0.0,0.0,0.0,0.0,0.0,-1.0331,-1.0381,-1.0489,-1.0629,-1.0665,-1.0812,-1.1055,-1.088,-1.1015,-1.1389,-1.1315,-1.1282,-1.1309,-1.1015,-1.1002,-1.1196,-1.0982,-1.0882,-1.0947,-1.1517,-1.2077,-1.269,-1.3485,-1.4122,-1.4757,-1.5309,-1.5532,-1.5607,-1.6179,-1.6365,-1.6385,-1.6523,-1.6453,-1.6385,-1.6502,-1.6453,-1.6602,-1.7705,-1.8125,-1.8681,-2.0689,-2.0988,-2.0904,-2.1378,-2.1094,-2.0528,-1.9924,-2.0137,-2.0352,-1.9886,-1.9798,-1.9824,-1.9927,-2.0522,-2.1066,-2.1237,-2.2142,-2.2881,-2.2994,-2.3326,-2.3545,-2.3595,-2.3595,-2.3595,-2.3595,-2.3595,-2.3595,-2.3595,-2.3595,-2.3595,-2.3595,-2.3595,-2.3595,-2.3595,-2.4261,-2.4261,-2.3595,-2.4096,-2.4213,-2.3994,-2.433,-2.5326,-2.0158,-2.0692,0.0,-2.1121,-2.135,0.0,0.0,0.0,0.0,0.0,0.0,0.0,0.0,0.0,0.0,0.0,0.0,0.0,0.0,0.0,0.0,0.0,0.0,0.0,0.0,0.0,0.0,0.0,0.0,0.0,-0.9922,-1.0118,-1.0206,-1.0225,-1.0349,-1.0299,-1.0065,-1.0359,-1.0821,-1.1389,-1.1149,-1.1015,-1.1009,-1.0747,-1.0626,-1.0633,-1.062,-1.0613,-1.0645,-1.1143,-1.1845,-1.2667,-1.3212,-1.392,-1.4644,-1.4925,-1.5025,-1.5096,-1.5371,-1.5478,-1.5547,-1.5997,-1.582,-1.5557,-1.6007,-1.5811,-1.5772,-1.7158,-1.7888,-1.8665,-2.0239,-2.0959,-2.1288,-2.1465,-2.1094,-2.0528,-1.9924,-1.9823,-1.9836,-1.9811,-1.9798,-1.9927,-2.0296,-2.0734,-2.1213,-2.1864,-2.2324,-2.2783,-2.3231,-2.3297,-2.3392,-2.3573,-2.3595,-2.3595,-2.3595,-2.3595,-2.3595,-2.3595,-2.3595,-2.3595,-2.3595,-2.3595,-2.3595,-2.3595,-2.4261,-2.4261,-2.3595,-2.364,-2.3625,-2.3653,-2.4991,-2.5665,-2.0703,0.0,0.0,-2.1859,-2.1887,-2.1717,-2.1515,0.0,0.0,0.0,0.0,0.0,0.0,0.0,0.0,0.0,0.0,0.0,0.0,0.0,0.0,0.0,0.0,0.0,0.0,0.0,0.0,0.0,0.0,0.0,-1.0663,-1.0572,-1.0432,-1.0266,-1.0149,-1.0053,-0.9999,-1.0542,-1.085,-1.0901,-1.0801,-1.0747,-1.0747,-1.064,-1.0593,-1.0593,-1.0593,-1.0593,-1.0624,-1.0776,-1.1399,-1.2249,-1.2648,-1.34,-1.4275,-1.4798,-1.5004,-1.5029,-1.5303,-1.541,-1.5439,-1.5596,-1.5537,-1.5439,-1.5596,-1.5742,-1.608,-1.7204,-1.7977,-1.8818,-2.0237,-2.0608,-2.055,-2.0432,-2.025,-2.0049,-1.9849,-1.9798,-1.9798,-1.9798,-2.0016,-2.0245,-2.0372,-2.0932,-2.153,-2.1949,-2.2449,-2.2926,-2.3253,-2.3414,-2.3523,-2.3595,-2.3595,-2.3595,-2.3595,-2.3595,-2.3595,-2.3595,-2.3595,-2.3595,-2.3595,-2.4007,-2.4036,-2.361,-2.4261,-2.4261,-2.3595,-2.4022,-2.4116,-2.3931,-2.4428,-2.516,-2.0849,0.0,0.0,0.0,0.0,-2.1902,-2.2138,0.0,0.0,0.0,0.0,0.0,0.0,0.0,0.0,0.0,0.0,0.0,0.0,0.0,0.0,0.0,0.0,0.0,0.0,0.0,0.0,0.0,0.0,0.0,-1.0925,-1.0681,-1.0385,-1.0,-0.974,-0.9717,-0.9989,-1.0425,-1.0652,-1.0593,-1.0593,-1.0593,-1.0593,-1.0593,-1.0593,-1.0593,-1.0593,-1.0593,-1.0624,-1.0933,-1.1483,-1.222,-1.2795,-1.3532,-1.4407,-1.4852,-1.5059,-1.5167,-1.5332,-1.541,-1.541,-1.541,-1.541,-1.541,-1.541,-1.5729,-1.629,-1.7148,-1.7975,-1.8856,-1.9929,-2.0138,-2.0011,-1.9834,-1.9798,-1.9798,-1.9798,-1.9798,-1.9798,-1.9798,-2.0016,-2.0283,-2.056,-2.1031,-2.1589,-2.2217,-2.264,-2.3024,-2.3348,-2.3523,-2.3595,-2.3595,-2.3595,-2.3595,-2.3595,-2.3595,-2.3595,-2.3595,-2.3595,-2.3699,-2.3939,-2.4141,-2.4156,-2.3954,-2.4141,-2.4103,-2.3767,-2.4103,-2.4197,-2.4099,-2.4224,-2.4884,0.0,0.0,0.0,0.0,0.0,0.0,-2.1817,0.0,0.0,0.0,0.0,0.0,0.0,0.0,0.0,0.0,0.0,0.0,0.0,0.0,0.0,0.0,0.0,0.0,0.0,0.0,0.0,0.0,0.0,-1.0962,-1.0556,-1.0352,-0.9984,-0.9472,-0.9181,-0.937,-1.0015,-1.0015,-1.0206,-1.0593,-1.0593,-1.0593,-1.0593,-1.0593,-1.0593,-1.0593,-1.0624,-1.0624,-1.0688,-1.1608,-1.2189,-1.2604,-1.3601,-1.4398,-1.5,-1.5,-1.5167,-1.541,-1.541,-1.541,-1.541,-1.541,-1.541,-1.541,-1.541,-1.5758,-1.6275,-1.7006,-1.7879,-1.8741,-1.9291,-1.9629,-1.9823,-1.9823,-1.9811,-1.9798,-1.9798,-1.9798,-1.9798,-1.9798,-1.9798,-2.0067,-2.087,-2.1017,-2.1465,-2.2694,-2.2912,-2.3068,-2.353,-2.3595,-2.3595,-2.3595,-2.3595,-2.3595,-2.3595,-2.3595,-2.3595,-2.3595,-2.3595,-2.3894,-2.4545,-2.3947,-2.3939,-2.456,-2.3947,-2.3775,-2.4063,-2.3767,-2.3788,-2.4141,-2.4472,-2.4985,-2.0566,0.0,0.0,0.0,0.0,0.0,0.0,0.0,0.0,0.0,0.0,0.0,0.0,0.0,0.0,0.0,0.0,0.0,0.0,0.0,0.0,0.0,0.0,0.0,0.0,0.0,0.0,0.0,-1.2203,-1.1929,-1.1818,-1.1326,-1.0898,-1.0566,-1.029,-1.0238,-1.0434,-1.0434,-1.0498,-1.0593,-1.0593,-1.0593,-1.0593,-1.0593,-1.0593,-1.0624,-1.0965,-1.1122,-1.1146,-1.1663,-1.2112,-1.2604,-1.3704,-1.4508,-1.5029,-1.5225,-1.5332,-1.541,-1.541,-1.541,-1.541,-1.541,-1.541,-1.5468,-1.5787,-1.6228,-1.6779,-1.7512,-1.8289,-1.9117,-2.0097,-2.0412,-2.0453,-2.0453,-2.0138,-1.9798,-1.9798,-1.9798,-1.9798,-1.9798,-2.0029,-2.0409,-2.0919,-2.1396,-2.1992,-2.2777,-2.3083,-2.3282,-2.3551,-2.3595,-2.3595,-2.3595,-2.3595,-2.3595,-2.3595,-2.3595,-2.3595,-2.3595,-2.3595,-2.3684,-2.3879,-2.4156,-2.4171,-2.3879,-2.4156,-2.4147,-2.3745,-2.3894,-2.4251,-2.4835,-2.5182,-2.5429,-2.0605,-2.0752,-2.1045,0.0,0.0,0.0,-2.2109,-2.1697,0.0,0.0,0.0,0.0,0.0,0.0,0.0,0.0,0.0,0.0,0.0,0.0,0.0,0.0,0.0,0.0,0.0,0.0,0.0,0.0,-1.2545,-1.2224,-1.2077,-1.1356,-1.094,-1.0907,-1.0549,-1.0434,-1.0593,-1.0593,-1.0593,-1.0593,-1.0593,-1.0593,-1.0593,-1.0593,-1.0593,-1.0624,-1.109,-1.1303,-1.1365,-1.2243,-1.2757,-1.3092,-1.4133,-1.4795,-1.5196,-1.5323,-1.541,-1.541,-1.541,-1.541,-1.541,-1.541,-1.541,-1.5497,-1.597,-1.6503,-1.7123,-1.7847,-1.867,-1.9496,-2.0134,-2.0327,-2.0327,-2.0327,-2.0075,-1.9798,-1.9798,-1.9798,-1.9798,-1.9798,-2.0105,-2.056,-2.1091,-2.1636,-2.224,-2.2971,-2.3194,-2.337,-2.3573,-2.3595,-2.3595,-2.3595,-2.3595,-2.3595,-2.3595,-2.3595,-2.3595,-2.3595,-2.3595,-2.3729,-2.4007,-2.4111,-2.4126,-2.4007,-2.4126,-2.413,-2.4015,-2.4063,-2.4436,-2.5127,-2.5448,-2.5597,-2.0605,-2.0644,-2.086,-2.1553,0.0,0.0,-2.1641,-2.1475,-2.1151,0.0,0.0,0.0,0.0,0.0,0.0,0.0,0.0,0.0,0.0,0.0,0.0,0.0,0.0,0.0,0.0,0.0,-1.3956,-1.3278,-1.2663,-1.215,-1.1781,-1.0962,-1.0612,-1.0918,-1.0384,-1.0283,-1.064,-1.0606,-1.0593,-1.0593,-1.0593,-1.0593,-1.0593,-1.0593,-1.0593,-1.0624,-1.1146,-1.1375,-1.1494,-1.3072,-1.3708,-1.3782,-1.4695,-1.5196,-1.541,-1.541,-1.541,-1.541,-1.541,-1.541,-1.541,-1.541,-1.541,-1.5497,-1.6046,-1.668,-1.7368,-1.8178,-1.9146,-1.9899,-1.9899,-1.9899,-1.9899,-1.9899,-1.9849,-1.9798,-1.9798,-1.9798,-1.9798,-1.9798,-2.0093,-2.056,-2.1248,-2.1684,-2.2226,-2.3105,-2.3275,-2.337,-2.3573,-2.3595,-2.3595,-2.3595,-2.3595,-2.3595,-2.3595,-2.3595,-2.3595,-2.3595,-2.3595,-2.3879,-2.447,-2.3924,-2.3879,-2.4485,-2.3909,-2.3894,-2.4549,-2.4369,-2.4558,-2.5166,-2.5467,-2.5597,0.0,0.0,0.0,0.0,0.0,0.0,-2.1288,-2.1016,-2.0898,0.0,0.0,0.0,0.0,0.0,0.0,0.0,0.0,0.0,0.0,0.0,0.0,0.0,0.0,0.0,0.0,0.0,-1.4199,-1.356,-1.2767,-1.2268,-1.2194,-1.1791,-1.1607,-1.1678,-1.1108,-1.0843,-1.0909,-1.0707,-1.0593,-1.0593,-1.0593,-1.0593,-1.0593,-1.0593,-1.0593,-1.0656,-1.149,-1.1829,-1.1899,-1.3215,-1.3758,-1.3803,-1.4913,-1.5352,-1.541,-1.541,-1.541,-1.541,-1.541,-1.541,-1.541,-1.541,-1.541,-1.5613,-1.6641,-1.709,-1.7479,-1.8804,-1.9834,-2.0515,-2.0515,-2.0515,-2.0515,-2.0515,-2.0137,-1.9798,-1.9798,-1.9798,-1.9798,-1.9798,-1.985,-2.0144,-2.0944,-2.1334,-2.186,-2.2822,-2.315,-2.337,-2.3573,-2.3595,-2.3595,-2.3595,-2.3595,-2.3595,-2.3595,-2.3595,-2.3595,-2.3595,-2.3595,-2.3655,-2.3789,-2.367,-2.367,-2.3789,-2.367,-2.3788,-2.4204,-2.495,-2.5355,-2.5505,-2.5578,-2.5597,0.0,0.0,0.0,-2.0898,0.0,0.0,0.0,-2.0889,-2.0732,0.0,0.0,0.0,0.0,0.0,0.0,0.0,0.0,0.0,0.0,0.0,0.0,0.0,0.0,0.0,0.0,0.0,-1.4737,-1.3473,-1.2984,-1.2636,-1.2335,-1.2067,-1.1906,-1.1906,-1.1436,-1.1142,-1.0995,-1.0881,-1.0734,-1.0593,-1.0593,-1.0593,-1.0593,-1.0593,-1.0593,-1.0656,-1.1584,-1.1973,-1.1996,-1.3283,-1.375,-1.3787,-1.4735,-1.5225,-1.541,-1.541,-1.541,-1.541,-1.541,-1.541,-1.541,-1.541,-1.541,-1.5584,-1.6606,-1.7418,-1.8213,-1.9291,-1.992,-2.0264,-2.0264,-2.0264,-2.0264,-2.0264,-2.0012,-1.9798,-1.9798,-1.9798,-1.9798,-1.9798,-1.9914,-2.0295,-2.1186,-2.1619,-2.2175,-2.3113,-2.337,-2.3501,-2.3588,-2.3595,-2.3595,-2.3595,-2.3595,-2.3595,-2.3595,-2.3595,-2.3595,-2.3595,-2.3595,-2.3595,-2.3595,-2.3595,-2.3595,-2.3595,-2.3767,-2.4,-2.4349,-2.5029,-2.5355,-2.5355,-2.5524,-2.5597,0.0,0.0,0.0,0.0,0.0,-2.0703,0.0,0.0,0.0,0.0,0.0,0.0,0.0,0.0,0.0,0.0,0.0,0.0,0.0,0.0,0.0,0.0,0.0,0.0,0.0,0.0,-1.5467,-1.3754,-1.3572,-1.3213,-1.2489,-1.2265,-1.2101,-1.1986,-1.1663,-1.1369,-1.1082,-1.1022,-1.0881,-1.0593,-1.0593,-1.0593,-1.0593,-1.0593,-1.0656,-1.0776,-1.1542,-1.1964,-1.2096,-1.3146,-1.3636,-1.3849,-1.4421,-1.4922,-1.5293,-1.5293,-1.5342,-1.541,-1.541,-1.541,-1.541,-1.541,-1.5575,-1.594,-1.6616,-1.7804,-1.9105,-1.9656,-1.9798,-1.9798,-1.9798,-1.9798,-1.9798,-1.9798,-1.9798,-1.9798,-1.9798,-1.9798,-1.9837,-1.9862,-2.0042,-2.051,-2.1472,-2.195,-2.2512,-2.3399,-2.3545,-2.3566,-2.361,-2.3595,-2.3595,-2.3595,-2.3595,-2.3595,-2.3595,-2.3595,-2.3595,-2.3595,-2.3595,-2.3595,-2.3595,-2.3595,-2.3655,-2.3789,-2.4064,-2.4361,-2.4694,-2.504,-2.5195,-2.5204,-2.5467,-2.5597,0.0,0.0,0.0,0.0,-2.0644,0.0,0.0,0.0,0.0,-2.0605,0.0,0.0,0.0,0.0,0.0,0.0,0.0,0.0,0.0,0.0,0.0,0.0,0.0,0.0,0.0,0.0,0.0,-1.5336,-1.4903,-1.4252,-1.317,-1.3055,-1.2807,-1.2251,-1.2007,-1.1677,-1.1342,-1.1122,-1.0881,-1.0593,-1.0593,-1.0593,-1.0593,-1.0593,-1.0839,-1.1226,-1.1458,-1.1897,-1.2462,-1.2663,-1.3259,-1.406,-1.4163,-1.4445,-1.4882,-1.4882,-1.5088,-1.541,-1.541,-1.541,-1.541,-1.541,-1.6273,-1.7385,-1.7468,-1.8513,-1.9708,-1.9773,-1.9798,-1.9798,-1.9798,-1.9798,-1.9798,-1.9798,-1.9798,-1.9798,-1.9798,-1.9798,-1.9862,-2.0105,-2.0182,-2.0459,-2.1296,-2.1684,-2.218,-2.3194,-2.3326,-2.3392,-2.3573,-2.3595,-2.3595,-2.3595,-2.3595,-2.3595,-2.3595,-2.3595,-2.3595,-2.3595,-2.3595,-2.3595,-2.3595,-2.3595,-2.3879,-2.447,-2.453,-2.4715,-2.505,-2.5387,-2.553,-2.5524,-2.5578,-2.5597,0.0,0.0,0.0,0.0,0.0,0.0,-2.0605,0.0,-2.0605,0.0,0.0,0.0,0.0,0.0,0.0,0.0,0.0,0.0,0.0,0.0,0.0,0.0,0.0,0.0,0.0,0.0,0.0,0.0,0.0,-1.5137,-1.4057,-1.3513,-1.3083,-1.282,-1.2367,-1.1897,-1.1395,-1.1309,-1.1015,-1.0593,-1.0593,-1.0593,-1.0624,-1.087,-1.1122,-1.132,-1.1714,-1.2122,-1.2512,-1.2573,-1.2929,-1.3408,-1.3408,-1.4121,-1.5146,-1.5146,-1.5264,-1.541,-1.541,-1.541,-1.5439,-1.5642,-1.6208,-1.6972,-1.7672,-1.8471,-1.9212,-1.9669,-1.9798,-1.9798,-1.9798,-1.9798,-1.9798,-1.9798,-1.9798,-1.9798,-1.9798,-1.9798,-1.9888,-2.0156,-2.0321,-2.0734,-2.1657,-2.1908,-2.2328,-2.3312,-2.348,-2.3501,-2.3595,-2.3595,-2.3595,-2.3595,-2.3595,-2.3595,-2.3595,-2.3595,-2.3595,-2.3595,-2.3595,-2.3595,-2.3595,-2.3962,-2.4306,-2.4605,-2.4978,-2.5341,-2.5672,-2.5632,-2.5691,-2.589,-2.5699,-2.5597,-2.0605,0.0,0.0,0.0,0.0,0.0,0.0,0.0,0.0,0.0,0.0,0.0,0.0,0.0,0.0,0.0,0.0,0.0,0.0,0.0,0.0,0.0,0.0,0.0,0.0,0.0,0.0,0.0,-1.6658,0.0,-1.4738,-1.4132,-1.3622,-1.3193,-1.2783,-1.2168,-1.1395,-1.1389,-1.1136,-1.0593,-1.0593,-1.0593,-1.0624,-1.109,-1.1365,-1.1531,-1.197,-1.2374,-1.2695,-1.2622,-1.277,-1.3091,-1.3184,-1.4053,-1.5225,-1.5079,-1.5176,-1.541,-1.541,-1.5468,-1.5584,-1.5816,-1.6304,-1.6955,-1.782,-1.8483,-1.9054,-1.9656,-1.9798,-1.9798,-1.9798,-1.9798,-1.9798,-1.9798,-1.9798,-1.9798,-1.9798,-1.9862,-1.9991,-2.0245,-2.0523,-2.1017,-2.2035,-2.2198,-2.2521,-2.3465,-2.3595,-2.3595,-2.3595,-2.3595,-2.3595,-2.3595,-2.3595,-2.3595,-2.3595,-2.3595,-2.3595,-2.3595,-2.3595,-2.3684,-2.3879,-2.4335,-2.4769,-2.5128,-2.563,-2.5975,-2.6235,-2.6001,-2.5905,-2.5955,-2.5709,-2.5597,0.0,0.0,0.0,-2.0605,0.0,0.0,0.0,0.0,-2.0605,0.0,0.0,0.0,0.0,0.0,-2.1621,-2.1186,-2.2136,0.0,0.0,0.0,0.0,0.0,0.0,0.0,0.0,0.0,0.0,-1.818,-1.8227,0.0,-1.4915,-1.52,-1.4752,-1.3236,-1.32,-1.2599,-1.1395,-1.1389,-1.1136,-1.0593,-1.0593,-1.0593,-1.0624,-1.109,-1.1553,-1.1973,-1.2056,-1.25,-1.3132,-1.2679,-1.2901,-1.3525,-1.3909,-1.4385,-1.4756,-1.4299,-1.4669,-1.541,-1.541,-1.5613,-1.5902,-1.5902,-1.6877,-1.8038,-1.8093,-1.8871,-1.9773,-1.9798,-1.9798,-1.9798,-1.9798,-1.9798,-1.9798,-1.9798,-1.9798,-1.9798,-1.9798,-1.9991,-2.0283,-2.0535,-2.0797,-2.1313,-2.2305,-2.2489,-2.274,-2.3486,-2.3595,-2.3595,-2.3595,-2.3595,-2.3595,-2.3595,-2.3595,-2.3595,-2.3595,-2.3595,-2.3595,-2.3595,-2.3595,-2.3894,-2.4545,-2.459,-2.5202,-2.6497,-2.6557,-2.6561,-2.6585,-2.657,-2.6246,-2.5629,-2.5613,-2.5597,0.0,0.0,-2.0605,-2.0605,0.0,0.0,0.0,0.0,0.0,0.0,0.0,0.0,0.0,0.0,-2.2531,-2.237,-2.2737,-2.2744,0.0,0.0,0.0,0.0,0.0,0.0,0.0,0.0,0.0,-1.8137,-1.7872,-1.7297,0.0,-1.5722,-1.5251,-1.4752,-1.4122,-1.3375,-1.2463,-1.2463,-1.1984,-1.1059,-1.1059,-1.1059,-1.1083,-1.1553,-1.2166,-1.287,-1.2934,-1.3325,-1.3886,-1.3531,-1.3426,-1.3545,-1.3938,-1.4026,-1.4023,-1.4727,-1.5166,-1.541,-1.541,-1.5613,-1.5931,-1.6114,-1.6832,-1.7738,-1.8278,-1.8883,-1.9462,-1.9721,-1.9798,-1.9798,-1.9798,-1.9798,-1.9798,-1.9798,-1.9798,-1.9798,-1.9798,-2.0016,-2.0271,-2.0535,-2.0835,-2.1313,-2.2328,-2.2512,-2.2762,-2.3486,-2.3595,-2.3595,-2.3595,-2.3595,-2.3595,-2.3595,-2.3595,-2.3595,-2.3595,-2.3595,-2.3595,-2.3595,-2.3595,-2.3909,-2.4575,-2.5023,-2.5495,-2.5929,-2.6579,-2.6709,-2.628,-2.627,-2.6149,-2.5931,-2.5712,-2.5597,-2.0155,-2.0155,0.0,-2.0155,-2.0155,0.0,-2.0341,0.0,0.0,0.0,0.0,0.0,0.0,0.0,-2.3334,-2.3167,-2.3509,-2.3841,0.0,-2.3806,0.0,0.0,0.0,0.0,0.0,0.0,-1.9713,-1.832,-1.817,-1.7732,0.0,0.0,-1.6035,-1.5702,-1.5108,-1.4268,-1.3227,-1.322,-1.2561,-1.1303,-1.1303,-1.1303,-1.1334,-1.1802,-1.2474,-1.3304,-1.3459,-1.3836,-1.4279,-1.4027,-1.3826,-1.3769,-1.4172,-1.4199,-1.4043,-1.4717,-1.5049,-1.5215,-1.5477,-1.5787,-1.6104,-1.6531,-1.7196,-1.7941,-1.8602,-1.896,-1.9227,-1.9671,-1.9673,-1.9572,-1.9748,-1.9798,-1.9798,-1.9798,-1.9798,-1.9798,-1.9798,-2.0016,-2.0271,-2.0535,-2.0835,-2.1313,-2.2328,-2.2512,-2.2762,-2.3486,-2.3595,-2.3595,-2.3595,-2.3595,-2.3595,-2.3595,-2.3595,-2.3699,-2.3939,-2.3744,-2.3699,-2.3954,-2.3729,-2.3909,-2.4575,-2.5008,-2.548,-2.5959,-2.6352,-2.6419,-2.61,-2.5993,-2.5851,-2.5739,-2.5638,-2.5597]}]]